<?xml version="1.0" encoding="UTF-8" standalone="no" ?>
<gpx xmlns="http://www.topografix.com/GPX/1/1" xmlns:xsi="http://www.w3.org/2001/XMLSchema-instance" xsi:schemaLocation="http://www.topografix.com/GPX/1/1 http://www.topografix.com/GPX/1/1/gpx.xsd" version="1.1" creator="VisuGPX - https://www.visugpx.com">
  <metadata>
    <name>Grand Bargy</name>
    <desc><![CDATA[Export from GpsPrune]]></desc>
  </metadata>
  <trk>
    <name><![CDATA[Grand_Bargy]]></name>
    <trkseg>
      <trkpt lat="45.99216" lon="6.4754">
        <ele>1597.85</ele>
        <time>2015-08-30T05:59:44Z</time>
      </trkpt>
      <trkpt lat="45.99222" lon="6.47539">
        <ele>1601.21</ele>
        <time>2015-08-30T05:59:52Z</time>
      </trkpt>
      <trkpt lat="45.99226" lon="6.47535">
        <ele>1604.58</ele>
        <time>2015-08-30T05:59:59Z</time>
      </trkpt>
      <trkpt lat="45.99227" lon="6.47534">
        <ele>1605.06</ele>
        <time>2015-08-30T06:00:00Z</time>
      </trkpt>
      <trkpt lat="45.99228" lon="6.47526">
        <ele>1607.94</ele>
        <time>2015-08-30T06:00:10Z</time>
      </trkpt>
      <trkpt lat="45.9923" lon="6.47518">
        <ele>1611.31</ele>
        <time>2015-08-30T06:00:23Z</time>
      </trkpt>
      <trkpt lat="45.9923" lon="6.47496">
        <ele>1613.23</ele>
        <time>2015-08-30T06:00:40Z</time>
      </trkpt>
      <trkpt lat="45.99232" lon="6.47474">
        <ele>1616.11</ele>
        <time>2015-08-30T06:00:57Z</time>
      </trkpt>
      <trkpt lat="45.99232" lon="6.47461">
        <ele>1618.04</ele>
        <time>2015-08-30T06:01:10Z</time>
      </trkpt>
      <trkpt lat="45.99231" lon="6.47448">
        <ele>1619.48</ele>
        <time>2015-08-30T06:01:24Z</time>
      </trkpt>
      <trkpt lat="45.9923" lon="6.47459">
        <ele>1620.92</ele>
        <time>2015-08-30T06:01:37Z</time>
      </trkpt>
      <trkpt lat="45.99232" lon="6.47467">
        <ele>1621.88</ele>
        <time>2015-08-30T06:01:45Z</time>
      </trkpt>
      <trkpt lat="45.99239" lon="6.47481">
        <ele>1624.28</ele>
        <time>2015-08-30T06:02:00Z</time>
      </trkpt>
      <trkpt lat="45.99246" lon="6.47492">
        <ele>1626.21</ele>
        <time>2015-08-30T06:02:14Z</time>
      </trkpt>
      <trkpt lat="45.99254" lon="6.47504">
        <ele>1628.13</ele>
        <time>2015-08-30T06:02:29Z</time>
      </trkpt>
      <trkpt lat="45.99263" lon="6.47515">
        <ele>1631.01</ele>
        <time>2015-08-30T06:02:43Z</time>
      </trkpt>
      <trkpt lat="45.9927" lon="6.4753">
        <ele>1632.46</ele>
        <time>2015-08-30T06:02:57Z</time>
      </trkpt>
      <trkpt lat="45.99278" lon="6.4754">
        <ele>1634.38</ele>
        <time>2015-08-30T06:03:11Z</time>
      </trkpt>
      <trkpt lat="45.99284" lon="6.47553">
        <ele>1636.3</ele>
        <time>2015-08-30T06:03:24Z</time>
      </trkpt>
      <trkpt lat="45.99296" lon="6.4756">
        <ele>1638.7</ele>
        <time>2015-08-30T06:03:38Z</time>
      </trkpt>
      <trkpt lat="45.99304" lon="6.47575">
        <ele>1640.15</ele>
        <time>2015-08-30T06:03:52Z</time>
      </trkpt>
      <trkpt lat="45.99309" lon="6.47593">
        <ele>1642.07</ele>
        <time>2015-08-30T06:04:08Z</time>
      </trkpt>
      <trkpt lat="45.99317" lon="6.47605">
        <ele>1643.51</ele>
        <time>2015-08-30T06:04:23Z</time>
      </trkpt>
      <trkpt lat="45.99323" lon="6.47618">
        <ele>1645.91</ele>
        <time>2015-08-30T06:04:39Z</time>
      </trkpt>
      <trkpt lat="45.99329" lon="6.47629">
        <ele>1647.84</ele>
        <time>2015-08-30T06:04:52Z</time>
      </trkpt>
      <trkpt lat="45.99334" lon="6.47639">
        <ele>1649.28</ele>
        <time>2015-08-30T06:05:05Z</time>
      </trkpt>
      <trkpt lat="45.9934" lon="6.47648">
        <ele>1651.2</ele>
        <time>2015-08-30T06:05:18Z</time>
      </trkpt>
      <trkpt lat="45.99348" lon="6.47658">
        <ele>1653.6</ele>
        <time>2015-08-30T06:05:32Z</time>
      </trkpt>
      <trkpt lat="45.99355" lon="6.47668">
        <ele>1655.53</ele>
        <time>2015-08-30T06:05:45Z</time>
      </trkpt>
      <trkpt lat="45.99362" lon="6.47679">
        <ele>1656.97</ele>
        <time>2015-08-30T06:05:58Z</time>
      </trkpt>
      <trkpt lat="45.99374" lon="6.47679">
        <ele>1658.41</ele>
        <time>2015-08-30T06:06:11Z</time>
      </trkpt>
      <trkpt lat="45.99378" lon="6.47668">
        <ele>1660.33</ele>
        <time>2015-08-30T06:06:24Z</time>
      </trkpt>
      <trkpt lat="45.99375" lon="6.47652">
        <ele>1662.74</ele>
        <time>2015-08-30T06:06:39Z</time>
      </trkpt>
      <trkpt lat="45.99372" lon="6.4764">
        <ele>1663.7</ele>
        <time>2015-08-30T06:06:50Z</time>
      </trkpt>
      <trkpt lat="45.99367" lon="6.47619">
        <ele>1665.14</ele>
        <time>2015-08-30T06:07:06Z</time>
      </trkpt>
      <trkpt lat="45.99372" lon="6.47607">
        <ele>1666.58</ele>
        <time>2015-08-30T06:07:20Z</time>
      </trkpt>
      <trkpt lat="45.99373" lon="6.47607">
        <ele>1666.58</ele>
        <time>2015-08-30T06:07:21Z</time>
      </trkpt>
      <trkpt lat="45.99377" lon="6.47626">
        <ele>1668.51</ele>
        <time>2015-08-30T06:07:36Z</time>
      </trkpt>
      <trkpt lat="45.99382" lon="6.47636">
        <ele>1669.47</ele>
        <time>2015-08-30T06:07:49Z</time>
      </trkpt>
      <trkpt lat="45.99386" lon="6.47647">
        <ele>1670.43</ele>
        <time>2015-08-30T06:08:01Z</time>
      </trkpt>
      <trkpt lat="45.99388" lon="6.4765">
        <ele>1671.39</ele>
        <time>2015-08-30T06:08:04Z</time>
      </trkpt>
      <trkpt lat="45.99391" lon="6.47655">
        <ele>1671.87</ele>
        <time>2015-08-30T06:08:09Z</time>
      </trkpt>
      <trkpt lat="45.99392" lon="6.47656">
        <ele>1671.87</ele>
        <time>2015-08-30T06:08:11Z</time>
      </trkpt>
      <trkpt lat="45.99397" lon="6.47665">
        <ele>1672.83</ele>
        <time>2015-08-30T06:08:19Z</time>
      </trkpt>
      <trkpt lat="45.99398" lon="6.47668">
        <ele>1673.79</ele>
        <time>2015-08-30T06:08:21Z</time>
      </trkpt>
      <trkpt lat="45.99403" lon="6.47674">
        <ele>1673.79</ele>
        <time>2015-08-30T06:08:27Z</time>
      </trkpt>
      <trkpt lat="45.99409" lon="6.47682">
        <ele>1675.23</ele>
        <time>2015-08-30T06:08:36Z</time>
      </trkpt>
      <trkpt lat="45.9942" lon="6.47688">
        <ele>1677.16</ele>
        <time>2015-08-30T06:08:48Z</time>
      </trkpt>
      <trkpt lat="45.99434" lon="6.4768">
        <ele>1678.12</ele>
        <time>2015-08-30T06:09:03Z</time>
      </trkpt>
      <trkpt lat="45.9945" lon="6.47672">
        <ele>1678.12</ele>
        <time>2015-08-30T06:09:17Z</time>
      </trkpt>
      <trkpt lat="45.99469" lon="6.47673">
        <ele>1678.12</ele>
        <time>2015-08-30T06:09:34Z</time>
      </trkpt>
      <trkpt lat="45.99485" lon="6.47679">
        <ele>1677.16</ele>
        <time>2015-08-30T06:09:48Z</time>
      </trkpt>
      <trkpt lat="45.995" lon="6.47692">
        <ele>1676.68</ele>
        <time>2015-08-30T06:10:03Z</time>
      </trkpt>
      <trkpt lat="45.99518" lon="6.477">
        <ele>1676.68</ele>
        <time>2015-08-30T06:10:19Z</time>
      </trkpt>
      <trkpt lat="45.99528" lon="6.47702">
        <ele>1678.12</ele>
        <time>2015-08-30T06:10:29Z</time>
      </trkpt>
      <trkpt lat="45.99533" lon="6.477">
        <ele>1678.6</ele>
        <time>2015-08-30T06:10:35Z</time>
      </trkpt>
      <trkpt lat="45.99547" lon="6.47699">
        <ele>1680.04</ele>
        <time>2015-08-30T06:10:50Z</time>
      </trkpt>
      <trkpt lat="45.9955" lon="6.47703">
        <ele>1680.52</ele>
        <time>2015-08-30T06:10:54Z</time>
      </trkpt>
      <trkpt lat="45.99558" lon="6.47716">
        <ele>1682.44</ele>
        <time>2015-08-30T06:11:08Z</time>
      </trkpt>
      <trkpt lat="45.99558" lon="6.47729">
        <ele>1681.48</ele>
        <time>2015-08-30T06:11:21Z</time>
      </trkpt>
      <trkpt lat="45.99559" lon="6.47745">
        <ele>1680.04</ele>
        <time>2015-08-30T06:11:34Z</time>
      </trkpt>
      <trkpt lat="45.99561" lon="6.47751">
        <ele>1679.08</ele>
        <time>2015-08-30T06:11:38Z</time>
      </trkpt>
      <trkpt lat="45.99558" lon="6.47769">
        <ele>1675.23</ele>
        <time>2015-08-30T06:11:52Z</time>
      </trkpt>
      <trkpt lat="45.99556" lon="6.47786">
        <ele>1672.83</ele>
        <time>2015-08-30T06:12:05Z</time>
      </trkpt>
      <trkpt lat="45.99555" lon="6.4779">
        <ele>1672.35</ele>
        <time>2015-08-30T06:12:08Z</time>
      </trkpt>
      <trkpt lat="45.99556" lon="6.47797">
        <ele>1671.87</ele>
        <time>2015-08-30T06:12:12Z</time>
      </trkpt>
      <trkpt lat="45.99555" lon="6.47819">
        <ele>1669.47</ele>
        <time>2015-08-30T06:12:26Z</time>
      </trkpt>
      <trkpt lat="45.99553" lon="6.47826">
        <ele>1668.02</ele>
        <time>2015-08-30T06:12:30Z</time>
      </trkpt>
      <trkpt lat="45.99553" lon="6.4784">
        <ele>1666.58</ele>
        <time>2015-08-30T06:12:38Z</time>
      </trkpt>
      <trkpt lat="45.99556" lon="6.47863">
        <ele>1663.7</ele>
        <time>2015-08-30T06:12:53Z</time>
      </trkpt>
      <trkpt lat="45.99558" lon="6.4788">
        <ele>1663.22</ele>
        <time>2015-08-30T06:13:03Z</time>
      </trkpt>
      <trkpt lat="45.99559" lon="6.47885">
        <ele>1662.74</ele>
        <time>2015-08-30T06:13:06Z</time>
      </trkpt>
      <trkpt lat="45.99558" lon="6.4789">
        <ele>1662.26</ele>
        <time>2015-08-30T06:13:09Z</time>
      </trkpt>
      <trkpt lat="45.99562" lon="6.47906">
        <ele>1661.3</ele>
        <time>2015-08-30T06:13:19Z</time>
      </trkpt>
      <trkpt lat="45.99561" lon="6.47928">
        <ele>1659.37</ele>
        <time>2015-08-30T06:13:33Z</time>
      </trkpt>
      <trkpt lat="45.99562" lon="6.47936">
        <ele>1658.89</ele>
        <time>2015-08-30T06:13:37Z</time>
      </trkpt>
      <trkpt lat="45.99577" lon="6.47939">
        <ele>1660.33</ele>
        <time>2015-08-30T06:13:52Z</time>
      </trkpt>
      <trkpt lat="45.99591" lon="6.47942">
        <ele>1660.81</ele>
        <time>2015-08-30T06:14:05Z</time>
      </trkpt>
      <trkpt lat="45.99591" lon="6.47942">
        <ele>1660.81</ele>
        <time>2015-08-30T06:14:06Z</time>
      </trkpt>
      <trkpt lat="45.99596" lon="6.47937">
        <ele>1661.3</ele>
        <time>2015-08-30T06:14:22Z</time>
      </trkpt>
      <trkpt lat="45.99604" lon="6.47925">
        <ele>1661.3</ele>
        <time>2015-08-30T06:14:36Z</time>
      </trkpt>
      <trkpt lat="45.99607" lon="6.47922">
        <ele>1660.33</ele>
        <time>2015-08-30T06:14:39Z</time>
      </trkpt>
      <trkpt lat="45.9961" lon="6.47919">
        <ele>1659.37</ele>
        <time>2015-08-30T06:14:43Z</time>
      </trkpt>
      <trkpt lat="45.99613" lon="6.47915">
        <ele>1659.37</ele>
        <time>2015-08-30T06:14:46Z</time>
      </trkpt>
      <trkpt lat="45.99618" lon="6.47912">
        <ele>1658.41</ele>
        <time>2015-08-30T06:14:53Z</time>
      </trkpt>
      <trkpt lat="45.99623" lon="6.47914">
        <ele>1656.01</ele>
        <time>2015-08-30T06:15:02Z</time>
      </trkpt>
      <trkpt lat="45.99637" lon="6.4792">
        <ele>1655.53</ele>
        <time>2015-08-30T06:15:19Z</time>
      </trkpt>
      <trkpt lat="45.99639" lon="6.47928">
        <ele>1654.09</ele>
        <time>2015-08-30T06:15:31Z</time>
      </trkpt>
      <trkpt lat="45.99643" lon="6.47939">
        <ele>1652.64</ele>
        <time>2015-08-30T06:15:41Z</time>
      </trkpt>
      <trkpt lat="45.99646" lon="6.47948">
        <ele>1651.2</ele>
        <time>2015-08-30T06:15:47Z</time>
      </trkpt>
      <trkpt lat="45.99665" lon="6.47961">
        <ele>1649.76</ele>
        <time>2015-08-30T06:16:03Z</time>
      </trkpt>
      <trkpt lat="45.9967" lon="6.47963">
        <ele>1649.76</ele>
        <time>2015-08-30T06:16:08Z</time>
      </trkpt>
      <trkpt lat="45.99675" lon="6.47971">
        <ele>1649.76</ele>
        <time>2015-08-30T06:16:15Z</time>
      </trkpt>
      <trkpt lat="45.99683" lon="6.47968">
        <ele>1649.28</ele>
        <time>2015-08-30T06:16:29Z</time>
      </trkpt>
      <trkpt lat="45.99689" lon="6.47967">
        <ele>1648.8</ele>
        <time>2015-08-30T06:16:41Z</time>
      </trkpt>
      <trkpt lat="45.99695" lon="6.47965">
        <ele>1649.76</ele>
        <time>2015-08-30T06:16:50Z</time>
      </trkpt>
      <trkpt lat="45.99705" lon="6.47965">
        <ele>1651.68</ele>
        <time>2015-08-30T06:17:03Z</time>
      </trkpt>
      <trkpt lat="45.99714" lon="6.4797">
        <ele>1654.09</ele>
        <time>2015-08-30T06:17:16Z</time>
      </trkpt>
      <trkpt lat="45.99715" lon="6.47971">
        <ele>1654.09</ele>
        <time>2015-08-30T06:17:17Z</time>
      </trkpt>
      <trkpt lat="45.99725" lon="6.47985">
        <ele>1653.6</ele>
        <time>2015-08-30T06:17:32Z</time>
      </trkpt>
      <trkpt lat="45.99729" lon="6.47987">
        <ele>1653.12</ele>
        <time>2015-08-30T06:17:35Z</time>
      </trkpt>
      <trkpt lat="45.99738" lon="6.48005">
        <ele>1652.16</ele>
        <time>2015-08-30T06:17:50Z</time>
      </trkpt>
      <trkpt lat="45.99743" lon="6.48008">
        <ele>1652.16</ele>
        <time>2015-08-30T06:17:57Z</time>
      </trkpt>
      <trkpt lat="45.99746" lon="6.48022">
        <ele>1651.2</ele>
        <time>2015-08-30T06:18:08Z</time>
      </trkpt>
      <trkpt lat="45.9975" lon="6.48041">
        <ele>1650.72</ele>
        <time>2015-08-30T06:18:20Z</time>
      </trkpt>
      <trkpt lat="45.9975" lon="6.48049">
        <ele>1650.24</ele>
        <time>2015-08-30T06:18:24Z</time>
      </trkpt>
      <trkpt lat="45.99751" lon="6.48057">
        <ele>1649.76</ele>
        <time>2015-08-30T06:18:28Z</time>
      </trkpt>
      <trkpt lat="45.99759" lon="6.48085">
        <ele>1649.76</ele>
        <time>2015-08-30T06:18:46Z</time>
      </trkpt>
      <trkpt lat="45.99764" lon="6.48102">
        <ele>1651.2</ele>
        <time>2015-08-30T06:18:58Z</time>
      </trkpt>
      <trkpt lat="45.99769" lon="6.48113">
        <ele>1652.16</ele>
        <time>2015-08-30T06:19:07Z</time>
      </trkpt>
      <trkpt lat="45.99775" lon="6.4813">
        <ele>1653.12</ele>
        <time>2015-08-30T06:19:24Z</time>
      </trkpt>
      <trkpt lat="45.99776" lon="6.48132">
        <ele>1653.6</ele>
        <time>2015-08-30T06:19:43Z</time>
      </trkpt>
      <trkpt lat="45.9978" lon="6.48146">
        <ele>1654.57</ele>
        <time>2015-08-30T06:19:56Z</time>
      </trkpt>
      <trkpt lat="45.99785" lon="6.48152">
        <ele>1655.05</ele>
        <time>2015-08-30T06:20:01Z</time>
      </trkpt>
      <trkpt lat="45.99791" lon="6.48156">
        <ele>1655.53</ele>
        <time>2015-08-30T06:20:16Z</time>
      </trkpt>
      <trkpt lat="45.99795" lon="6.48165">
        <ele>1656.01</ele>
        <time>2015-08-30T06:20:28Z</time>
      </trkpt>
      <trkpt lat="45.99799" lon="6.48169">
        <ele>1656.01</ele>
        <time>2015-08-30T06:20:33Z</time>
      </trkpt>
      <trkpt lat="45.99808" lon="6.4818">
        <ele>1656.01</ele>
        <time>2015-08-30T06:20:45Z</time>
      </trkpt>
      <trkpt lat="45.99819" lon="6.4819">
        <ele>1657.45</ele>
        <time>2015-08-30T06:20:57Z</time>
      </trkpt>
      <trkpt lat="45.99819" lon="6.48201">
        <ele>1657.45</ele>
        <time>2015-08-30T06:21:05Z</time>
      </trkpt>
      <trkpt lat="45.9982" lon="6.48207">
        <ele>1656.01</ele>
        <time>2015-08-30T06:21:09Z</time>
      </trkpt>
      <trkpt lat="45.99825" lon="6.48217">
        <ele>1655.53</ele>
        <time>2015-08-30T06:21:22Z</time>
      </trkpt>
      <trkpt lat="45.99834" lon="6.48232">
        <ele>1657.45</ele>
        <time>2015-08-30T06:21:36Z</time>
      </trkpt>
      <trkpt lat="45.9985" lon="6.48246">
        <ele>1657.45</ele>
        <time>2015-08-30T06:21:53Z</time>
      </trkpt>
      <trkpt lat="45.99866" lon="6.48252">
        <ele>1656.49</ele>
        <time>2015-08-30T06:22:08Z</time>
      </trkpt>
      <trkpt lat="45.99879" lon="6.48256">
        <ele>1658.89</ele>
        <time>2015-08-30T06:22:23Z</time>
      </trkpt>
      <trkpt lat="45.99885" lon="6.4826">
        <ele>1661.3</ele>
        <time>2015-08-30T06:22:34Z</time>
      </trkpt>
      <trkpt lat="45.9989" lon="6.4826">
        <ele>1663.22</ele>
        <time>2015-08-30T06:22:47Z</time>
      </trkpt>
      <trkpt lat="45.99894" lon="6.48268">
        <ele>1665.62</ele>
        <time>2015-08-30T06:23:01Z</time>
      </trkpt>
      <trkpt lat="45.99901" lon="6.48274">
        <ele>1667.54</ele>
        <time>2015-08-30T06:23:16Z</time>
      </trkpt>
      <trkpt lat="45.99905" lon="6.48283">
        <ele>1670.43</ele>
        <time>2015-08-30T06:23:32Z</time>
      </trkpt>
      <trkpt lat="45.99908" lon="6.48288">
        <ele>1672.35</ele>
        <time>2015-08-30T06:23:45Z</time>
      </trkpt>
      <trkpt lat="45.99911" lon="6.48295">
        <ele>1674.75</ele>
        <time>2015-08-30T06:23:57Z</time>
      </trkpt>
      <trkpt lat="45.99912" lon="6.48302">
        <ele>1676.2</ele>
        <time>2015-08-30T06:24:05Z</time>
      </trkpt>
      <trkpt lat="45.99913" lon="6.48307">
        <ele>1676.68</ele>
        <time>2015-08-30T06:24:09Z</time>
      </trkpt>
      <trkpt lat="45.99919" lon="6.48325">
        <ele>1677.64</ele>
        <time>2015-08-30T06:24:24Z</time>
      </trkpt>
      <trkpt lat="45.99927" lon="6.48341">
        <ele>1679.08</ele>
        <time>2015-08-30T06:24:39Z</time>
      </trkpt>
      <trkpt lat="45.99932" lon="6.48362">
        <ele>1680.04</ele>
        <time>2015-08-30T06:24:55Z</time>
      </trkpt>
      <trkpt lat="45.99934" lon="6.48367">
        <ele>1680.04</ele>
        <time>2015-08-30T06:25:17Z</time>
      </trkpt>
      <trkpt lat="45.99937" lon="6.48371">
        <ele>1680.52</ele>
        <time>2015-08-30T06:25:32Z</time>
      </trkpt>
      <trkpt lat="45.99937" lon="6.48374">
        <ele>1680.52</ele>
        <time>2015-08-30T06:25:38Z</time>
      </trkpt>
      <trkpt lat="45.99939" lon="6.48378">
        <ele>1680.52</ele>
        <time>2015-08-30T06:25:41Z</time>
      </trkpt>
      <trkpt lat="45.99939" lon="6.48384">
        <ele>1681</ele>
        <time>2015-08-30T06:25:46Z</time>
      </trkpt>
      <trkpt lat="45.99939" lon="6.48391">
        <ele>1681</ele>
        <time>2015-08-30T06:25:50Z</time>
      </trkpt>
      <trkpt lat="45.9994" lon="6.48395">
        <ele>1681.48</ele>
        <time>2015-08-30T06:25:53Z</time>
      </trkpt>
      <trkpt lat="45.99939" lon="6.48414">
        <ele>1682.44</ele>
        <time>2015-08-30T06:26:04Z</time>
      </trkpt>
      <trkpt lat="45.99939" lon="6.48423">
        <ele>1682.44</ele>
        <time>2015-08-30T06:26:12Z</time>
      </trkpt>
      <trkpt lat="45.9994" lon="6.48433">
        <ele>1681</ele>
        <time>2015-08-30T06:26:18Z</time>
      </trkpt>
      <trkpt lat="45.99944" lon="6.48444">
        <ele>1681</ele>
        <time>2015-08-30T06:26:25Z</time>
      </trkpt>
      <trkpt lat="45.99953" lon="6.48469">
        <ele>1679.56</ele>
        <time>2015-08-30T06:26:42Z</time>
      </trkpt>
      <trkpt lat="45.9996" lon="6.48484">
        <ele>1679.56</ele>
        <time>2015-08-30T06:26:54Z</time>
      </trkpt>
      <trkpt lat="45.99966" lon="6.48504">
        <ele>1681.48</ele>
        <time>2015-08-30T06:27:09Z</time>
      </trkpt>
      <trkpt lat="45.9997" lon="6.48514">
        <ele>1680.52</ele>
        <time>2015-08-30T06:27:15Z</time>
      </trkpt>
      <trkpt lat="45.99978" lon="6.48545">
        <ele>1681.48</ele>
        <time>2015-08-30T06:27:34Z</time>
      </trkpt>
      <trkpt lat="45.99984" lon="6.48567">
        <ele>1683.41</ele>
        <time>2015-08-30T06:27:48Z</time>
      </trkpt>
      <trkpt lat="45.99985" lon="6.48571">
        <ele>1683.41</ele>
        <time>2015-08-30T06:27:51Z</time>
      </trkpt>
      <trkpt lat="45.9999" lon="6.48577">
        <ele>1683.41</ele>
        <time>2015-08-30T06:28:04Z</time>
      </trkpt>
      <trkpt lat="45.99998" lon="6.48583">
        <ele>1683.89</ele>
        <time>2015-08-30T06:28:26Z</time>
      </trkpt>
      <trkpt lat="46.00002" lon="6.48587">
        <ele>1684.37</ele>
        <time>2015-08-30T06:28:37Z</time>
      </trkpt>
      <trkpt lat="46.0001" lon="6.48602">
        <ele>1686.29</ele>
        <time>2015-08-30T06:28:51Z</time>
      </trkpt>
      <trkpt lat="46.00018" lon="6.48617">
        <ele>1686.29</ele>
        <time>2015-08-30T06:29:04Z</time>
      </trkpt>
      <trkpt lat="46.00032" lon="6.48634">
        <ele>1686.29</ele>
        <time>2015-08-30T06:29:20Z</time>
      </trkpt>
      <trkpt lat="46.00036" lon="6.48652">
        <ele>1686.29</ele>
        <time>2015-08-30T06:29:33Z</time>
      </trkpt>
      <trkpt lat="46.00039" lon="6.48668">
        <ele>1683.89</ele>
        <time>2015-08-30T06:29:45Z</time>
      </trkpt>
      <trkpt lat="46.00049" lon="6.48685">
        <ele>1682.93</ele>
        <time>2015-08-30T06:30:00Z</time>
      </trkpt>
      <trkpt lat="46.00053" lon="6.48691">
        <ele>1682.93</ele>
        <time>2015-08-30T06:30:05Z</time>
      </trkpt>
      <trkpt lat="46.00055" lon="6.4871">
        <ele>1681.48</ele>
        <time>2015-08-30T06:30:19Z</time>
      </trkpt>
      <trkpt lat="46.00058" lon="6.48718">
        <ele>1680.04</ele>
        <time>2015-08-30T06:30:26Z</time>
      </trkpt>
      <trkpt lat="46.00061" lon="6.48725">
        <ele>1678.6</ele>
        <time>2015-08-30T06:30:34Z</time>
      </trkpt>
      <trkpt lat="46.00061" lon="6.48728">
        <ele>1678.6</ele>
        <time>2015-08-30T06:30:36Z</time>
      </trkpt>
      <trkpt lat="46.00066" lon="6.48738">
        <ele>1676.68</ele>
        <time>2015-08-30T06:30:44Z</time>
      </trkpt>
      <trkpt lat="46.00075" lon="6.48759">
        <ele>1675.72</ele>
        <time>2015-08-30T06:30:58Z</time>
      </trkpt>
      <trkpt lat="46.00081" lon="6.48762">
        <ele>1675.72</ele>
        <time>2015-08-30T06:31:04Z</time>
      </trkpt>
      <trkpt lat="46.00084" lon="6.48774">
        <ele>1675.72</ele>
        <time>2015-08-30T06:31:17Z</time>
      </trkpt>
      <trkpt lat="46.00088" lon="6.48787">
        <ele>1674.75</ele>
        <time>2015-08-30T06:31:30Z</time>
      </trkpt>
      <trkpt lat="46.00098" lon="6.48807">
        <ele>1673.79</ele>
        <time>2015-08-30T06:31:44Z</time>
      </trkpt>
      <trkpt lat="46.00111" lon="6.48829">
        <ele>1674.27</ele>
        <time>2015-08-30T06:32:03Z</time>
      </trkpt>
      <trkpt lat="46.00119" lon="6.4883">
        <ele>1673.31</ele>
        <time>2015-08-30T06:32:16Z</time>
      </trkpt>
      <trkpt lat="46.00132" lon="6.4884">
        <ele>1671.39</ele>
        <time>2015-08-30T06:32:29Z</time>
      </trkpt>
      <trkpt lat="46.00139" lon="6.48844">
        <ele>1670.91</ele>
        <time>2015-08-30T06:32:41Z</time>
      </trkpt>
      <trkpt lat="46.00143" lon="6.48852">
        <ele>1668.51</ele>
        <time>2015-08-30T06:32:57Z</time>
      </trkpt>
      <trkpt lat="46.00143" lon="6.48856">
        <ele>1666.58</ele>
        <time>2015-08-30T06:33:03Z</time>
      </trkpt>
      <trkpt lat="46.00149" lon="6.48868">
        <ele>1664.66</ele>
        <time>2015-08-30T06:33:15Z</time>
      </trkpt>
      <trkpt lat="46.00155" lon="6.48879">
        <ele>1662.26</ele>
        <time>2015-08-30T06:33:29Z</time>
      </trkpt>
      <trkpt lat="46.00161" lon="6.48888">
        <ele>1659.85</ele>
        <time>2015-08-30T06:33:43Z</time>
      </trkpt>
      <trkpt lat="46.00168" lon="6.48885">
        <ele>1658.41</ele>
        <time>2015-08-30T06:33:56Z</time>
      </trkpt>
      <trkpt lat="46.00182" lon="6.48885">
        <ele>1658.89</ele>
        <time>2015-08-30T06:34:11Z</time>
      </trkpt>
      <trkpt lat="46.00183" lon="6.48884">
        <ele>1659.85</ele>
        <time>2015-08-30T06:34:14Z</time>
      </trkpt>
      <trkpt lat="46.00187" lon="6.48883">
        <ele>1660.81</ele>
        <time>2015-08-30T06:34:19Z</time>
      </trkpt>
      <trkpt lat="46.00197" lon="6.48879">
        <ele>1662.74</ele>
        <time>2015-08-30T06:34:34Z</time>
      </trkpt>
      <trkpt lat="46.00205" lon="6.48876">
        <ele>1665.62</ele>
        <time>2015-08-30T06:34:49Z</time>
      </trkpt>
      <trkpt lat="46.00211" lon="6.48871">
        <ele>1668.02</ele>
        <time>2015-08-30T06:35:03Z</time>
      </trkpt>
      <trkpt lat="46.00218" lon="6.48866">
        <ele>1668.99</ele>
        <time>2015-08-30T06:35:14Z</time>
      </trkpt>
      <trkpt lat="46.0022" lon="6.48865">
        <ele>1667.54</ele>
        <time>2015-08-30T06:35:16Z</time>
      </trkpt>
      <trkpt lat="46.00227" lon="6.48865">
        <ele>1666.58</ele>
        <time>2015-08-30T06:35:27Z</time>
      </trkpt>
      <trkpt lat="46.0023" lon="6.48865">
        <ele>1666.58</ele>
        <time>2015-08-30T06:35:30Z</time>
      </trkpt>
      <trkpt lat="46.00244" lon="6.48865">
        <ele>1666.1</ele>
        <time>2015-08-30T06:35:44Z</time>
      </trkpt>
      <trkpt lat="46.00256" lon="6.48863">
        <ele>1667.54</ele>
        <time>2015-08-30T06:35:59Z</time>
      </trkpt>
      <trkpt lat="46.00264" lon="6.48859">
        <ele>1669.47</ele>
        <time>2015-08-30T06:36:14Z</time>
      </trkpt>
      <trkpt lat="46.00266" lon="6.48865">
        <ele>1668.51</ele>
        <time>2015-08-30T06:36:27Z</time>
      </trkpt>
      <trkpt lat="46.00269" lon="6.48869">
        <ele>1666.58</ele>
        <time>2015-08-30T06:36:38Z</time>
      </trkpt>
      <trkpt lat="46.00273" lon="6.48875">
        <ele>1666.58</ele>
        <time>2015-08-30T06:36:43Z</time>
      </trkpt>
      <trkpt lat="46.00283" lon="6.48887">
        <ele>1665.14</ele>
        <time>2015-08-30T06:36:57Z</time>
      </trkpt>
      <trkpt lat="46.00289" lon="6.489">
        <ele>1663.22</ele>
        <time>2015-08-30T06:37:11Z</time>
      </trkpt>
      <trkpt lat="46.00295" lon="6.48907">
        <ele>1662.74</ele>
        <time>2015-08-30T06:37:18Z</time>
      </trkpt>
      <trkpt lat="46.00301" lon="6.48909">
        <ele>1662.74</ele>
        <time>2015-08-30T06:37:23Z</time>
      </trkpt>
      <trkpt lat="46.0031" lon="6.48918">
        <ele>1662.74</ele>
        <time>2015-08-30T06:37:36Z</time>
      </trkpt>
      <trkpt lat="46.00311" lon="6.48928">
        <ele>1662.74</ele>
        <time>2015-08-30T06:37:46Z</time>
      </trkpt>
      <trkpt lat="46.0031" lon="6.4893">
        <ele>1663.7</ele>
        <time>2015-08-30T06:37:48Z</time>
      </trkpt>
      <trkpt lat="46.00314" lon="6.48945">
        <ele>1666.1</ele>
        <time>2015-08-30T06:38:04Z</time>
      </trkpt>
      <trkpt lat="46.00317" lon="6.48948">
        <ele>1667.54</ele>
        <time>2015-08-30T06:38:10Z</time>
      </trkpt>
      <trkpt lat="46.00324" lon="6.48957">
        <ele>1668.99</ele>
        <time>2015-08-30T06:38:23Z</time>
      </trkpt>
      <trkpt lat="46.00328" lon="6.48958">
        <ele>1670.43</ele>
        <time>2015-08-30T06:38:38Z</time>
      </trkpt>
      <trkpt lat="46.00338" lon="6.48959">
        <ele>1672.83</ele>
        <time>2015-08-30T06:38:52Z</time>
      </trkpt>
      <trkpt lat="46.00346" lon="6.48963">
        <ele>1673.79</ele>
        <time>2015-08-30T06:39:04Z</time>
      </trkpt>
      <trkpt lat="46.00347" lon="6.48965">
        <ele>1673.79</ele>
        <time>2015-08-30T06:39:06Z</time>
      </trkpt>
      <trkpt lat="46.0035" lon="6.48968">
        <ele>1673.79</ele>
        <time>2015-08-30T06:39:10Z</time>
      </trkpt>
      <trkpt lat="46.00361" lon="6.48976">
        <ele>1675.23</ele>
        <time>2015-08-30T06:39:26Z</time>
      </trkpt>
      <trkpt lat="46.00359" lon="6.48988">
        <ele>1674.75</ele>
        <time>2015-08-30T06:39:39Z</time>
      </trkpt>
      <trkpt lat="46.00357" lon="6.48998">
        <ele>1673.79</ele>
        <time>2015-08-30T06:39:47Z</time>
      </trkpt>
      <trkpt lat="46.00365" lon="6.4902">
        <ele>1672.35</ele>
        <time>2015-08-30T06:40:02Z</time>
      </trkpt>
      <trkpt lat="46.0037" lon="6.49026">
        <ele>1672.83</ele>
        <time>2015-08-30T06:40:17Z</time>
      </trkpt>
      <trkpt lat="46.00375" lon="6.4903">
        <ele>1674.27</ele>
        <time>2015-08-30T06:40:24Z</time>
      </trkpt>
      <trkpt lat="46.00383" lon="6.49035">
        <ele>1677.16</ele>
        <time>2015-08-30T06:40:38Z</time>
      </trkpt>
      <trkpt lat="46.00388" lon="6.4904">
        <ele>1679.56</ele>
        <time>2015-08-30T06:40:52Z</time>
      </trkpt>
      <trkpt lat="46.00396" lon="6.49045">
        <ele>1680.52</ele>
        <time>2015-08-30T06:41:03Z</time>
      </trkpt>
      <trkpt lat="46.00404" lon="6.49056">
        <ele>1682.93</ele>
        <time>2015-08-30T06:41:18Z</time>
      </trkpt>
      <trkpt lat="46.00412" lon="6.49067">
        <ele>1682.93</ele>
        <time>2015-08-30T06:41:30Z</time>
      </trkpt>
      <trkpt lat="46.00424" lon="6.49079">
        <ele>1684.37</ele>
        <time>2015-08-30T06:41:45Z</time>
      </trkpt>
      <trkpt lat="46.00433" lon="6.49096">
        <ele>1685.81</ele>
        <time>2015-08-30T06:42:02Z</time>
      </trkpt>
      <trkpt lat="46.00439" lon="6.49108">
        <ele>1686.77</ele>
        <time>2015-08-30T06:42:14Z</time>
      </trkpt>
      <trkpt lat="46.00439" lon="6.49112">
        <ele>1687.25</ele>
        <time>2015-08-30T06:42:17Z</time>
      </trkpt>
      <trkpt lat="46.00442" lon="6.49125">
        <ele>1689.65</ele>
        <time>2015-08-30T06:42:32Z</time>
      </trkpt>
      <trkpt lat="46.00443" lon="6.49135">
        <ele>1691.58</ele>
        <time>2015-08-30T06:42:45Z</time>
      </trkpt>
      <trkpt lat="46.00446" lon="6.49144">
        <ele>1693.5</ele>
        <time>2015-08-30T06:42:59Z</time>
      </trkpt>
      <trkpt lat="46.00449" lon="6.49157">
        <ele>1695.42</ele>
        <time>2015-08-30T06:43:14Z</time>
      </trkpt>
      <trkpt lat="46.00454" lon="6.4917">
        <ele>1698.31</ele>
        <time>2015-08-30T06:43:30Z</time>
      </trkpt>
      <trkpt lat="46.00452" lon="6.4918">
        <ele>1700.23</ele>
        <time>2015-08-30T06:43:44Z</time>
      </trkpt>
      <trkpt lat="46.00454" lon="6.49189">
        <ele>1702.15</ele>
        <time>2015-08-30T06:43:57Z</time>
      </trkpt>
      <trkpt lat="46.00456" lon="6.492">
        <ele>1704.07</ele>
        <time>2015-08-30T06:44:11Z</time>
      </trkpt>
      <trkpt lat="46.00456" lon="6.49211">
        <ele>1707.44</ele>
        <time>2015-08-30T06:44:26Z</time>
      </trkpt>
      <trkpt lat="46.00457" lon="6.49222">
        <ele>1708.88</ele>
        <time>2015-08-30T06:44:40Z</time>
      </trkpt>
      <trkpt lat="46.00459" lon="6.49232">
        <ele>1711.28</ele>
        <time>2015-08-30T06:44:54Z</time>
      </trkpt>
      <trkpt lat="46.00464" lon="6.4924">
        <ele>1713.69</ele>
        <time>2015-08-30T06:45:09Z</time>
      </trkpt>
      <trkpt lat="46.00467" lon="6.49251">
        <ele>1716.09</ele>
        <time>2015-08-30T06:45:25Z</time>
      </trkpt>
      <trkpt lat="46.0047" lon="6.49261">
        <ele>1718.49</ele>
        <time>2015-08-30T06:45:39Z</time>
      </trkpt>
      <trkpt lat="46.00477" lon="6.49271">
        <ele>1720.42</ele>
        <time>2015-08-30T06:45:54Z</time>
      </trkpt>
      <trkpt lat="46.00487" lon="6.49277">
        <ele>1722.82</ele>
        <time>2015-08-30T06:46:10Z</time>
      </trkpt>
      <trkpt lat="46.00493" lon="6.49285">
        <ele>1724.74</ele>
        <time>2015-08-30T06:46:23Z</time>
      </trkpt>
      <trkpt lat="46.005" lon="6.49292">
        <ele>1727.63</ele>
        <time>2015-08-30T06:46:39Z</time>
      </trkpt>
      <trkpt lat="46.00507" lon="6.49302">
        <ele>1729.55</ele>
        <time>2015-08-30T06:46:53Z</time>
      </trkpt>
      <trkpt lat="46.00514" lon="6.4931">
        <ele>1732.43</ele>
        <time>2015-08-30T06:47:12Z</time>
      </trkpt>
      <trkpt lat="46.00522" lon="6.49323">
        <ele>1734.36</ele>
        <time>2015-08-30T06:47:28Z</time>
      </trkpt>
      <trkpt lat="46.00532" lon="6.49334">
        <ele>1736.28</ele>
        <time>2015-08-30T06:47:44Z</time>
      </trkpt>
      <trkpt lat="46.0054" lon="6.49337">
        <ele>1738.2</ele>
        <time>2015-08-30T06:47:59Z</time>
      </trkpt>
      <trkpt lat="46.00543" lon="6.49329">
        <ele>1740.6</ele>
        <time>2015-08-30T06:48:14Z</time>
      </trkpt>
      <trkpt lat="46.00548" lon="6.49321">
        <ele>1743.49</ele>
        <time>2015-08-30T06:48:31Z</time>
      </trkpt>
      <trkpt lat="46.00552" lon="6.49311">
        <ele>1745.41</ele>
        <time>2015-08-30T06:48:46Z</time>
      </trkpt>
      <trkpt lat="46.00552" lon="6.493">
        <ele>1747.81</ele>
        <time>2015-08-30T06:49:02Z</time>
      </trkpt>
      <trkpt lat="46.00552" lon="6.49299">
        <ele>1748.29</ele>
        <time>2015-08-30T06:49:03Z</time>
      </trkpt>
      <trkpt lat="46.00552" lon="6.49283">
        <ele>1750.7</ele>
        <time>2015-08-30T06:49:19Z</time>
      </trkpt>
      <trkpt lat="46.00554" lon="6.49269">
        <ele>1753.1</ele>
        <time>2015-08-30T06:49:36Z</time>
      </trkpt>
      <trkpt lat="46.00559" lon="6.49255">
        <ele>1755.5</ele>
        <time>2015-08-30T06:49:52Z</time>
      </trkpt>
      <trkpt lat="46.00562" lon="6.49243">
        <ele>1758.87</ele>
        <time>2015-08-30T06:50:09Z</time>
      </trkpt>
      <trkpt lat="46.00561" lon="6.49239">
        <ele>1759.35</ele>
        <time>2015-08-30T06:50:16Z</time>
      </trkpt>
      <trkpt lat="46.0056" lon="6.49223">
        <ele>1761.75</ele>
        <time>2015-08-30T06:50:31Z</time>
      </trkpt>
      <trkpt lat="46.00561" lon="6.4921">
        <ele>1763.2</ele>
        <time>2015-08-30T06:50:46Z</time>
      </trkpt>
      <trkpt lat="46.00563" lon="6.49201">
        <ele>1765.6</ele>
        <time>2015-08-30T06:51:01Z</time>
      </trkpt>
      <trkpt lat="46.00562" lon="6.4919">
        <ele>1767.04</ele>
        <time>2015-08-30T06:51:14Z</time>
      </trkpt>
      <trkpt lat="46.00565" lon="6.49179">
        <ele>1768.96</ele>
        <time>2015-08-30T06:51:28Z</time>
      </trkpt>
      <trkpt lat="46.00562" lon="6.49168">
        <ele>1770.89</ele>
        <time>2015-08-30T06:51:43Z</time>
      </trkpt>
      <trkpt lat="46.00563" lon="6.49156">
        <ele>1773.29</ele>
        <time>2015-08-30T06:51:57Z</time>
      </trkpt>
      <trkpt lat="46.00567" lon="6.49144">
        <ele>1775.21</ele>
        <time>2015-08-30T06:52:13Z</time>
      </trkpt>
      <trkpt lat="46.00568" lon="6.49134">
        <ele>1777.13</ele>
        <time>2015-08-30T06:52:27Z</time>
      </trkpt>
      <trkpt lat="46.0057" lon="6.49126">
        <ele>1779.54</ele>
        <time>2015-08-30T06:52:40Z</time>
      </trkpt>
      <trkpt lat="46.00571" lon="6.49119">
        <ele>1781.46</ele>
        <time>2015-08-30T06:52:53Z</time>
      </trkpt>
      <trkpt lat="46.00575" lon="6.4911">
        <ele>1782.9</ele>
        <time>2015-08-30T06:53:09Z</time>
      </trkpt>
      <trkpt lat="46.00578" lon="6.49104">
        <ele>1785.79</ele>
        <time>2015-08-30T06:53:24Z</time>
      </trkpt>
      <trkpt lat="46.00584" lon="6.49101">
        <ele>1788.67</ele>
        <time>2015-08-30T06:53:38Z</time>
      </trkpt>
      <trkpt lat="46.00592" lon="6.49088">
        <ele>1790.11</ele>
        <time>2015-08-30T06:53:54Z</time>
      </trkpt>
      <trkpt lat="46.00597" lon="6.49076">
        <ele>1791.07</ele>
        <time>2015-08-30T06:54:06Z</time>
      </trkpt>
      <trkpt lat="46.00603" lon="6.49057">
        <ele>1792.52</ele>
        <time>2015-08-30T06:54:23Z</time>
      </trkpt>
      <trkpt lat="46.00603" lon="6.4904">
        <ele>1794.44</ele>
        <time>2015-08-30T06:54:40Z</time>
      </trkpt>
      <trkpt lat="46.00602" lon="6.49033">
        <ele>1796.84</ele>
        <time>2015-08-30T06:54:56Z</time>
      </trkpt>
      <trkpt lat="46.00601" lon="6.49035">
        <ele>1796.84</ele>
        <time>2015-08-30T06:55:13Z</time>
      </trkpt>
      <trkpt lat="46.006" lon="6.49037">
        <ele>1796.84</ele>
        <time>2015-08-30T06:55:33Z</time>
      </trkpt>
      <trkpt lat="46.00601" lon="6.49036">
        <ele>1797.32</ele>
        <time>2015-08-30T06:55:52Z</time>
      </trkpt>
      <trkpt lat="46.00601" lon="6.49035">
        <ele>1797.32</ele>
        <time>2015-08-30T06:56:12Z</time>
      </trkpt>
      <trkpt lat="46.006" lon="6.49037">
        <ele>1797.32</ele>
        <time>2015-08-30T06:56:37Z</time>
      </trkpt>
      <trkpt lat="46.006" lon="6.49024">
        <ele>1798.28</ele>
        <time>2015-08-30T06:56:59Z</time>
      </trkpt>
      <trkpt lat="46.006" lon="6.49008">
        <ele>1800.21</ele>
        <time>2015-08-30T06:57:14Z</time>
      </trkpt>
      <trkpt lat="46.00601" lon="6.48996">
        <ele>1803.09</ele>
        <time>2015-08-30T06:57:29Z</time>
      </trkpt>
      <trkpt lat="46.00601" lon="6.48984">
        <ele>1805.97</ele>
        <time>2015-08-30T06:57:46Z</time>
      </trkpt>
      <trkpt lat="46.00596" lon="6.48977">
        <ele>1807.9</ele>
        <time>2015-08-30T06:58:01Z</time>
      </trkpt>
      <trkpt lat="46.00591" lon="6.48971">
        <ele>1809.82</ele>
        <time>2015-08-30T06:58:14Z</time>
      </trkpt>
      <trkpt lat="46.00591" lon="6.48963">
        <ele>1812.7</ele>
        <time>2015-08-30T06:58:29Z</time>
      </trkpt>
      <trkpt lat="46.00591" lon="6.48956">
        <ele>1814.63</ele>
        <time>2015-08-30T06:58:43Z</time>
      </trkpt>
      <trkpt lat="46.00587" lon="6.48949">
        <ele>1817.03</ele>
        <time>2015-08-30T06:58:59Z</time>
      </trkpt>
      <trkpt lat="46.00589" lon="6.4894">
        <ele>1818.95</ele>
        <time>2015-08-30T06:59:11Z</time>
      </trkpt>
      <trkpt lat="46.00589" lon="6.48929">
        <ele>1819.91</ele>
        <time>2015-08-30T06:59:25Z</time>
      </trkpt>
      <trkpt lat="46.0059" lon="6.48919">
        <ele>1822.32</ele>
        <time>2015-08-30T06:59:40Z</time>
      </trkpt>
      <trkpt lat="46.00593" lon="6.48908">
        <ele>1824.24</ele>
        <time>2015-08-30T06:59:56Z</time>
      </trkpt>
      <trkpt lat="46.00594" lon="6.48891">
        <ele>1825.68</ele>
        <time>2015-08-30T07:00:12Z</time>
      </trkpt>
      <trkpt lat="46.00595" lon="6.4888">
        <ele>1828.08</ele>
        <time>2015-08-30T07:00:27Z</time>
      </trkpt>
      <trkpt lat="46.00602" lon="6.48871">
        <ele>1830.01</ele>
        <time>2015-08-30T07:00:45Z</time>
      </trkpt>
      <trkpt lat="46.00607" lon="6.48862">
        <ele>1831.93</ele>
        <time>2015-08-30T07:01:00Z</time>
      </trkpt>
      <trkpt lat="46.00611" lon="6.48856">
        <ele>1832.41</ele>
        <time>2015-08-30T07:01:15Z</time>
      </trkpt>
      <trkpt lat="46.0062" lon="6.48855">
        <ele>1834.33</ele>
        <time>2015-08-30T07:01:32Z</time>
      </trkpt>
      <trkpt lat="46.00629" lon="6.48854">
        <ele>1835.29</ele>
        <time>2015-08-30T07:01:42Z</time>
      </trkpt>
      <trkpt lat="46.00642" lon="6.48856">
        <ele>1836.26</ele>
        <time>2015-08-30T07:01:55Z</time>
      </trkpt>
      <trkpt lat="46.00654" lon="6.48857">
        <ele>1838.18</ele>
        <time>2015-08-30T07:02:11Z</time>
      </trkpt>
      <trkpt lat="46.00658" lon="6.48858">
        <ele>1838.66</ele>
        <time>2015-08-30T07:02:15Z</time>
      </trkpt>
      <trkpt lat="46.00661" lon="6.48859">
        <ele>1838.66</ele>
        <time>2015-08-30T07:02:18Z</time>
      </trkpt>
      <trkpt lat="46.00672" lon="6.48866">
        <ele>1839.14</ele>
        <time>2015-08-30T07:02:29Z</time>
      </trkpt>
      <trkpt lat="46.00681" lon="6.48871">
        <ele>1839.14</ele>
        <time>2015-08-30T07:02:38Z</time>
      </trkpt>
      <trkpt lat="46.00694" lon="6.48877">
        <ele>1841.06</ele>
        <time>2015-08-30T07:02:54Z</time>
      </trkpt>
      <trkpt lat="46.00703" lon="6.48879">
        <ele>1843.47</ele>
        <time>2015-08-30T07:03:08Z</time>
      </trkpt>
      <trkpt lat="46.00708" lon="6.48876">
        <ele>1845.39</ele>
        <time>2015-08-30T07:03:23Z</time>
      </trkpt>
      <trkpt lat="46.00721" lon="6.48872">
        <ele>1848.27</ele>
        <time>2015-08-30T07:03:42Z</time>
      </trkpt>
      <trkpt lat="46.00728" lon="6.4887">
        <ele>1850.19</ele>
        <time>2015-08-30T07:03:59Z</time>
      </trkpt>
      <trkpt lat="46.00734" lon="6.48867">
        <ele>1853.08</ele>
        <time>2015-08-30T07:04:16Z</time>
      </trkpt>
      <trkpt lat="46.00739" lon="6.48863">
        <ele>1855.48</ele>
        <time>2015-08-30T07:04:34Z</time>
      </trkpt>
      <trkpt lat="46.00744" lon="6.48856">
        <ele>1858.37</ele>
        <time>2015-08-30T07:04:51Z</time>
      </trkpt>
      <trkpt lat="46.00751" lon="6.48856">
        <ele>1861.25</ele>
        <time>2015-08-30T07:05:04Z</time>
      </trkpt>
      <trkpt lat="46.00757" lon="6.48851">
        <ele>1862.69</ele>
        <time>2015-08-30T07:05:19Z</time>
      </trkpt>
      <trkpt lat="46.0076" lon="6.48843">
        <ele>1865.09</ele>
        <time>2015-08-30T07:05:33Z</time>
      </trkpt>
      <trkpt lat="46.00765" lon="6.48847">
        <ele>1867.02</ele>
        <time>2015-08-30T07:05:47Z</time>
      </trkpt>
      <trkpt lat="46.00768" lon="6.4886">
        <ele>1869.42</ele>
        <time>2015-08-30T07:06:03Z</time>
      </trkpt>
      <trkpt lat="46.00771" lon="6.48862">
        <ele>1871.34</ele>
        <time>2015-08-30T07:06:15Z</time>
      </trkpt>
      <trkpt lat="46.00777" lon="6.48858">
        <ele>1872.79</ele>
        <time>2015-08-30T07:06:29Z</time>
      </trkpt>
      <trkpt lat="46.00779" lon="6.48852">
        <ele>1875.19</ele>
        <time>2015-08-30T07:06:41Z</time>
      </trkpt>
      <trkpt lat="46.00782" lon="6.4884">
        <ele>1878.07</ele>
        <time>2015-08-30T07:06:57Z</time>
      </trkpt>
      <trkpt lat="46.00787" lon="6.48833">
        <ele>1880.48</ele>
        <time>2015-08-30T07:07:13Z</time>
      </trkpt>
      <trkpt lat="46.00792" lon="6.48828">
        <ele>1882.4</ele>
        <time>2015-08-30T07:07:28Z</time>
      </trkpt>
      <trkpt lat="46.00794" lon="6.48822">
        <ele>1884.32</ele>
        <time>2015-08-30T07:07:42Z</time>
      </trkpt>
      <trkpt lat="46.00795" lon="6.48812">
        <ele>1887.21</ele>
        <time>2015-08-30T07:07:58Z</time>
      </trkpt>
      <trkpt lat="46.00794" lon="6.48804">
        <ele>1890.09</ele>
        <time>2015-08-30T07:08:15Z</time>
      </trkpt>
      <trkpt lat="46.00798" lon="6.48797">
        <ele>1892.01</ele>
        <time>2015-08-30T07:08:28Z</time>
      </trkpt>
      <trkpt lat="46.00804" lon="6.48796">
        <ele>1894.42</ele>
        <time>2015-08-30T07:08:45Z</time>
      </trkpt>
      <trkpt lat="46.00809" lon="6.48802">
        <ele>1896.34</ele>
        <time>2015-08-30T07:08:59Z</time>
      </trkpt>
      <trkpt lat="46.00815" lon="6.48811">
        <ele>1898.26</ele>
        <time>2015-08-30T07:09:14Z</time>
      </trkpt>
      <trkpt lat="46.00816" lon="6.48824">
        <ele>1900.18</ele>
        <time>2015-08-30T07:09:30Z</time>
      </trkpt>
      <trkpt lat="46.00817" lon="6.48835">
        <ele>1902.59</ele>
        <time>2015-08-30T07:09:45Z</time>
      </trkpt>
      <trkpt lat="46.00817" lon="6.4885">
        <ele>1904.51</ele>
        <time>2015-08-30T07:10:02Z</time>
      </trkpt>
      <trkpt lat="46.0082" lon="6.48865">
        <ele>1906.91</ele>
        <time>2015-08-30T07:10:19Z</time>
      </trkpt>
      <trkpt lat="46.00823" lon="6.48878">
        <ele>1909.32</ele>
        <time>2015-08-30T07:10:37Z</time>
      </trkpt>
      <trkpt lat="46.00824" lon="6.48882">
        <ele>1909.8</ele>
        <time>2015-08-30T07:10:43Z</time>
      </trkpt>
      <trkpt lat="46.00825" lon="6.48894">
        <ele>1911.72</ele>
        <time>2015-08-30T07:10:59Z</time>
      </trkpt>
      <trkpt lat="46.00827" lon="6.48904">
        <ele>1914.6</ele>
        <time>2015-08-30T07:11:16Z</time>
      </trkpt>
      <trkpt lat="46.00829" lon="6.48911">
        <ele>1917.01</ele>
        <time>2015-08-30T07:11:33Z</time>
      </trkpt>
      <trkpt lat="46.00831" lon="6.4892">
        <ele>1918.93</ele>
        <time>2015-08-30T07:11:49Z</time>
      </trkpt>
      <trkpt lat="46.00837" lon="6.48914">
        <ele>1919.41</ele>
        <time>2015-08-30T07:12:00Z</time>
      </trkpt>
      <trkpt lat="46.00847" lon="6.48909">
        <ele>1921.81</ele>
        <time>2015-08-30T07:12:15Z</time>
      </trkpt>
      <trkpt lat="46.00857" lon="6.48908">
        <ele>1924.22</ele>
        <time>2015-08-30T07:12:32Z</time>
      </trkpt>
      <trkpt lat="46.00862" lon="6.4891">
        <ele>1925.66</ele>
        <time>2015-08-30T07:12:46Z</time>
      </trkpt>
      <trkpt lat="46.00871" lon="6.48904">
        <ele>1926.14</ele>
        <time>2015-08-30T07:13:03Z</time>
      </trkpt>
      <trkpt lat="46.00877" lon="6.48902">
        <ele>1928.06</ele>
        <time>2015-08-30T07:13:15Z</time>
      </trkpt>
      <trkpt lat="46.00879" lon="6.48902">
        <ele>1929.98</ele>
        <time>2015-08-30T07:13:30Z</time>
      </trkpt>
      <trkpt lat="46.0088" lon="6.48895">
        <ele>1932.39</ele>
        <time>2015-08-30T07:13:45Z</time>
      </trkpt>
      <trkpt lat="46.00878" lon="6.48886">
        <ele>1934.31</ele>
        <time>2015-08-30T07:13:59Z</time>
      </trkpt>
      <trkpt lat="46.00882" lon="6.48881">
        <ele>1936.71</ele>
        <time>2015-08-30T07:14:16Z</time>
      </trkpt>
      <trkpt lat="46.00888" lon="6.48875">
        <ele>1939.6</ele>
        <time>2015-08-30T07:14:33Z</time>
      </trkpt>
      <trkpt lat="46.00892" lon="6.48877">
        <ele>1942</ele>
        <time>2015-08-30T07:14:50Z</time>
      </trkpt>
      <trkpt lat="46.00898" lon="6.48876">
        <ele>1943.92</ele>
        <time>2015-08-30T07:15:06Z</time>
      </trkpt>
      <trkpt lat="46.009" lon="6.48877">
        <ele>1945.85</ele>
        <time>2015-08-30T07:15:19Z</time>
      </trkpt>
      <trkpt lat="46.00907" lon="6.4887">
        <ele>1948.25</ele>
        <time>2015-08-30T07:15:36Z</time>
      </trkpt>
      <trkpt lat="46.00913" lon="6.48859">
        <ele>1950.65</ele>
        <time>2015-08-30T07:15:52Z</time>
      </trkpt>
      <trkpt lat="46.00917" lon="6.48854">
        <ele>1953.54</ele>
        <time>2015-08-30T07:16:09Z</time>
      </trkpt>
      <trkpt lat="46.00918" lon="6.48853">
        <ele>1955.46</ele>
        <time>2015-08-30T07:16:22Z</time>
      </trkpt>
      <trkpt lat="46.00922" lon="6.48852">
        <ele>1956.9</ele>
        <time>2015-08-30T07:16:36Z</time>
      </trkpt>
      <trkpt lat="46.00925" lon="6.48851">
        <ele>1959.3</ele>
        <time>2015-08-30T07:16:50Z</time>
      </trkpt>
      <trkpt lat="46.00929" lon="6.48849">
        <ele>1961.71</ele>
        <time>2015-08-30T07:17:05Z</time>
      </trkpt>
      <trkpt lat="46.00937" lon="6.48847">
        <ele>1964.11</ele>
        <time>2015-08-30T07:17:20Z</time>
      </trkpt>
      <trkpt lat="46.00941" lon="6.48844">
        <ele>1966.03</ele>
        <time>2015-08-30T07:17:35Z</time>
      </trkpt>
      <trkpt lat="46.00945" lon="6.48844">
        <ele>1968.44</ele>
        <time>2015-08-30T07:17:50Z</time>
      </trkpt>
      <trkpt lat="46.0095" lon="6.48841">
        <ele>1970.36</ele>
        <time>2015-08-30T07:18:04Z</time>
      </trkpt>
      <trkpt lat="46.00954" lon="6.48834">
        <ele>1972.28</ele>
        <time>2015-08-30T07:18:21Z</time>
      </trkpt>
      <trkpt lat="46.0096" lon="6.48836">
        <ele>1974.2</ele>
        <time>2015-08-30T07:18:36Z</time>
      </trkpt>
      <trkpt lat="46.00963" lon="6.48829">
        <ele>1976.13</ele>
        <time>2015-08-30T07:18:52Z</time>
      </trkpt>
      <trkpt lat="46.00966" lon="6.48826">
        <ele>1978.53</ele>
        <time>2015-08-30T07:19:08Z</time>
      </trkpt>
      <trkpt lat="46.00975" lon="6.4882">
        <ele>1979.97</ele>
        <time>2015-08-30T07:19:23Z</time>
      </trkpt>
      <trkpt lat="46.00978" lon="6.48815">
        <ele>1982.38</ele>
        <time>2015-08-30T07:19:37Z</time>
      </trkpt>
      <trkpt lat="46.00982" lon="6.48806">
        <ele>1984.78</ele>
        <time>2015-08-30T07:19:54Z</time>
      </trkpt>
      <trkpt lat="46.0099" lon="6.48804">
        <ele>1987.18</ele>
        <time>2015-08-30T07:20:12Z</time>
      </trkpt>
      <trkpt lat="46.00995" lon="6.48802">
        <ele>1989.1</ele>
        <time>2015-08-30T07:20:31Z</time>
      </trkpt>
      <trkpt lat="46.01001" lon="6.48796">
        <ele>1991.51</ele>
        <time>2015-08-30T07:20:48Z</time>
      </trkpt>
      <trkpt lat="46.01004" lon="6.48792">
        <ele>1993.43</ele>
        <time>2015-08-30T07:21:05Z</time>
      </trkpt>
      <trkpt lat="46.01009" lon="6.48788">
        <ele>1995.83</ele>
        <time>2015-08-30T07:21:20Z</time>
      </trkpt>
      <trkpt lat="46.0101" lon="6.48782">
        <ele>1997.76</ele>
        <time>2015-08-30T07:21:35Z</time>
      </trkpt>
      <trkpt lat="46.01013" lon="6.48775">
        <ele>1999.68</ele>
        <time>2015-08-30T07:21:52Z</time>
      </trkpt>
      <trkpt lat="46.01017" lon="6.4877">
        <ele>2001.12</ele>
        <time>2015-08-30T07:22:06Z</time>
      </trkpt>
      <trkpt lat="46.01018" lon="6.48766">
        <ele>2003.04</ele>
        <time>2015-08-30T07:22:20Z</time>
      </trkpt>
      <trkpt lat="46.01021" lon="6.48757">
        <ele>2004.97</ele>
        <time>2015-08-30T07:22:34Z</time>
      </trkpt>
      <trkpt lat="46.01025" lon="6.48745">
        <ele>2007.37</ele>
        <time>2015-08-30T07:22:53Z</time>
      </trkpt>
      <trkpt lat="46.01028" lon="6.48746">
        <ele>2009.29</ele>
        <time>2015-08-30T07:23:05Z</time>
      </trkpt>
      <trkpt lat="46.01031" lon="6.48742">
        <ele>2011.7</ele>
        <time>2015-08-30T07:23:21Z</time>
      </trkpt>
      <trkpt lat="46.01034" lon="6.48738">
        <ele>2014.1</ele>
        <time>2015-08-30T07:23:36Z</time>
      </trkpt>
      <trkpt lat="46.01037" lon="6.48743">
        <ele>2015.54</ele>
        <time>2015-08-30T07:23:50Z</time>
      </trkpt>
      <trkpt lat="46.01039" lon="6.48746">
        <ele>2017.46</ele>
        <time>2015-08-30T07:24:03Z</time>
      </trkpt>
      <trkpt lat="46.0104" lon="6.48742">
        <ele>2019.39</ele>
        <time>2015-08-30T07:24:19Z</time>
      </trkpt>
      <trkpt lat="46.01044" lon="6.48743">
        <ele>2021.31</ele>
        <time>2015-08-30T07:24:34Z</time>
      </trkpt>
      <trkpt lat="46.01046" lon="6.48745">
        <ele>2021.79</ele>
        <time>2015-08-30T07:24:48Z</time>
      </trkpt>
      <trkpt lat="46.0105" lon="6.48744">
        <ele>2023.71</ele>
        <time>2015-08-30T07:25:07Z</time>
      </trkpt>
      <trkpt lat="46.01053" lon="6.48742">
        <ele>2024.67</ele>
        <time>2015-08-30T07:25:20Z</time>
      </trkpt>
      <trkpt lat="46.01057" lon="6.48744">
        <ele>2026.6</ele>
        <time>2015-08-30T07:25:34Z</time>
      </trkpt>
      <trkpt lat="46.01063" lon="6.48741">
        <ele>2027.56</ele>
        <time>2015-08-30T07:25:48Z</time>
      </trkpt>
      <trkpt lat="46.01062" lon="6.48743">
        <ele>2029</ele>
        <time>2015-08-30T07:25:58Z</time>
      </trkpt>
      <trkpt lat="46.01063" lon="6.48749">
        <ele>2030.44</ele>
        <time>2015-08-30T07:26:10Z</time>
      </trkpt>
      <trkpt lat="46.01065" lon="6.4875">
        <ele>2031.88</ele>
        <time>2015-08-30T07:26:23Z</time>
      </trkpt>
      <trkpt lat="46.0107" lon="6.4875">
        <ele>2033.33</ele>
        <time>2015-08-30T07:26:39Z</time>
      </trkpt>
      <trkpt lat="46.01074" lon="6.48752">
        <ele>2034.77</ele>
        <time>2015-08-30T07:26:53Z</time>
      </trkpt>
      <trkpt lat="46.01077" lon="6.48758">
        <ele>2035.73</ele>
        <time>2015-08-30T07:27:10Z</time>
      </trkpt>
      <trkpt lat="46.01078" lon="6.48763">
        <ele>2037.65</ele>
        <time>2015-08-30T07:27:21Z</time>
      </trkpt>
      <trkpt lat="46.01077" lon="6.48758">
        <ele>2038.61</ele>
        <time>2015-08-30T07:27:34Z</time>
      </trkpt>
      <trkpt lat="46.0108" lon="6.4876">
        <ele>2041.5</ele>
        <time>2015-08-30T07:27:50Z</time>
      </trkpt>
      <trkpt lat="46.01081" lon="6.48759">
        <ele>2043.42</ele>
        <time>2015-08-30T07:28:04Z</time>
      </trkpt>
      <trkpt lat="46.01083" lon="6.48759">
        <ele>2044.38</ele>
        <time>2015-08-30T07:28:19Z</time>
      </trkpt>
      <trkpt lat="46.01083" lon="6.48762">
        <ele>2046.3</ele>
        <time>2015-08-30T07:28:33Z</time>
      </trkpt>
      <trkpt lat="46.01086" lon="6.48764">
        <ele>2048.23</ele>
        <time>2015-08-30T07:28:49Z</time>
      </trkpt>
      <trkpt lat="46.01087" lon="6.48761">
        <ele>2048.71</ele>
        <time>2015-08-30T07:29:09Z</time>
      </trkpt>
      <trkpt lat="46.01089" lon="6.48761">
        <ele>2050.63</ele>
        <time>2015-08-30T07:29:22Z</time>
      </trkpt>
      <trkpt lat="46.0109" lon="6.48766">
        <ele>2052.55</ele>
        <time>2015-08-30T07:29:39Z</time>
      </trkpt>
      <trkpt lat="46.01091" lon="6.48767">
        <ele>2054.47</ele>
        <time>2015-08-30T07:29:54Z</time>
      </trkpt>
      <trkpt lat="46.01099" lon="6.48759">
        <ele>2055.44</ele>
        <time>2015-08-30T07:30:07Z</time>
      </trkpt>
      <trkpt lat="46.01106" lon="6.48742">
        <ele>2055.92</ele>
        <time>2015-08-30T07:30:25Z</time>
      </trkpt>
      <trkpt lat="46.01104" lon="6.48724">
        <ele>2055.92</ele>
        <time>2015-08-30T07:30:48Z</time>
      </trkpt>
      <trkpt lat="46.01093" lon="6.48721">
        <ele>2057.36</ele>
        <time>2015-08-30T07:31:18Z</time>
      </trkpt>
      <trkpt lat="46.01092" lon="6.48732">
        <ele>2059.28</ele>
        <time>2015-08-30T07:31:32Z</time>
      </trkpt>
      <trkpt lat="46.01092" lon="6.4874">
        <ele>2060.72</ele>
        <time>2015-08-30T07:31:44Z</time>
      </trkpt>
      <trkpt lat="46.01092" lon="6.48742">
        <ele>2062.65</ele>
        <time>2015-08-30T07:31:55Z</time>
      </trkpt>
      <trkpt lat="46.0109" lon="6.48743">
        <ele>2064.09</ele>
        <time>2015-08-30T07:32:06Z</time>
      </trkpt>
      <trkpt lat="46.0109" lon="6.48744">
        <ele>2064.09</ele>
        <time>2015-08-30T07:32:08Z</time>
      </trkpt>
      <trkpt lat="46.0109" lon="6.48743">
        <ele>2062.65</ele>
        <time>2015-08-30T07:32:11Z</time>
      </trkpt>
      <trkpt lat="46.01091" lon="6.48746">
        <ele>2064.09</ele>
        <time>2015-08-30T07:32:16Z</time>
      </trkpt>
      <trkpt lat="46.01093" lon="6.48746">
        <ele>2064.09</ele>
        <time>2015-08-30T07:32:23Z</time>
      </trkpt>
      <trkpt lat="46.01095" lon="6.48744">
        <ele>2063.13</ele>
        <time>2015-08-30T07:32:29Z</time>
      </trkpt>
      <trkpt lat="46.01094" lon="6.48742">
        <ele>2063.61</ele>
        <time>2015-08-30T07:32:34Z</time>
      </trkpt>
      <trkpt lat="46.01093" lon="6.48746">
        <ele>2063.13</ele>
        <time>2015-08-30T07:33:01Z</time>
      </trkpt>
      <trkpt lat="46.01093" lon="6.48746">
        <ele>2066.49</ele>
        <time>2015-08-30T07:33:05Z</time>
      </trkpt>
      <trkpt lat="46.01092" lon="6.48747">
        <ele>2066.49</ele>
        <time>2015-08-30T07:33:06Z</time>
      </trkpt>
      <trkpt lat="46.01092" lon="6.48747">
        <ele>2062.65</ele>
        <time>2015-08-30T07:33:07Z</time>
      </trkpt>
      <trkpt lat="46.01091" lon="6.48747">
        <ele>2062.65</ele>
        <time>2015-08-30T07:33:08Z</time>
      </trkpt>
      <trkpt lat="46.0109" lon="6.48747">
        <ele>2064.09</ele>
        <time>2015-08-30T07:33:10Z</time>
      </trkpt>
      <trkpt lat="46.01088" lon="6.48755">
        <ele>2062.65</ele>
        <time>2015-08-30T07:33:28Z</time>
      </trkpt>
      <trkpt lat="46.01088" lon="6.48756">
        <ele>2066.01</ele>
        <time>2015-08-30T07:33:30Z</time>
      </trkpt>
      <trkpt lat="46.01089" lon="6.48757">
        <ele>2066.01</ele>
        <time>2015-08-30T07:33:31Z</time>
      </trkpt>
      <trkpt lat="46.01091" lon="6.48756">
        <ele>2063.13</ele>
        <time>2015-08-30T07:33:34Z</time>
      </trkpt>
      <trkpt lat="46.01091" lon="6.48752">
        <ele>2065.05</ele>
        <time>2015-08-30T07:33:42Z</time>
      </trkpt>
      <trkpt lat="46.01091" lon="6.48748">
        <ele>2064.57</ele>
        <time>2015-08-30T07:33:55Z</time>
      </trkpt>
      <trkpt lat="46.01093" lon="6.48751">
        <ele>2064.57</ele>
        <time>2015-08-30T07:34:14Z</time>
      </trkpt>
      <trkpt lat="46.01093" lon="6.48747">
        <ele>2066.01</ele>
        <time>2015-08-30T07:34:35Z</time>
      </trkpt>
      <trkpt lat="46.01093" lon="6.48743">
        <ele>2066.49</ele>
        <time>2015-08-30T07:35:05Z</time>
      </trkpt>
      <trkpt lat="46.011" lon="6.48743">
        <ele>2066.97</ele>
        <time>2015-08-30T07:35:25Z</time>
      </trkpt>
      <trkpt lat="46.01097" lon="6.48745">
        <ele>2067.93</ele>
        <time>2015-08-30T07:35:39Z</time>
      </trkpt>
      <trkpt lat="46.01097" lon="6.48745">
        <ele>2067.93</ele>
        <time>2015-08-30T07:36:04Z</time>
      </trkpt>
      <trkpt lat="46.01099" lon="6.48745">
        <ele>2068.41</ele>
        <time>2015-08-30T07:36:31Z</time>
      </trkpt>
      <trkpt lat="46.01098" lon="6.48747">
        <ele>2068.89</ele>
        <time>2015-08-30T07:37:00Z</time>
      </trkpt>
      <trkpt lat="46.01098" lon="6.48745">
        <ele>2069.38</ele>
        <time>2015-08-30T07:37:35Z</time>
      </trkpt>
      <trkpt lat="46.01098" lon="6.48739">
        <ele>2069.86</ele>
        <time>2015-08-30T07:38:05Z</time>
      </trkpt>
      <trkpt lat="46.01092" lon="6.48741">
        <ele>2070.82</ele>
        <time>2015-08-30T07:38:23Z</time>
      </trkpt>
      <trkpt lat="46.0109" lon="6.48745">
        <ele>2072.26</ele>
        <time>2015-08-30T07:38:39Z</time>
      </trkpt>
      <trkpt lat="46.01091" lon="6.4875">
        <ele>2073.7</ele>
        <time>2015-08-30T07:38:57Z</time>
      </trkpt>
      <trkpt lat="46.01094" lon="6.48756">
        <ele>2075.14</ele>
        <time>2015-08-30T07:39:20Z</time>
      </trkpt>
      <trkpt lat="46.01095" lon="6.48758">
        <ele>2076.59</ele>
        <time>2015-08-30T07:39:30Z</time>
      </trkpt>
      <trkpt lat="46.01096" lon="6.48758">
        <ele>2078.99</ele>
        <time>2015-08-30T07:39:41Z</time>
      </trkpt>
      <trkpt lat="46.01097" lon="6.48756">
        <ele>2078.03</ele>
        <time>2015-08-30T07:39:57Z</time>
      </trkpt>
      <trkpt lat="46.01097" lon="6.48754">
        <ele>2079.47</ele>
        <time>2015-08-30T07:40:14Z</time>
      </trkpt>
      <trkpt lat="46.01097" lon="6.48758">
        <ele>2081.39</ele>
        <time>2015-08-30T07:40:33Z</time>
      </trkpt>
      <trkpt lat="46.01097" lon="6.48758">
        <ele>2081.39</ele>
        <time>2015-08-30T07:40:51Z</time>
      </trkpt>
      <trkpt lat="46.01095" lon="6.48757">
        <ele>2081.87</ele>
        <time>2015-08-30T07:41:17Z</time>
      </trkpt>
      <trkpt lat="46.01094" lon="6.4876">
        <ele>2082.83</ele>
        <time>2015-08-30T07:41:36Z</time>
      </trkpt>
      <trkpt lat="46.01095" lon="6.48762">
        <ele>2082.83</ele>
        <time>2015-08-30T07:41:52Z</time>
      </trkpt>
      <trkpt lat="46.01095" lon="6.48762">
        <ele>2083.31</ele>
        <time>2015-08-30T07:42:11Z</time>
      </trkpt>
      <trkpt lat="46.01095" lon="6.48761">
        <ele>2083.31</ele>
        <time>2015-08-30T07:42:32Z</time>
      </trkpt>
      <trkpt lat="46.01093" lon="6.48764">
        <ele>2084.28</ele>
        <time>2015-08-30T07:42:56Z</time>
      </trkpt>
      <trkpt lat="46.01095" lon="6.48763">
        <ele>2085.24</ele>
        <time>2015-08-30T07:43:16Z</time>
      </trkpt>
      <trkpt lat="46.01095" lon="6.48764">
        <ele>2085.72</ele>
        <time>2015-08-30T07:43:39Z</time>
      </trkpt>
      <trkpt lat="46.01097" lon="6.48764">
        <ele>2087.64</ele>
        <time>2015-08-30T07:43:57Z</time>
      </trkpt>
      <trkpt lat="46.01099" lon="6.4876">
        <ele>2088.6</ele>
        <time>2015-08-30T07:44:11Z</time>
      </trkpt>
      <trkpt lat="46.011" lon="6.48761">
        <ele>2089.56</ele>
        <time>2015-08-30T07:44:34Z</time>
      </trkpt>
      <trkpt lat="46.011" lon="6.48759">
        <ele>2090.52</ele>
        <time>2015-08-30T07:44:52Z</time>
      </trkpt>
      <trkpt lat="46.011" lon="6.4876">
        <ele>2091.97</ele>
        <time>2015-08-30T07:45:10Z</time>
      </trkpt>
      <trkpt lat="46.01102" lon="6.48763">
        <ele>2092.93</ele>
        <time>2015-08-30T07:45:24Z</time>
      </trkpt>
      <trkpt lat="46.01103" lon="6.48762">
        <ele>2093.41</ele>
        <time>2015-08-30T07:45:51Z</time>
      </trkpt>
      <trkpt lat="46.01102" lon="6.48765">
        <ele>2094.37</ele>
        <time>2015-08-30T07:46:09Z</time>
      </trkpt>
      <trkpt lat="46.01104" lon="6.48763">
        <ele>2095.33</ele>
        <time>2015-08-30T07:46:28Z</time>
      </trkpt>
      <trkpt lat="46.01104" lon="6.48765">
        <ele>2096.77</ele>
        <time>2015-08-30T07:46:42Z</time>
      </trkpt>
      <trkpt lat="46.01104" lon="6.48763">
        <ele>2096.77</ele>
        <time>2015-08-30T07:47:01Z</time>
      </trkpt>
      <trkpt lat="46.01106" lon="6.4876">
        <ele>2097.73</ele>
        <time>2015-08-30T07:47:23Z</time>
      </trkpt>
      <trkpt lat="46.01105" lon="6.4876">
        <ele>2100.14</ele>
        <time>2015-08-30T07:47:36Z</time>
      </trkpt>
      <trkpt lat="46.01106" lon="6.48766">
        <ele>2102.54</ele>
        <time>2015-08-30T07:47:51Z</time>
      </trkpt>
      <trkpt lat="46.01106" lon="6.48769">
        <ele>2103.5</ele>
        <time>2015-08-30T07:48:06Z</time>
      </trkpt>
      <trkpt lat="46.01108" lon="6.48769">
        <ele>2105.42</ele>
        <time>2015-08-30T07:48:20Z</time>
      </trkpt>
      <trkpt lat="46.01108" lon="6.48768">
        <ele>2106.87</ele>
        <time>2015-08-30T07:48:37Z</time>
      </trkpt>
      <trkpt lat="46.0111" lon="6.48766">
        <ele>2106.87</ele>
        <time>2015-08-30T07:49:00Z</time>
      </trkpt>
      <trkpt lat="46.0111" lon="6.48768">
        <ele>2108.31</ele>
        <time>2015-08-30T07:49:14Z</time>
      </trkpt>
      <trkpt lat="46.01111" lon="6.4877">
        <ele>2109.75</ele>
        <time>2015-08-30T07:49:28Z</time>
      </trkpt>
      <trkpt lat="46.01111" lon="6.4877">
        <ele>2111.19</ele>
        <time>2015-08-30T07:49:40Z</time>
      </trkpt>
      <trkpt lat="46.01112" lon="6.48772">
        <ele>2112.63</ele>
        <time>2015-08-30T07:49:55Z</time>
      </trkpt>
      <trkpt lat="46.01111" lon="6.48776">
        <ele>2113.12</ele>
        <time>2015-08-30T07:50:11Z</time>
      </trkpt>
      <trkpt lat="46.01112" lon="6.48778">
        <ele>2113.6</ele>
        <time>2015-08-30T07:50:24Z</time>
      </trkpt>
      <trkpt lat="46.01112" lon="6.48781">
        <ele>2114.08</ele>
        <time>2015-08-30T07:50:35Z</time>
      </trkpt>
      <trkpt lat="46.01112" lon="6.48786">
        <ele>2116.96</ele>
        <time>2015-08-30T07:50:45Z</time>
      </trkpt>
      <trkpt lat="46.01111" lon="6.4879">
        <ele>2119.84</ele>
        <time>2015-08-30T07:50:57Z</time>
      </trkpt>
      <trkpt lat="46.01112" lon="6.48794">
        <ele>2121.29</ele>
        <time>2015-08-30T07:51:10Z</time>
      </trkpt>
      <trkpt lat="46.01114" lon="6.48798">
        <ele>2122.25</ele>
        <time>2015-08-30T07:51:24Z</time>
      </trkpt>
      <trkpt lat="46.01112" lon="6.48796">
        <ele>2121.29</ele>
        <time>2015-08-30T07:52:01Z</time>
      </trkpt>
      <trkpt lat="46.01113" lon="6.48795">
        <ele>2120.81</ele>
        <time>2015-08-30T07:52:34Z</time>
      </trkpt>
      <trkpt lat="46.01113" lon="6.48793">
        <ele>2121.29</ele>
        <time>2015-08-30T07:53:14Z</time>
      </trkpt>
      <trkpt lat="46.01112" lon="6.48795">
        <ele>2122.73</ele>
        <time>2015-08-30T07:53:39Z</time>
      </trkpt>
      <trkpt lat="46.01113" lon="6.48796">
        <ele>2122.25</ele>
        <time>2015-08-30T07:53:51Z</time>
      </trkpt>
      <trkpt lat="46.01113" lon="6.48796">
        <ele>2124.17</ele>
        <time>2015-08-30T07:53:53Z</time>
      </trkpt>
      <trkpt lat="46.01113" lon="6.48797">
        <ele>2122.25</ele>
        <time>2015-08-30T07:53:55Z</time>
      </trkpt>
      <trkpt lat="46.01114" lon="6.48797">
        <ele>2123.69</ele>
        <time>2015-08-30T07:54:08Z</time>
      </trkpt>
      <trkpt lat="46.01115" lon="6.48796">
        <ele>2123.69</ele>
        <time>2015-08-30T07:54:15Z</time>
      </trkpt>
      <trkpt lat="46.01115" lon="6.48796">
        <ele>2123.69</ele>
        <time>2015-08-30T07:54:37Z</time>
      </trkpt>
      <trkpt lat="46.01116" lon="6.48796">
        <ele>2124.17</ele>
        <time>2015-08-30T07:54:54Z</time>
      </trkpt>
      <trkpt lat="46.01119" lon="6.48796">
        <ele>2126.09</ele>
        <time>2015-08-30T07:55:12Z</time>
      </trkpt>
      <trkpt lat="46.01122" lon="6.48793">
        <ele>2128.02</ele>
        <time>2015-08-30T07:55:23Z</time>
      </trkpt>
      <trkpt lat="46.01126" lon="6.48792">
        <ele>2128.98</ele>
        <time>2015-08-30T07:55:35Z</time>
      </trkpt>
      <trkpt lat="46.01131" lon="6.48788">
        <ele>2132.34</ele>
        <time>2015-08-30T07:55:51Z</time>
      </trkpt>
      <trkpt lat="46.01136" lon="6.48789">
        <ele>2134.26</ele>
        <time>2015-08-30T07:56:05Z</time>
      </trkpt>
      <trkpt lat="46.01142" lon="6.4879">
        <ele>2136.19</ele>
        <time>2015-08-30T07:56:20Z</time>
      </trkpt>
      <trkpt lat="46.01147" lon="6.48787">
        <ele>2139.55</ele>
        <time>2015-08-30T07:56:36Z</time>
      </trkpt>
      <trkpt lat="46.01154" lon="6.48785">
        <ele>2140.99</ele>
        <time>2015-08-30T07:56:52Z</time>
      </trkpt>
      <trkpt lat="46.0116" lon="6.48787">
        <ele>2143.88</ele>
        <time>2015-08-30T07:57:08Z</time>
      </trkpt>
      <trkpt lat="46.01166" lon="6.48789">
        <ele>2145.32</ele>
        <time>2015-08-30T07:57:21Z</time>
      </trkpt>
      <trkpt lat="46.0117" lon="6.48788">
        <ele>2147.72</ele>
        <time>2015-08-30T07:57:34Z</time>
      </trkpt>
      <trkpt lat="46.01175" lon="6.48791">
        <ele>2149.65</ele>
        <time>2015-08-30T07:57:46Z</time>
      </trkpt>
      <trkpt lat="46.0118" lon="6.48796">
        <ele>2150.61</ele>
        <time>2015-08-30T07:57:59Z</time>
      </trkpt>
      <trkpt lat="46.01184" lon="6.48799">
        <ele>2151.57</ele>
        <time>2015-08-30T07:58:11Z</time>
      </trkpt>
      <trkpt lat="46.0119" lon="6.48808">
        <ele>2154.45</ele>
        <time>2015-08-30T07:58:28Z</time>
      </trkpt>
      <trkpt lat="46.01196" lon="6.48818">
        <ele>2157.34</ele>
        <time>2015-08-30T07:58:44Z</time>
      </trkpt>
      <trkpt lat="46.01199" lon="6.48823">
        <ele>2159.26</ele>
        <time>2015-08-30T07:58:58Z</time>
      </trkpt>
      <trkpt lat="46.01201" lon="6.48832">
        <ele>2161.66</ele>
        <time>2015-08-30T07:59:13Z</time>
      </trkpt>
      <trkpt lat="46.01204" lon="6.48837">
        <ele>2164.55</ele>
        <time>2015-08-30T07:59:29Z</time>
      </trkpt>
      <trkpt lat="46.01208" lon="6.48841">
        <ele>2166.47</ele>
        <time>2015-08-30T07:59:43Z</time>
      </trkpt>
      <trkpt lat="46.01212" lon="6.48841">
        <ele>2168.39</ele>
        <time>2015-08-30T07:59:57Z</time>
      </trkpt>
      <trkpt lat="46.01215" lon="6.48837">
        <ele>2170.79</ele>
        <time>2015-08-30T08:00:11Z</time>
      </trkpt>
      <trkpt lat="46.01217" lon="6.48839">
        <ele>2171.27</ele>
        <time>2015-08-30T08:00:19Z</time>
      </trkpt>
      <trkpt lat="46.01216" lon="6.48848">
        <ele>2172.72</ele>
        <time>2015-08-30T08:00:32Z</time>
      </trkpt>
      <trkpt lat="46.01218" lon="6.48855">
        <ele>2175.12</ele>
        <time>2015-08-30T08:00:46Z</time>
      </trkpt>
      <trkpt lat="46.01219" lon="6.48861">
        <ele>2177.04</ele>
        <time>2015-08-30T08:00:59Z</time>
      </trkpt>
      <trkpt lat="46.01222" lon="6.48864">
        <ele>2178.97</ele>
        <time>2015-08-30T08:01:12Z</time>
      </trkpt>
      <trkpt lat="46.01228" lon="6.4886">
        <ele>2181.85</ele>
        <time>2015-08-30T08:01:26Z</time>
      </trkpt>
      <trkpt lat="46.0123" lon="6.48859">
        <ele>2182.33</ele>
        <time>2015-08-30T08:01:42Z</time>
      </trkpt>
      <trkpt lat="46.01231" lon="6.48861">
        <ele>2182.81</ele>
        <time>2015-08-30T08:02:09Z</time>
      </trkpt>
      <trkpt lat="46.01231" lon="6.4886">
        <ele>2182.81</ele>
        <time>2015-08-30T08:02:34Z</time>
      </trkpt>
      <trkpt lat="46.01231" lon="6.48858">
        <ele>2182.81</ele>
        <time>2015-08-30T08:03:06Z</time>
      </trkpt>
      <trkpt lat="46.0123" lon="6.48865">
        <ele>2184.25</ele>
        <time>2015-08-30T08:03:20Z</time>
      </trkpt>
      <trkpt lat="46.0123" lon="6.48872">
        <ele>2186.66</ele>
        <time>2015-08-30T08:03:34Z</time>
      </trkpt>
      <trkpt lat="46.0123" lon="6.4888">
        <ele>2190.02</ele>
        <time>2015-08-30T08:03:51Z</time>
      </trkpt>
      <trkpt lat="46.01231" lon="6.48888">
        <ele>2192.9</ele>
        <time>2015-08-30T08:04:08Z</time>
      </trkpt>
      <trkpt lat="46.01233" lon="6.48897">
        <ele>2193.87</ele>
        <time>2015-08-30T08:04:24Z</time>
      </trkpt>
      <trkpt lat="46.01234" lon="6.48906">
        <ele>2195.79</ele>
        <time>2015-08-30T08:04:38Z</time>
      </trkpt>
      <trkpt lat="46.01236" lon="6.48915">
        <ele>2198.67</ele>
        <time>2015-08-30T08:04:55Z</time>
      </trkpt>
      <trkpt lat="46.01237" lon="6.48923">
        <ele>2200.59</ele>
        <time>2015-08-30T08:05:10Z</time>
      </trkpt>
      <trkpt lat="46.01237" lon="6.48932">
        <ele>2203.48</ele>
        <time>2015-08-30T08:05:24Z</time>
      </trkpt>
      <trkpt lat="46.01238" lon="6.48939">
        <ele>2205.88</ele>
        <time>2015-08-30T08:05:39Z</time>
      </trkpt>
      <trkpt lat="46.0124" lon="6.48943">
        <ele>2208.29</ele>
        <time>2015-08-30T08:05:54Z</time>
      </trkpt>
      <trkpt lat="46.01244" lon="6.48946">
        <ele>2209.73</ele>
        <time>2015-08-30T08:06:07Z</time>
      </trkpt>
      <trkpt lat="46.01246" lon="6.4895">
        <ele>2211.65</ele>
        <time>2015-08-30T08:06:17Z</time>
      </trkpt>
      <trkpt lat="46.01247" lon="6.48954">
        <ele>2213.57</ele>
        <time>2015-08-30T08:06:29Z</time>
      </trkpt>
      <trkpt lat="46.01247" lon="6.48961">
        <ele>2215.5</ele>
        <time>2015-08-30T08:06:43Z</time>
      </trkpt>
      <trkpt lat="46.01246" lon="6.48967">
        <ele>2217.42</ele>
        <time>2015-08-30T08:06:57Z</time>
      </trkpt>
      <trkpt lat="46.01245" lon="6.4897">
        <ele>2219.34</ele>
        <time>2015-08-30T08:07:09Z</time>
      </trkpt>
      <trkpt lat="46.01248" lon="6.4897">
        <ele>2220.78</ele>
        <time>2015-08-30T08:07:22Z</time>
      </trkpt>
      <trkpt lat="46.0125" lon="6.48972">
        <ele>2221.74</ele>
        <time>2015-08-30T08:07:35Z</time>
      </trkpt>
      <trkpt lat="46.01252" lon="6.48975">
        <ele>2224.63</ele>
        <time>2015-08-30T08:07:51Z</time>
      </trkpt>
      <trkpt lat="46.01253" lon="6.48977">
        <ele>2226.55</ele>
        <time>2015-08-30T08:08:04Z</time>
      </trkpt>
      <trkpt lat="46.01253" lon="6.4898">
        <ele>2227.99</ele>
        <time>2015-08-30T08:08:20Z</time>
      </trkpt>
      <trkpt lat="46.01252" lon="6.48983">
        <ele>2229.92</ele>
        <time>2015-08-30T08:08:33Z</time>
      </trkpt>
      <trkpt lat="46.01253" lon="6.48987">
        <ele>2232.32</ele>
        <time>2015-08-30T08:08:50Z</time>
      </trkpt>
      <trkpt lat="46.01261" lon="6.48986">
        <ele>2235.2</ele>
        <time>2015-08-30T08:09:10Z</time>
      </trkpt>
      <trkpt lat="46.01264" lon="6.48983">
        <ele>2236.64</ele>
        <time>2015-08-30T08:09:22Z</time>
      </trkpt>
      <trkpt lat="46.01265" lon="6.4898">
        <ele>2236.64</ele>
        <time>2015-08-30T08:09:44Z</time>
      </trkpt>
      <trkpt lat="46.01264" lon="6.48981">
        <ele>2236.64</ele>
        <time>2015-08-30T08:10:05Z</time>
      </trkpt>
      <trkpt lat="46.01264" lon="6.48984">
        <ele>2237.61</ele>
        <time>2015-08-30T08:10:24Z</time>
      </trkpt>
      <trkpt lat="46.01267" lon="6.48986">
        <ele>2239.53</ele>
        <time>2015-08-30T08:10:37Z</time>
      </trkpt>
      <trkpt lat="46.0127" lon="6.48983">
        <ele>2240.97</ele>
        <time>2015-08-30T08:10:51Z</time>
      </trkpt>
      <trkpt lat="46.01275" lon="6.48971">
        <ele>2242.89</ele>
        <time>2015-08-30T08:11:07Z</time>
      </trkpt>
      <trkpt lat="46.01279" lon="6.48961">
        <ele>2246.26</ele>
        <time>2015-08-30T08:11:22Z</time>
      </trkpt>
      <trkpt lat="46.01284" lon="6.48955">
        <ele>2247.7</ele>
        <time>2015-08-30T08:11:37Z</time>
      </trkpt>
      <trkpt lat="46.01293" lon="6.48952">
        <ele>2249.62</ele>
        <time>2015-08-30T08:11:52Z</time>
      </trkpt>
      <trkpt lat="46.01302" lon="6.48958">
        <ele>2252.51</ele>
        <time>2015-08-30T08:12:07Z</time>
      </trkpt>
      <trkpt lat="46.01308" lon="6.48963">
        <ele>2254.43</ele>
        <time>2015-08-30T08:12:21Z</time>
      </trkpt>
      <trkpt lat="46.01313" lon="6.48974">
        <ele>2255.87</ele>
        <time>2015-08-30T08:12:36Z</time>
      </trkpt>
      <trkpt lat="46.01318" lon="6.48978">
        <ele>2256.83</ele>
        <time>2015-08-30T08:12:51Z</time>
      </trkpt>
      <trkpt lat="46.01319" lon="6.48976">
        <ele>2256.83</ele>
        <time>2015-08-30T08:13:11Z</time>
      </trkpt>
      <trkpt lat="46.01316" lon="6.48974">
        <ele>2256.83</ele>
        <time>2015-08-30T08:13:34Z</time>
      </trkpt>
      <trkpt lat="46.01316" lon="6.48978">
        <ele>2256.83</ele>
        <time>2015-08-30T08:13:50Z</time>
      </trkpt>
      <trkpt lat="46.01314" lon="6.48979">
        <ele>2256.83</ele>
        <time>2015-08-30T08:14:12Z</time>
      </trkpt>
      <trkpt lat="46.01315" lon="6.48977">
        <ele>2256.83</ele>
        <time>2015-08-30T08:14:29Z</time>
      </trkpt>
      <trkpt lat="46.01315" lon="6.48976">
        <ele>2257.31</ele>
        <time>2015-08-30T08:14:51Z</time>
      </trkpt>
      <trkpt lat="46.01316" lon="6.4898">
        <ele>2257.31</ele>
        <time>2015-08-30T08:15:29Z</time>
      </trkpt>
      <trkpt lat="46.01315" lon="6.48981">
        <ele>2257.31</ele>
        <time>2015-08-30T08:15:56Z</time>
      </trkpt>
      <trkpt lat="46.01316" lon="6.48981">
        <ele>2257.31</ele>
        <time>2015-08-30T08:16:23Z</time>
      </trkpt>
      <trkpt lat="46.01316" lon="6.48986">
        <ele>2256.35</ele>
        <time>2015-08-30T08:16:37Z</time>
      </trkpt>
      <trkpt lat="46.01316" lon="6.48987">
        <ele>2256.35</ele>
        <time>2015-08-30T08:16:38Z</time>
      </trkpt>
      <trkpt lat="46.0132" lon="6.48999">
        <ele>2254.91</ele>
        <time>2015-08-30T08:16:52Z</time>
      </trkpt>
      <trkpt lat="46.01323" lon="6.49001">
        <ele>2253.47</ele>
        <time>2015-08-30T08:17:09Z</time>
      </trkpt>
      <trkpt lat="46.01323" lon="6.49011">
        <ele>2250.58</ele>
        <time>2015-08-30T08:17:24Z</time>
      </trkpt>
      <trkpt lat="46.01323" lon="6.4902">
        <ele>2250.58</ele>
        <time>2015-08-30T08:17:41Z</time>
      </trkpt>
      <trkpt lat="46.01322" lon="6.49024">
        <ele>2249.62</ele>
        <time>2015-08-30T08:17:58Z</time>
      </trkpt>
      <trkpt lat="46.01322" lon="6.49024">
        <ele>2249.62</ele>
        <time>2015-08-30T08:17:59Z</time>
      </trkpt>
      <trkpt lat="46.01319" lon="6.49028">
        <ele>2249.14</ele>
        <time>2015-08-30T08:18:10Z</time>
      </trkpt>
      <trkpt lat="46.01314" lon="6.49034">
        <ele>2249.14</ele>
        <time>2015-08-30T08:18:19Z</time>
      </trkpt>
      <trkpt lat="46.01313" lon="6.49051">
        <ele>2247.7</ele>
        <time>2015-08-30T08:18:33Z</time>
      </trkpt>
      <trkpt lat="46.01313" lon="6.49053">
        <ele>2247.7</ele>
        <time>2015-08-30T08:18:50Z</time>
      </trkpt>
      <trkpt lat="46.01315" lon="6.4906">
        <ele>2245.78</ele>
        <time>2015-08-30T08:19:07Z</time>
      </trkpt>
      <trkpt lat="46.01316" lon="6.49063">
        <ele>2244.33</ele>
        <time>2015-08-30T08:19:20Z</time>
      </trkpt>
      <trkpt lat="46.01322" lon="6.49063">
        <ele>2242.89</ele>
        <time>2015-08-30T08:19:30Z</time>
      </trkpt>
      <trkpt lat="46.01324" lon="6.49063">
        <ele>2241.93</ele>
        <time>2015-08-30T08:19:44Z</time>
      </trkpt>
      <trkpt lat="46.01324" lon="6.49064">
        <ele>2240.49</ele>
        <time>2015-08-30T08:19:47Z</time>
      </trkpt>
      <trkpt lat="46.01324" lon="6.49068">
        <ele>2240.49</ele>
        <time>2015-08-30T08:20:02Z</time>
      </trkpt>
      <trkpt lat="46.01328" lon="6.49065">
        <ele>2239.05</ele>
        <time>2015-08-30T08:20:14Z</time>
      </trkpt>
      <trkpt lat="46.01328" lon="6.49071">
        <ele>2237.13</ele>
        <time>2015-08-30T08:20:30Z</time>
      </trkpt>
      <trkpt lat="46.01329" lon="6.49074">
        <ele>2235.68</ele>
        <time>2015-08-30T08:20:43Z</time>
      </trkpt>
      <trkpt lat="46.01329" lon="6.49077">
        <ele>2234.24</ele>
        <time>2015-08-30T08:20:58Z</time>
      </trkpt>
      <trkpt lat="46.01328" lon="6.49079">
        <ele>2233.76</ele>
        <time>2015-08-30T08:21:17Z</time>
      </trkpt>
      <trkpt lat="46.01328" lon="6.4908">
        <ele>2232.32</ele>
        <time>2015-08-30T08:21:37Z</time>
      </trkpt>
      <trkpt lat="46.01332" lon="6.49084">
        <ele>2232.32</ele>
        <time>2015-08-30T08:21:51Z</time>
      </trkpt>
      <trkpt lat="46.01334" lon="6.49086">
        <ele>2230.88</ele>
        <time>2015-08-30T08:22:08Z</time>
      </trkpt>
      <trkpt lat="46.01335" lon="6.49088">
        <ele>2228.95</ele>
        <time>2015-08-30T08:22:23Z</time>
      </trkpt>
      <trkpt lat="46.01336" lon="6.4909">
        <ele>2227.51</ele>
        <time>2015-08-30T08:22:36Z</time>
      </trkpt>
      <trkpt lat="46.01338" lon="6.49091">
        <ele>2226.07</ele>
        <time>2015-08-30T08:22:48Z</time>
      </trkpt>
      <trkpt lat="46.01338" lon="6.49093">
        <ele>2224.63</ele>
        <time>2015-08-30T08:23:05Z</time>
      </trkpt>
      <trkpt lat="46.01338" lon="6.49098">
        <ele>2221.74</ele>
        <time>2015-08-30T08:23:19Z</time>
      </trkpt>
      <trkpt lat="46.01342" lon="6.49102">
        <ele>2219.82</ele>
        <time>2015-08-30T08:23:33Z</time>
      </trkpt>
      <trkpt lat="46.01344" lon="6.49105">
        <ele>2218.86</ele>
        <time>2015-08-30T08:23:45Z</time>
      </trkpt>
      <trkpt lat="46.01348" lon="6.4911">
        <ele>2215.98</ele>
        <time>2015-08-30T08:24:01Z</time>
      </trkpt>
      <trkpt lat="46.01348" lon="6.49113">
        <ele>2214.53</ele>
        <time>2015-08-30T08:24:16Z</time>
      </trkpt>
      <trkpt lat="46.0135" lon="6.49116">
        <ele>2213.09</ele>
        <time>2015-08-30T08:24:29Z</time>
      </trkpt>
      <trkpt lat="46.01354" lon="6.49121">
        <ele>2210.21</ele>
        <time>2015-08-30T08:24:43Z</time>
      </trkpt>
      <trkpt lat="46.01356" lon="6.49124">
        <ele>2208.29</ele>
        <time>2015-08-30T08:25:00Z</time>
      </trkpt>
      <trkpt lat="46.01354" lon="6.49126">
        <ele>2207.81</ele>
        <time>2015-08-30T08:25:16Z</time>
      </trkpt>
      <trkpt lat="46.01358" lon="6.4913">
        <ele>2205.88</ele>
        <time>2015-08-30T08:25:31Z</time>
      </trkpt>
      <trkpt lat="46.01359" lon="6.49132">
        <ele>2203.96</ele>
        <time>2015-08-30T08:25:43Z</time>
      </trkpt>
      <trkpt lat="46.0136" lon="6.49135">
        <ele>2202.04</ele>
        <time>2015-08-30T08:25:55Z</time>
      </trkpt>
      <trkpt lat="46.01362" lon="6.49138">
        <ele>2201.08</ele>
        <time>2015-08-30T08:26:16Z</time>
      </trkpt>
      <trkpt lat="46.01363" lon="6.49144">
        <ele>2198.19</ele>
        <time>2015-08-30T08:26:31Z</time>
      </trkpt>
      <trkpt lat="46.01366" lon="6.49146">
        <ele>2196.75</ele>
        <time>2015-08-30T08:26:44Z</time>
      </trkpt>
      <trkpt lat="46.01369" lon="6.49147">
        <ele>2195.79</ele>
        <time>2015-08-30T08:26:58Z</time>
      </trkpt>
      <trkpt lat="46.01372" lon="6.49146">
        <ele>2193.87</ele>
        <time>2015-08-30T08:27:10Z</time>
      </trkpt>
      <trkpt lat="46.01374" lon="6.49146">
        <ele>2192.9</ele>
        <time>2015-08-30T08:27:25Z</time>
      </trkpt>
      <trkpt lat="46.01375" lon="6.49144">
        <ele>2191.46</ele>
        <time>2015-08-30T08:27:39Z</time>
      </trkpt>
      <trkpt lat="46.01376" lon="6.49142">
        <ele>2191.46</ele>
        <time>2015-08-30T08:28:01Z</time>
      </trkpt>
      <trkpt lat="46.01376" lon="6.49142">
        <ele>2190.5</ele>
        <time>2015-08-30T08:28:15Z</time>
      </trkpt>
      <trkpt lat="46.01379" lon="6.4914">
        <ele>2190.02</ele>
        <time>2015-08-30T08:28:31Z</time>
      </trkpt>
      <trkpt lat="46.0138" lon="6.49138">
        <ele>2188.58</ele>
        <time>2015-08-30T08:28:50Z</time>
      </trkpt>
      <trkpt lat="46.01379" lon="6.49138">
        <ele>2188.58</ele>
        <time>2015-08-30T08:29:06Z</time>
      </trkpt>
      <trkpt lat="46.0138" lon="6.49135">
        <ele>2187.62</ele>
        <time>2015-08-30T08:29:27Z</time>
      </trkpt>
      <trkpt lat="46.01382" lon="6.49134">
        <ele>2187.14</ele>
        <time>2015-08-30T08:29:40Z</time>
      </trkpt>
      <trkpt lat="46.01382" lon="6.49133">
        <ele>2187.14</ele>
        <time>2015-08-30T08:29:58Z</time>
      </trkpt>
      <trkpt lat="46.01379" lon="6.49136">
        <ele>2186.18</ele>
        <time>2015-08-30T08:30:14Z</time>
      </trkpt>
      <trkpt lat="46.01379" lon="6.49136">
        <ele>2185.21</ele>
        <time>2015-08-30T08:30:32Z</time>
      </trkpt>
      <trkpt lat="46.01381" lon="6.49133">
        <ele>2185.21</ele>
        <time>2015-08-30T08:30:49Z</time>
      </trkpt>
      <trkpt lat="46.0138" lon="6.49134">
        <ele>2185.21</ele>
        <time>2015-08-30T08:31:04Z</time>
      </trkpt>
      <trkpt lat="46.01384" lon="6.49135">
        <ele>2185.69</ele>
        <time>2015-08-30T08:31:26Z</time>
      </trkpt>
      <trkpt lat="46.01383" lon="6.49135">
        <ele>2185.69</ele>
        <time>2015-08-30T08:31:46Z</time>
      </trkpt>
      <trkpt lat="46.01384" lon="6.49133">
        <ele>2185.69</ele>
        <time>2015-08-30T08:32:09Z</time>
      </trkpt>
      <trkpt lat="46.01383" lon="6.49137">
        <ele>2185.69</ele>
        <time>2015-08-30T08:32:25Z</time>
      </trkpt>
      <trkpt lat="46.01383" lon="6.49141">
        <ele>2186.66</ele>
        <time>2015-08-30T08:32:30Z</time>
      </trkpt>
      <trkpt lat="46.01385" lon="6.49146">
        <ele>2187.62</ele>
        <time>2015-08-30T08:32:42Z</time>
      </trkpt>
      <trkpt lat="46.01384" lon="6.49148">
        <ele>2189.54</ele>
        <time>2015-08-30T08:32:55Z</time>
      </trkpt>
      <trkpt lat="46.01388" lon="6.4915">
        <ele>2191.46</ele>
        <time>2015-08-30T08:33:08Z</time>
      </trkpt>
      <trkpt lat="46.0139" lon="6.49153">
        <ele>2193.39</ele>
        <time>2015-08-30T08:33:21Z</time>
      </trkpt>
      <trkpt lat="46.01393" lon="6.49157">
        <ele>2195.31</ele>
        <time>2015-08-30T08:33:32Z</time>
      </trkpt>
      <trkpt lat="46.01396" lon="6.49164">
        <ele>2197.23</ele>
        <time>2015-08-30T08:33:45Z</time>
      </trkpt>
      <trkpt lat="46.01403" lon="6.49166">
        <ele>2198.19</ele>
        <time>2015-08-30T08:33:58Z</time>
      </trkpt>
      <trkpt lat="46.01409" lon="6.49174">
        <ele>2200.59</ele>
        <time>2015-08-30T08:34:13Z</time>
      </trkpt>
      <trkpt lat="46.01416" lon="6.49179">
        <ele>2202.04</ele>
        <time>2015-08-30T08:34:27Z</time>
      </trkpt>
      <trkpt lat="46.01423" lon="6.49185">
        <ele>2203</ele>
        <time>2015-08-30T08:34:41Z</time>
      </trkpt>
      <trkpt lat="46.01425" lon="6.49182">
        <ele>2202.04</ele>
        <time>2015-08-30T08:35:05Z</time>
      </trkpt>
      <trkpt lat="46.01425" lon="6.4918">
        <ele>2199.15</ele>
        <time>2015-08-30T08:35:20Z</time>
      </trkpt>
      <trkpt lat="46.01425" lon="6.4918">
        <ele>2202.52</ele>
        <time>2015-08-30T08:35:21Z</time>
      </trkpt>
      <trkpt lat="46.01425" lon="6.4918">
        <ele>2202.52</ele>
        <time>2015-08-30T08:35:22Z</time>
      </trkpt>
      <trkpt lat="46.01426" lon="6.49179">
        <ele>2202.52</ele>
        <time>2015-08-30T08:35:51Z</time>
      </trkpt>
      <trkpt lat="46.01425" lon="6.49179">
        <ele>2202.52</ele>
        <time>2015-08-30T08:36:26Z</time>
      </trkpt>
      <trkpt lat="46.01426" lon="6.49181">
        <ele>2203</ele>
        <time>2015-08-30T08:36:59Z</time>
      </trkpt>
      <trkpt lat="46.01425" lon="6.49181">
        <ele>2203.96</ele>
        <time>2015-08-30T08:37:17Z</time>
      </trkpt>
      <trkpt lat="46.01425" lon="6.49181">
        <ele>2203.96</ele>
        <time>2015-08-30T08:37:56Z</time>
      </trkpt>
      <trkpt lat="46.01425" lon="6.4918">
        <ele>2203</ele>
        <time>2015-08-30T08:38:04Z</time>
      </trkpt>
      <trkpt lat="46.01426" lon="6.49179">
        <ele>2203</ele>
        <time>2015-08-30T08:38:29Z</time>
      </trkpt>
      <trkpt lat="46.01428" lon="6.49181">
        <ele>2203</ele>
        <time>2015-08-30T08:38:57Z</time>
      </trkpt>
      <trkpt lat="46.01428" lon="6.49185">
        <ele>2203.96</ele>
        <time>2015-08-30T08:39:18Z</time>
      </trkpt>
      <trkpt lat="46.01429" lon="6.49184">
        <ele>2204.92</ele>
        <time>2015-08-30T08:39:30Z</time>
      </trkpt>
      <trkpt lat="46.0143" lon="6.49185">
        <ele>2206.36</ele>
        <time>2015-08-30T08:39:47Z</time>
      </trkpt>
      <trkpt lat="46.01432" lon="6.49192">
        <ele>2207.32</ele>
        <time>2015-08-30T08:40:06Z</time>
      </trkpt>
      <trkpt lat="46.01433" lon="6.49196">
        <ele>2209.25</ele>
        <time>2015-08-30T08:40:17Z</time>
      </trkpt>
      <trkpt lat="46.0144" lon="6.49204">
        <ele>2210.21</ele>
        <time>2015-08-30T08:40:33Z</time>
      </trkpt>
      <trkpt lat="46.01442" lon="6.4921">
        <ele>2212.13</ele>
        <time>2015-08-30T08:40:48Z</time>
      </trkpt>
      <trkpt lat="46.01443" lon="6.49215">
        <ele>2212.61</ele>
        <time>2015-08-30T08:41:00Z</time>
      </trkpt>
      <trkpt lat="46.01446" lon="6.49218">
        <ele>2214.05</ele>
        <time>2015-08-30T08:41:11Z</time>
      </trkpt>
      <trkpt lat="46.01447" lon="6.49223">
        <ele>2215.01</ele>
        <time>2015-08-30T08:41:21Z</time>
      </trkpt>
      <trkpt lat="46.0145" lon="6.49225">
        <ele>2217.42</ele>
        <time>2015-08-30T08:41:33Z</time>
      </trkpt>
      <trkpt lat="46.01453" lon="6.49226">
        <ele>2218.38</ele>
        <time>2015-08-30T08:41:45Z</time>
      </trkpt>
      <trkpt lat="46.01454" lon="6.49226">
        <ele>2220.3</ele>
        <time>2015-08-30T08:41:57Z</time>
      </trkpt>
      <trkpt lat="46.01457" lon="6.49228">
        <ele>2221.74</ele>
        <time>2015-08-30T08:42:12Z</time>
      </trkpt>
      <trkpt lat="46.01458" lon="6.49228">
        <ele>2224.15</ele>
        <time>2015-08-30T08:42:24Z</time>
      </trkpt>
      <trkpt lat="46.01459" lon="6.4923">
        <ele>2224.63</ele>
        <time>2015-08-30T08:42:36Z</time>
      </trkpt>
      <trkpt lat="46.01455" lon="6.49236">
        <ele>2226.55</ele>
        <time>2015-08-30T08:42:50Z</time>
      </trkpt>
      <trkpt lat="46.01456" lon="6.49235">
        <ele>2228.47</ele>
        <time>2015-08-30T08:43:03Z</time>
      </trkpt>
      <trkpt lat="46.01456" lon="6.49238">
        <ele>2229.43</ele>
        <time>2015-08-30T08:43:14Z</time>
      </trkpt>
      <trkpt lat="46.01459" lon="6.49229">
        <ele>2230.88</ele>
        <time>2015-08-30T08:43:26Z</time>
      </trkpt>
      <trkpt lat="46.01458" lon="6.49223">
        <ele>2232.32</ele>
        <time>2015-08-30T08:43:38Z</time>
      </trkpt>
      <trkpt lat="46.01458" lon="6.49219">
        <ele>2234.24</ele>
        <time>2015-08-30T08:43:50Z</time>
      </trkpt>
      <trkpt lat="46.01459" lon="6.4921">
        <ele>2236.16</ele>
        <time>2015-08-30T08:44:04Z</time>
      </trkpt>
      <trkpt lat="46.01458" lon="6.49203">
        <ele>2238.09</ele>
        <time>2015-08-30T08:44:17Z</time>
      </trkpt>
      <trkpt lat="46.01457" lon="6.49197">
        <ele>2240.01</ele>
        <time>2015-08-30T08:44:30Z</time>
      </trkpt>
      <trkpt lat="46.01455" lon="6.49189">
        <ele>2241.93</ele>
        <time>2015-08-30T08:44:43Z</time>
      </trkpt>
      <trkpt lat="46.01456" lon="6.49183">
        <ele>2243.85</ele>
        <time>2015-08-30T08:44:58Z</time>
      </trkpt>
      <trkpt lat="46.01457" lon="6.49175">
        <ele>2246.74</ele>
        <time>2015-08-30T08:45:12Z</time>
      </trkpt>
      <trkpt lat="46.01458" lon="6.49168">
        <ele>2248.66</ele>
        <time>2015-08-30T08:45:27Z</time>
      </trkpt>
      <trkpt lat="46.0146" lon="6.49166">
        <ele>2250.58</ele>
        <time>2015-08-30T08:45:42Z</time>
      </trkpt>
      <trkpt lat="46.01464" lon="6.49162">
        <ele>2252.51</ele>
        <time>2015-08-30T08:45:55Z</time>
      </trkpt>
      <trkpt lat="46.01465" lon="6.49162">
        <ele>2252.99</ele>
        <time>2015-08-30T08:46:05Z</time>
      </trkpt>
      <trkpt lat="46.01465" lon="6.49161">
        <ele>2252.99</ele>
        <time>2015-08-30T08:46:08Z</time>
      </trkpt>
      <trkpt lat="46.01466" lon="6.49161">
        <ele>2253.95</ele>
        <time>2015-08-30T08:46:20Z</time>
      </trkpt>
      <trkpt lat="46.01466" lon="6.49161">
        <ele>2253.95</ele>
        <time>2015-08-30T08:46:41Z</time>
      </trkpt>
      <trkpt lat="46.0147" lon="6.49158">
        <ele>2254.91</ele>
        <time>2015-08-30T08:46:56Z</time>
      </trkpt>
      <trkpt lat="46.01476" lon="6.49155">
        <ele>2256.83</ele>
        <time>2015-08-30T08:47:09Z</time>
      </trkpt>
      <trkpt lat="46.01484" lon="6.49153">
        <ele>2259.24</ele>
        <time>2015-08-30T08:47:24Z</time>
      </trkpt>
      <trkpt lat="46.01491" lon="6.49151">
        <ele>2260.68</ele>
        <time>2015-08-30T08:47:39Z</time>
      </trkpt>
      <trkpt lat="46.01499" lon="6.49151">
        <ele>2263.08</ele>
        <time>2015-08-30T08:47:58Z</time>
      </trkpt>
      <trkpt lat="46.01501" lon="6.49158">
        <ele>2265.96</ele>
        <time>2015-08-30T08:48:11Z</time>
      </trkpt>
      <trkpt lat="46.01501" lon="6.49169">
        <ele>2268.37</ele>
        <time>2015-08-30T08:48:27Z</time>
      </trkpt>
      <trkpt lat="46.01501" lon="6.4918">
        <ele>2270.77</ele>
        <time>2015-08-30T08:48:42Z</time>
      </trkpt>
      <trkpt lat="46.01502" lon="6.49194">
        <ele>2273.17</ele>
        <time>2015-08-30T08:48:57Z</time>
      </trkpt>
      <trkpt lat="46.01508" lon="6.49186">
        <ele>2274.14</ele>
        <time>2015-08-30T08:49:09Z</time>
      </trkpt>
      <trkpt lat="46.01514" lon="6.49185">
        <ele>2272.69</ele>
        <time>2015-08-30T08:49:14Z</time>
      </trkpt>
      <trkpt lat="46.01518" lon="6.49183">
        <ele>2272.69</ele>
        <time>2015-08-30T08:49:18Z</time>
      </trkpt>
      <trkpt lat="46.01521" lon="6.49184">
        <ele>2272.69</ele>
        <time>2015-08-30T08:49:21Z</time>
      </trkpt>
      <trkpt lat="46.01528" lon="6.49183">
        <ele>2274.14</ele>
        <time>2015-08-30T08:49:30Z</time>
      </trkpt>
      <trkpt lat="46.01536" lon="6.49186">
        <ele>2276.54</ele>
        <time>2015-08-30T08:49:43Z</time>
      </trkpt>
      <trkpt lat="46.0154" lon="6.49193">
        <ele>2278.94</ele>
        <time>2015-08-30T08:49:58Z</time>
      </trkpt>
      <trkpt lat="46.01549" lon="6.492">
        <ele>2281.35</ele>
        <time>2015-08-30T08:50:13Z</time>
      </trkpt>
      <trkpt lat="46.01558" lon="6.49206">
        <ele>2282.79</ele>
        <time>2015-08-30T08:50:27Z</time>
      </trkpt>
      <trkpt lat="46.01566" lon="6.49208">
        <ele>2285.19</ele>
        <time>2015-08-30T08:50:41Z</time>
      </trkpt>
      <trkpt lat="46.01571" lon="6.49216">
        <ele>2287.59</ele>
        <time>2015-08-30T08:50:54Z</time>
      </trkpt>
      <trkpt lat="46.01577" lon="6.49223">
        <ele>2290</ele>
        <time>2015-08-30T08:51:09Z</time>
      </trkpt>
      <trkpt lat="46.01577" lon="6.49226">
        <ele>2290</ele>
        <time>2015-08-30T08:51:11Z</time>
      </trkpt>
      <trkpt lat="46.0158" lon="6.49233">
        <ele>2291.92</ele>
        <time>2015-08-30T08:51:25Z</time>
      </trkpt>
      <trkpt lat="46.01581" lon="6.4924">
        <ele>2292.88</ele>
        <time>2015-08-30T08:51:37Z</time>
      </trkpt>
      <trkpt lat="46.01582" lon="6.49239">
        <ele>2291.44</ele>
        <time>2015-08-30T08:51:54Z</time>
      </trkpt>
      <trkpt lat="46.01582" lon="6.49239">
        <ele>2291.44</ele>
        <time>2015-08-30T08:51:55Z</time>
      </trkpt>
      <trkpt lat="46.0158" lon="6.49236">
        <ele>2291.44</ele>
        <time>2015-08-30T08:52:44Z</time>
      </trkpt>
      <trkpt lat="46.0158" lon="6.49237">
        <ele>2291.44</ele>
        <time>2015-08-30T08:53:27Z</time>
      </trkpt>
      <trkpt lat="46.01581" lon="6.49238">
        <ele>2292.4</ele>
        <time>2015-08-30T08:53:41Z</time>
      </trkpt>
      <trkpt lat="46.01581" lon="6.49239">
        <ele>2293.36</ele>
        <time>2015-08-30T08:54:03Z</time>
      </trkpt>
      <trkpt lat="46.01582" lon="6.49239">
        <ele>2291.44</ele>
        <time>2015-08-30T08:54:05Z</time>
      </trkpt>
      <trkpt lat="46.0158" lon="6.49239">
        <ele>2291.44</ele>
        <time>2015-08-30T08:54:48Z</time>
      </trkpt>
      <trkpt lat="46.01581" lon="6.49239">
        <ele>2291.92</ele>
        <time>2015-08-30T08:55:23Z</time>
      </trkpt>
      <trkpt lat="46.01581" lon="6.4924">
        <ele>2292.88</ele>
        <time>2015-08-30T08:56:08Z</time>
      </trkpt>
      <trkpt lat="46.01581" lon="6.4924">
        <ele>2293.36</ele>
        <time>2015-08-30T08:56:47Z</time>
      </trkpt>
      <trkpt lat="46.01581" lon="6.4924">
        <ele>2293.36</ele>
        <time>2015-08-30T08:57:25Z</time>
      </trkpt>
      <trkpt lat="46.0158" lon="6.49239">
        <ele>2293.36</ele>
        <time>2015-08-30T08:58:10Z</time>
      </trkpt>
      <trkpt lat="46.0158" lon="6.4924">
        <ele>2293.36</ele>
        <time>2015-08-30T08:58:45Z</time>
      </trkpt>
      <trkpt lat="46.0158" lon="6.4924">
        <ele>2293.84</ele>
        <time>2015-08-30T08:59:31Z</time>
      </trkpt>
      <trkpt lat="46.01581" lon="6.4924">
        <ele>2293.84</ele>
        <time>2015-08-30T09:00:09Z</time>
      </trkpt>
      <trkpt lat="46.01581" lon="6.49239">
        <ele>2293.84</ele>
        <time>2015-08-30T09:00:28Z</time>
      </trkpt>
      <trkpt lat="46.01581" lon="6.49239">
        <ele>2290.48</ele>
        <time>2015-08-30T09:00:29Z</time>
      </trkpt>
      <trkpt lat="46.01581" lon="6.49239">
        <ele>2295.28</ele>
        <time>2015-08-30T09:00:30Z</time>
      </trkpt>
      <trkpt lat="46.01582" lon="6.49239">
        <ele>2292.88</ele>
        <time>2015-08-30T09:00:41Z</time>
      </trkpt>
      <trkpt lat="46.01582" lon="6.49238">
        <ele>2294.8</ele>
        <time>2015-08-30T09:01:03Z</time>
      </trkpt>
      <trkpt lat="46.01582" lon="6.49239">
        <ele>2293.36</ele>
        <time>2015-08-30T09:01:24Z</time>
      </trkpt>
      <trkpt lat="46.01582" lon="6.49238">
        <ele>2292.88</ele>
        <time>2015-08-30T09:01:47Z</time>
      </trkpt>
      <trkpt lat="46.01581" lon="6.4924">
        <ele>2293.84</ele>
        <time>2015-08-30T09:02:32Z</time>
      </trkpt>
      <trkpt lat="46.01582" lon="6.4924">
        <ele>2293.84</ele>
        <time>2015-08-30T09:03:13Z</time>
      </trkpt>
      <trkpt lat="46.01581" lon="6.4924">
        <ele>2293.84</ele>
        <time>2015-08-30T09:04:03Z</time>
      </trkpt>
      <trkpt lat="46.01582" lon="6.4924">
        <ele>2293.84</ele>
        <time>2015-08-30T09:04:52Z</time>
      </trkpt>
      <trkpt lat="46.01582" lon="6.4924">
        <ele>2293.84</ele>
        <time>2015-08-30T09:05:32Z</time>
      </trkpt>
      <trkpt lat="46.01582" lon="6.4924">
        <ele>2293.84</ele>
        <time>2015-08-30T09:06:20Z</time>
      </trkpt>
      <trkpt lat="46.01582" lon="6.49241">
        <ele>2293.84</ele>
        <time>2015-08-30T09:07:03Z</time>
      </trkpt>
      <trkpt lat="46.01583" lon="6.49241">
        <ele>2293.84</ele>
        <time>2015-08-30T09:07:46Z</time>
      </trkpt>
      <trkpt lat="46.01583" lon="6.49242">
        <ele>2293.84</ele>
        <time>2015-08-30T09:08:34Z</time>
      </trkpt>
      <trkpt lat="46.01584" lon="6.49241">
        <ele>2293.84</ele>
        <time>2015-08-30T09:09:18Z</time>
      </trkpt>
      <trkpt lat="46.01584" lon="6.49242">
        <ele>2294.32</ele>
        <time>2015-08-30T09:10:02Z</time>
      </trkpt>
      <trkpt lat="46.01584" lon="6.49242">
        <ele>2294.32</ele>
        <time>2015-08-30T09:10:45Z</time>
      </trkpt>
      <trkpt lat="46.01585" lon="6.49242">
        <ele>2294.32</ele>
        <time>2015-08-30T09:11:30Z</time>
      </trkpt>
      <trkpt lat="46.01584" lon="6.49242">
        <ele>2294.32</ele>
        <time>2015-08-30T09:12:12Z</time>
      </trkpt>
      <trkpt lat="46.01584" lon="6.49242">
        <ele>2294.32</ele>
        <time>2015-08-30T09:12:58Z</time>
      </trkpt>
      <trkpt lat="46.01584" lon="6.49241">
        <ele>2294.8</ele>
        <time>2015-08-30T09:13:40Z</time>
      </trkpt>
      <trkpt lat="46.01583" lon="6.49242">
        <ele>2294.8</ele>
        <time>2015-08-30T09:14:28Z</time>
      </trkpt>
      <trkpt lat="46.01584" lon="6.49241">
        <ele>2294.8</ele>
        <time>2015-08-30T09:15:07Z</time>
      </trkpt>
      <trkpt lat="46.01584" lon="6.49241">
        <ele>2294.8</ele>
        <time>2015-08-30T09:15:55Z</time>
      </trkpt>
      <trkpt lat="46.01584" lon="6.49241">
        <ele>2294.8</ele>
        <time>2015-08-30T09:16:42Z</time>
      </trkpt>
      <trkpt lat="46.01584" lon="6.49242">
        <ele>2294.8</ele>
        <time>2015-08-30T09:17:24Z</time>
      </trkpt>
      <trkpt lat="46.01585" lon="6.49242">
        <ele>2293.84</ele>
        <time>2015-08-30T09:18:09Z</time>
      </trkpt>
      <trkpt lat="46.01585" lon="6.49241">
        <ele>2293.84</ele>
        <time>2015-08-30T09:19:00Z</time>
      </trkpt>
      <trkpt lat="46.01585" lon="6.49241">
        <ele>2293.84</ele>
        <time>2015-08-30T09:19:42Z</time>
      </trkpt>
      <trkpt lat="46.01585" lon="6.49241">
        <ele>2293.84</ele>
        <time>2015-08-30T09:20:27Z</time>
      </trkpt>
      <trkpt lat="46.01585" lon="6.49242">
        <ele>2293.84</ele>
        <time>2015-08-30T09:21:10Z</time>
      </trkpt>
      <trkpt lat="46.01585" lon="6.4924">
        <ele>2293.84</ele>
        <time>2015-08-30T09:21:50Z</time>
      </trkpt>
      <trkpt lat="46.01585" lon="6.4924">
        <ele>2293.36</ele>
        <time>2015-08-30T09:22:28Z</time>
      </trkpt>
      <trkpt lat="46.01585" lon="6.4924">
        <ele>2293.36</ele>
        <time>2015-08-30T09:23:12Z</time>
      </trkpt>
      <trkpt lat="46.01585" lon="6.4924">
        <ele>2293.36</ele>
        <time>2015-08-30T09:23:49Z</time>
      </trkpt>
      <trkpt lat="46.01584" lon="6.4924">
        <ele>2293.36</ele>
        <time>2015-08-30T09:24:37Z</time>
      </trkpt>
      <trkpt lat="46.01585" lon="6.49239">
        <ele>2293.36</ele>
        <time>2015-08-30T09:25:14Z</time>
      </trkpt>
      <trkpt lat="46.01584" lon="6.4924">
        <ele>2293.36</ele>
        <time>2015-08-30T09:25:56Z</time>
      </trkpt>
      <trkpt lat="46.01584" lon="6.49239">
        <ele>2292.88</ele>
        <time>2015-08-30T09:26:32Z</time>
      </trkpt>
      <trkpt lat="46.01584" lon="6.4924">
        <ele>2292.88</ele>
        <time>2015-08-30T09:27:05Z</time>
      </trkpt>
      <trkpt lat="46.01585" lon="6.4924">
        <ele>2292.88</ele>
        <time>2015-08-30T09:27:44Z</time>
      </trkpt>
      <trkpt lat="46.01585" lon="6.4924">
        <ele>2292.88</ele>
        <time>2015-08-30T09:28:26Z</time>
      </trkpt>
      <trkpt lat="46.01584" lon="6.4924">
        <ele>2292.88</ele>
        <time>2015-08-30T09:28:59Z</time>
      </trkpt>
      <trkpt lat="46.01584" lon="6.4924">
        <ele>2292.88</ele>
        <time>2015-08-30T09:29:33Z</time>
      </trkpt>
      <trkpt lat="46.01585" lon="6.49241">
        <ele>2292.88</ele>
        <time>2015-08-30T09:30:16Z</time>
      </trkpt>
      <trkpt lat="46.01584" lon="6.4924">
        <ele>2292.88</ele>
        <time>2015-08-30T09:30:54Z</time>
      </trkpt>
      <trkpt lat="46.01584" lon="6.4924">
        <ele>2292.88</ele>
        <time>2015-08-30T09:31:29Z</time>
      </trkpt>
      <trkpt lat="46.01584" lon="6.4924">
        <ele>2292.88</ele>
        <time>2015-08-30T09:32:14Z</time>
      </trkpt>
      <trkpt lat="46.01584" lon="6.4924">
        <ele>2292.88</ele>
        <time>2015-08-30T09:32:44Z</time>
      </trkpt>
      <trkpt lat="46.01584" lon="6.49241">
        <ele>2292.88</ele>
        <time>2015-08-30T09:33:20Z</time>
      </trkpt>
      <trkpt lat="46.01584" lon="6.49241">
        <ele>2292.88</ele>
        <time>2015-08-30T09:33:48Z</time>
      </trkpt>
      <trkpt lat="46.01584" lon="6.49241">
        <ele>2292.88</ele>
        <time>2015-08-30T09:34:25Z</time>
      </trkpt>
      <trkpt lat="46.01584" lon="6.49241">
        <ele>2292.88</ele>
        <time>2015-08-30T09:35:04Z</time>
      </trkpt>
      <trkpt lat="46.01584" lon="6.49239">
        <ele>2292.88</ele>
        <time>2015-08-30T09:35:45Z</time>
      </trkpt>
      <trkpt lat="46.01584" lon="6.49239">
        <ele>2292.88</ele>
        <time>2015-08-30T09:36:25Z</time>
      </trkpt>
      <trkpt lat="46.01584" lon="6.49239">
        <ele>2292.88</ele>
        <time>2015-08-30T09:37:04Z</time>
      </trkpt>
      <trkpt lat="46.01584" lon="6.4924">
        <ele>2292.88</ele>
        <time>2015-08-30T09:37:50Z</time>
      </trkpt>
      <trkpt lat="46.01585" lon="6.4924">
        <ele>2292.88</ele>
        <time>2015-08-30T09:38:34Z</time>
      </trkpt>
      <trkpt lat="46.01584" lon="6.49241">
        <ele>2292.88</ele>
        <time>2015-08-30T09:39:20Z</time>
      </trkpt>
      <trkpt lat="46.01585" lon="6.49241">
        <ele>2292.88</ele>
        <time>2015-08-30T09:40:08Z</time>
      </trkpt>
      <trkpt lat="46.01584" lon="6.49241">
        <ele>2292.88</ele>
        <time>2015-08-30T09:40:51Z</time>
      </trkpt>
      <trkpt lat="46.01584" lon="6.4924">
        <ele>2292.88</ele>
        <time>2015-08-30T09:41:32Z</time>
      </trkpt>
      <trkpt lat="46.01584" lon="6.4924">
        <ele>2292.88</ele>
        <time>2015-08-30T09:42:08Z</time>
      </trkpt>
      <trkpt lat="46.01585" lon="6.4924">
        <ele>2292.88</ele>
        <time>2015-08-30T09:42:53Z</time>
      </trkpt>
      <trkpt lat="46.01584" lon="6.49239">
        <ele>2292.88</ele>
        <time>2015-08-30T09:43:35Z</time>
      </trkpt>
      <trkpt lat="46.01584" lon="6.49239">
        <ele>2292.88</ele>
        <time>2015-08-30T09:44:17Z</time>
      </trkpt>
      <trkpt lat="46.01584" lon="6.49239">
        <ele>2293.36</ele>
        <time>2015-08-30T09:45:02Z</time>
      </trkpt>
      <trkpt lat="46.01584" lon="6.49239">
        <ele>2293.36</ele>
        <time>2015-08-30T09:45:45Z</time>
      </trkpt>
      <trkpt lat="46.01586" lon="6.4924">
        <ele>2293.36</ele>
        <time>2015-08-30T09:46:28Z</time>
      </trkpt>
      <trkpt lat="46.01587" lon="6.49241">
        <ele>2293.36</ele>
        <time>2015-08-30T09:47:11Z</time>
      </trkpt>
      <trkpt lat="46.01586" lon="6.49241">
        <ele>2293.36</ele>
        <time>2015-08-30T09:47:52Z</time>
      </trkpt>
      <trkpt lat="46.01587" lon="6.49241">
        <ele>2293.36</ele>
        <time>2015-08-30T09:48:40Z</time>
      </trkpt>
      <trkpt lat="46.01587" lon="6.49242">
        <ele>2293.36</ele>
        <time>2015-08-30T09:49:22Z</time>
      </trkpt>
      <trkpt lat="46.01587" lon="6.49241">
        <ele>2293.36</ele>
        <time>2015-08-30T09:50:02Z</time>
      </trkpt>
      <trkpt lat="46.01587" lon="6.49241">
        <ele>2293.36</ele>
        <time>2015-08-30T09:50:47Z</time>
      </trkpt>
      <trkpt lat="46.01586" lon="6.49242">
        <ele>2293.36</ele>
        <time>2015-08-30T09:51:38Z</time>
      </trkpt>
      <trkpt lat="46.01586" lon="6.49241">
        <ele>2293.36</ele>
        <time>2015-08-30T09:52:17Z</time>
      </trkpt>
      <trkpt lat="46.01586" lon="6.49241">
        <ele>2293.36</ele>
        <time>2015-08-30T09:52:59Z</time>
      </trkpt>
      <trkpt lat="46.01586" lon="6.49242">
        <ele>2293.36</ele>
        <time>2015-08-30T09:53:45Z</time>
      </trkpt>
      <trkpt lat="46.01586" lon="6.49242">
        <ele>2293.36</ele>
        <time>2015-08-30T09:54:23Z</time>
      </trkpt>
      <trkpt lat="46.01586" lon="6.49242">
        <ele>2293.36</ele>
        <time>2015-08-30T09:55:13Z</time>
      </trkpt>
      <trkpt lat="46.01585" lon="6.49241">
        <ele>2293.36</ele>
        <time>2015-08-30T09:55:58Z</time>
      </trkpt>
      <trkpt lat="46.01584" lon="6.4924">
        <ele>2293.36</ele>
        <time>2015-08-30T09:56:37Z</time>
      </trkpt>
      <trkpt lat="46.01584" lon="6.49241">
        <ele>2293.36</ele>
        <time>2015-08-30T09:56:43Z</time>
      </trkpt>
      <trkpt lat="46.01583" lon="6.49239">
        <ele>2292.88</ele>
        <time>2015-08-30T09:57:07Z</time>
      </trkpt>
      <trkpt lat="46.01583" lon="6.49239">
        <ele>2293.84</ele>
        <time>2015-08-30T09:57:18Z</time>
      </trkpt>
      <trkpt lat="46.01583" lon="6.49238">
        <ele>2293.84</ele>
        <time>2015-08-30T09:57:49Z</time>
      </trkpt>
      <trkpt lat="46.01585" lon="6.49239">
        <ele>2293.84</ele>
        <time>2015-08-30T09:58:26Z</time>
      </trkpt>
      <trkpt lat="46.01584" lon="6.49238">
        <ele>2292.88</ele>
        <time>2015-08-30T09:59:12Z</time>
      </trkpt>
      <trkpt lat="46.01583" lon="6.49238">
        <ele>2292.88</ele>
        <time>2015-08-30T09:59:30Z</time>
      </trkpt>
      <trkpt lat="46.01583" lon="6.49239">
        <ele>2292.88</ele>
        <time>2015-08-30T10:00:12Z</time>
      </trkpt>
      <trkpt lat="46.01583" lon="6.49242">
        <ele>2292.88</ele>
        <time>2015-08-30T10:00:48Z</time>
      </trkpt>
      <trkpt lat="46.01583" lon="6.49242">
        <ele>2293.36</ele>
        <time>2015-08-30T10:01:21Z</time>
      </trkpt>
      <trkpt lat="46.01583" lon="6.49242">
        <ele>2293.36</ele>
        <time>2015-08-30T10:02:01Z</time>
      </trkpt>
      <trkpt lat="46.01583" lon="6.49242">
        <ele>2293.36</ele>
        <time>2015-08-30T10:02:43Z</time>
      </trkpt>
      <trkpt lat="46.01583" lon="6.49242">
        <ele>2293.84</ele>
        <time>2015-08-30T10:03:17Z</time>
      </trkpt>
      <trkpt lat="46.01583" lon="6.4924">
        <ele>2295.28</ele>
        <time>2015-08-30T10:03:43Z</time>
      </trkpt>
      <trkpt lat="46.01584" lon="6.49239">
        <ele>2295.77</ele>
        <time>2015-08-30T10:04:03Z</time>
      </trkpt>
      <trkpt lat="46.01583" lon="6.49244">
        <ele>2295.77</ele>
        <time>2015-08-30T10:04:17Z</time>
      </trkpt>
      <trkpt lat="46.01585" lon="6.49245">
        <ele>2295.77</ele>
        <time>2015-08-30T10:04:39Z</time>
      </trkpt>
      <trkpt lat="46.01584" lon="6.49249">
        <ele>2294.8</ele>
        <time>2015-08-30T10:04:51Z</time>
      </trkpt>
      <trkpt lat="46.01586" lon="6.49254">
        <ele>2293.84</ele>
        <time>2015-08-30T10:05:05Z</time>
      </trkpt>
      <trkpt lat="46.01592" lon="6.4927">
        <ele>2292.4</ele>
        <time>2015-08-30T10:05:19Z</time>
      </trkpt>
      <trkpt lat="46.01595" lon="6.49277">
        <ele>2293.84</ele>
        <time>2015-08-30T10:05:27Z</time>
      </trkpt>
      <trkpt lat="46.01598" lon="6.49287">
        <ele>2294.32</ele>
        <time>2015-08-30T10:05:39Z</time>
      </trkpt>
      <trkpt lat="46.01602" lon="6.49296">
        <ele>2295.28</ele>
        <time>2015-08-30T10:05:54Z</time>
      </trkpt>
      <trkpt lat="46.01598" lon="6.493">
        <ele>2296.25</ele>
        <time>2015-08-30T10:06:05Z</time>
      </trkpt>
      <trkpt lat="46.01591" lon="6.49311">
        <ele>2297.21</ele>
        <time>2015-08-30T10:06:20Z</time>
      </trkpt>
      <trkpt lat="46.01587" lon="6.49322">
        <ele>2297.69</ele>
        <time>2015-08-30T10:06:32Z</time>
      </trkpt>
      <trkpt lat="46.01584" lon="6.49332">
        <ele>2298.17</ele>
        <time>2015-08-30T10:06:44Z</time>
      </trkpt>
      <trkpt lat="46.01583" lon="6.49342">
        <ele>2298.17</ele>
        <time>2015-08-30T10:06:55Z</time>
      </trkpt>
      <trkpt lat="46.0158" lon="6.4935">
        <ele>2296.73</ele>
        <time>2015-08-30T10:07:07Z</time>
      </trkpt>
      <trkpt lat="46.01579" lon="6.49351">
        <ele>2296.73</ele>
        <time>2015-08-30T10:07:26Z</time>
      </trkpt>
      <trkpt lat="46.01578" lon="6.49352">
        <ele>2297.21</ele>
        <time>2015-08-30T10:07:57Z</time>
      </trkpt>
      <trkpt lat="46.01581" lon="6.49355">
        <ele>2297.21</ele>
        <time>2015-08-30T10:08:23Z</time>
      </trkpt>
      <trkpt lat="46.01582" lon="6.49355">
        <ele>2296.73</ele>
        <time>2015-08-30T10:08:42Z</time>
      </trkpt>
      <trkpt lat="46.01584" lon="6.49362">
        <ele>2296.73</ele>
        <time>2015-08-30T10:08:55Z</time>
      </trkpt>
      <trkpt lat="46.01583" lon="6.49363">
        <ele>2296.73</ele>
        <time>2015-08-30T10:09:12Z</time>
      </trkpt>
      <trkpt lat="46.01583" lon="6.49363">
        <ele>2296.73</ele>
        <time>2015-08-30T10:09:37Z</time>
      </trkpt>
      <trkpt lat="46.01583" lon="6.49363">
        <ele>2296.73</ele>
        <time>2015-08-30T10:09:55Z</time>
      </trkpt>
      <trkpt lat="46.01585" lon="6.49367">
        <ele>2296.73</ele>
        <time>2015-08-30T10:10:07Z</time>
      </trkpt>
      <trkpt lat="46.01586" lon="6.49376">
        <ele>2295.77</ele>
        <time>2015-08-30T10:10:18Z</time>
      </trkpt>
      <trkpt lat="46.01586" lon="6.49377">
        <ele>2295.77</ele>
        <time>2015-08-30T10:10:32Z</time>
      </trkpt>
      <trkpt lat="46.01589" lon="6.49381">
        <ele>2295.28</ele>
        <time>2015-08-30T10:10:43Z</time>
      </trkpt>
      <trkpt lat="46.01592" lon="6.49387">
        <ele>2294.8</ele>
        <time>2015-08-30T10:10:50Z</time>
      </trkpt>
      <trkpt lat="46.01592" lon="6.49391">
        <ele>2293.36</ele>
        <time>2015-08-30T10:10:53Z</time>
      </trkpt>
      <trkpt lat="46.01593" lon="6.49395">
        <ele>2293.36</ele>
        <time>2015-08-30T10:10:57Z</time>
      </trkpt>
      <trkpt lat="46.01595" lon="6.49397">
        <ele>2293.36</ele>
        <time>2015-08-30T10:10:59Z</time>
      </trkpt>
      <trkpt lat="46.01594" lon="6.49406">
        <ele>2293.36</ele>
        <time>2015-08-30T10:11:12Z</time>
      </trkpt>
      <trkpt lat="46.01595" lon="6.49417">
        <ele>2293.36</ele>
        <time>2015-08-30T10:11:25Z</time>
      </trkpt>
      <trkpt lat="46.01595" lon="6.49418">
        <ele>2293.36</ele>
        <time>2015-08-30T10:11:26Z</time>
      </trkpt>
      <trkpt lat="46.01599" lon="6.49435">
        <ele>2292.4</ele>
        <time>2015-08-30T10:11:41Z</time>
      </trkpt>
      <trkpt lat="46.01599" lon="6.4944">
        <ele>2291.92</ele>
        <time>2015-08-30T10:11:45Z</time>
      </trkpt>
      <trkpt lat="46.01601" lon="6.49446">
        <ele>2291.44</ele>
        <time>2015-08-30T10:11:51Z</time>
      </trkpt>
      <trkpt lat="46.01602" lon="6.49449">
        <ele>2291.44</ele>
        <time>2015-08-30T10:11:53Z</time>
      </trkpt>
      <trkpt lat="46.01605" lon="6.49457">
        <ele>2290</ele>
        <time>2015-08-30T10:12:00Z</time>
      </trkpt>
      <trkpt lat="46.01606" lon="6.49463">
        <ele>2290</ele>
        <time>2015-08-30T10:12:05Z</time>
      </trkpt>
      <trkpt lat="46.01606" lon="6.49471">
        <ele>2289.04</ele>
        <time>2015-08-30T10:12:11Z</time>
      </trkpt>
      <trkpt lat="46.01603" lon="6.49488">
        <ele>2288.08</ele>
        <time>2015-08-30T10:12:24Z</time>
      </trkpt>
      <trkpt lat="46.01608" lon="6.49511">
        <ele>2287.59</ele>
        <time>2015-08-30T10:12:39Z</time>
      </trkpt>
      <trkpt lat="46.01609" lon="6.49517">
        <ele>2287.11</ele>
        <time>2015-08-30T10:12:51Z</time>
      </trkpt>
      <trkpt lat="46.01611" lon="6.49525">
        <ele>2286.63</ele>
        <time>2015-08-30T10:13:04Z</time>
      </trkpt>
      <trkpt lat="46.01612" lon="6.49527">
        <ele>2286.63</ele>
        <time>2015-08-30T10:13:06Z</time>
      </trkpt>
      <trkpt lat="46.01619" lon="6.4953">
        <ele>2285.67</ele>
        <time>2015-08-30T10:13:21Z</time>
      </trkpt>
      <trkpt lat="46.0162" lon="6.49532">
        <ele>2284.71</ele>
        <time>2015-08-30T10:13:25Z</time>
      </trkpt>
      <trkpt lat="46.01622" lon="6.4954">
        <ele>2284.23</ele>
        <time>2015-08-30T10:13:33Z</time>
      </trkpt>
      <trkpt lat="46.01621" lon="6.49553">
        <ele>2284.23</ele>
        <time>2015-08-30T10:13:44Z</time>
      </trkpt>
      <trkpt lat="46.01621" lon="6.49557">
        <ele>2284.23</ele>
        <time>2015-08-30T10:13:47Z</time>
      </trkpt>
      <trkpt lat="46.01623" lon="6.49563">
        <ele>2283.27</ele>
        <time>2015-08-30T10:14:02Z</time>
      </trkpt>
      <trkpt lat="46.01626" lon="6.49563">
        <ele>2281.83</ele>
        <time>2015-08-30T10:14:10Z</time>
      </trkpt>
      <trkpt lat="46.01636" lon="6.49574">
        <ele>2281.35</ele>
        <time>2015-08-30T10:14:23Z</time>
      </trkpt>
      <trkpt lat="46.0164" lon="6.49582">
        <ele>2280.87</ele>
        <time>2015-08-30T10:14:29Z</time>
      </trkpt>
      <trkpt lat="46.01649" lon="6.496">
        <ele>2277.5</ele>
        <time>2015-08-30T10:14:44Z</time>
      </trkpt>
      <trkpt lat="46.01655" lon="6.49613">
        <ele>2276.54</ele>
        <time>2015-08-30T10:14:57Z</time>
      </trkpt>
      <trkpt lat="46.01662" lon="6.49629">
        <ele>2275.1</ele>
        <time>2015-08-30T10:15:11Z</time>
      </trkpt>
      <trkpt lat="46.01669" lon="6.49647">
        <ele>2272.69</ele>
        <time>2015-08-30T10:15:27Z</time>
      </trkpt>
      <trkpt lat="46.01673" lon="6.49657">
        <ele>2270.29</ele>
        <time>2015-08-30T10:15:35Z</time>
      </trkpt>
      <trkpt lat="46.01675" lon="6.49659">
        <ele>2269.81</ele>
        <time>2015-08-30T10:15:49Z</time>
      </trkpt>
      <trkpt lat="46.01674" lon="6.4966">
        <ele>2269.81</ele>
        <time>2015-08-30T10:16:14Z</time>
      </trkpt>
      <trkpt lat="46.01674" lon="6.4966">
        <ele>2269.81</ele>
        <time>2015-08-30T10:16:39Z</time>
      </trkpt>
      <trkpt lat="46.01677" lon="6.49663">
        <ele>2269.33</ele>
        <time>2015-08-30T10:17:07Z</time>
      </trkpt>
      <trkpt lat="46.01679" lon="6.49666">
        <ele>2268.85</ele>
        <time>2015-08-30T10:17:23Z</time>
      </trkpt>
      <trkpt lat="46.01681" lon="6.49673">
        <ele>2266.93</ele>
        <time>2015-08-30T10:17:45Z</time>
      </trkpt>
      <trkpt lat="46.01687" lon="6.49685">
        <ele>2265</ele>
        <time>2015-08-30T10:18:00Z</time>
      </trkpt>
      <trkpt lat="46.0169" lon="6.49699">
        <ele>2263.08</ele>
        <time>2015-08-30T10:18:13Z</time>
      </trkpt>
      <trkpt lat="46.01699" lon="6.49708">
        <ele>2261.16</ele>
        <time>2015-08-30T10:18:27Z</time>
      </trkpt>
      <trkpt lat="46.01706" lon="6.49724">
        <ele>2258.27</ele>
        <time>2015-08-30T10:18:44Z</time>
      </trkpt>
      <trkpt lat="46.01714" lon="6.49738">
        <ele>2254.91</ele>
        <time>2015-08-30T10:19:00Z</time>
      </trkpt>
      <trkpt lat="46.01718" lon="6.49745">
        <ele>2253.47</ele>
        <time>2015-08-30T10:19:12Z</time>
      </trkpt>
      <trkpt lat="46.01727" lon="6.49762">
        <ele>2250.58</ele>
        <time>2015-08-30T10:19:27Z</time>
      </trkpt>
      <trkpt lat="46.01728" lon="6.49764">
        <ele>2250.58</ele>
        <time>2015-08-30T10:19:30Z</time>
      </trkpt>
      <trkpt lat="46.01731" lon="6.4977">
        <ele>2249.62</ele>
        <time>2015-08-30T10:19:45Z</time>
      </trkpt>
      <trkpt lat="46.01737" lon="6.49781">
        <ele>2246.74</ele>
        <time>2015-08-30T10:19:59Z</time>
      </trkpt>
      <trkpt lat="46.01738" lon="6.49791">
        <ele>2245.78</ele>
        <time>2015-08-30T10:20:12Z</time>
      </trkpt>
      <trkpt lat="46.01741" lon="6.49797">
        <ele>2244.82</ele>
        <time>2015-08-30T10:20:30Z</time>
      </trkpt>
      <trkpt lat="46.01744" lon="6.49806">
        <ele>2243.85</ele>
        <time>2015-08-30T10:20:46Z</time>
      </trkpt>
      <trkpt lat="46.01748" lon="6.49815">
        <ele>2241.45</ele>
        <time>2015-08-30T10:20:59Z</time>
      </trkpt>
      <trkpt lat="46.01752" lon="6.49823">
        <ele>2239.05</ele>
        <time>2015-08-30T10:21:14Z</time>
      </trkpt>
      <trkpt lat="46.01751" lon="6.49832">
        <ele>2238.57</ele>
        <time>2015-08-30T10:21:26Z</time>
      </trkpt>
      <trkpt lat="46.01753" lon="6.49839">
        <ele>2236.16</ele>
        <time>2015-08-30T10:21:38Z</time>
      </trkpt>
      <trkpt lat="46.01753" lon="6.4984">
        <ele>2235.68</ele>
        <time>2015-08-30T10:21:55Z</time>
      </trkpt>
      <trkpt lat="46.01755" lon="6.4984">
        <ele>2235.68</ele>
        <time>2015-08-30T10:22:05Z</time>
      </trkpt>
      <trkpt lat="46.0176" lon="6.49848">
        <ele>2233.76</ele>
        <time>2015-08-30T10:22:17Z</time>
      </trkpt>
      <trkpt lat="46.01762" lon="6.4985">
        <ele>2233.28</ele>
        <time>2015-08-30T10:22:29Z</time>
      </trkpt>
      <trkpt lat="46.01768" lon="6.4986">
        <ele>2231.36</ele>
        <time>2015-08-30T10:22:42Z</time>
      </trkpt>
      <trkpt lat="46.0177" lon="6.49866">
        <ele>2230.4</ele>
        <time>2015-08-30T10:23:00Z</time>
      </trkpt>
      <trkpt lat="46.01768" lon="6.49863">
        <ele>2229.92</ele>
        <time>2015-08-30T10:23:22Z</time>
      </trkpt>
      <trkpt lat="46.01766" lon="6.49855">
        <ele>2231.36</ele>
        <time>2015-08-30T10:23:35Z</time>
      </trkpt>
      <trkpt lat="46.01768" lon="6.49854">
        <ele>2230.88</ele>
        <time>2015-08-30T10:23:45Z</time>
      </trkpt>
      <trkpt lat="46.0177" lon="6.49852">
        <ele>2230.88</ele>
        <time>2015-08-30T10:24:07Z</time>
      </trkpt>
      <trkpt lat="46.01771" lon="6.49853">
        <ele>2230.88</ele>
        <time>2015-08-30T10:24:33Z</time>
      </trkpt>
      <trkpt lat="46.0177" lon="6.49853">
        <ele>2230.88</ele>
        <time>2015-08-30T10:24:50Z</time>
      </trkpt>
      <trkpt lat="46.01772" lon="6.49854">
        <ele>2229.92</ele>
        <time>2015-08-30T10:25:06Z</time>
      </trkpt>
      <trkpt lat="46.01773" lon="6.49857">
        <ele>2229.43</ele>
        <time>2015-08-30T10:25:22Z</time>
      </trkpt>
      <trkpt lat="46.01776" lon="6.49862">
        <ele>2228.47</ele>
        <time>2015-08-30T10:25:37Z</time>
      </trkpt>
      <trkpt lat="46.01778" lon="6.49872">
        <ele>2226.55</ele>
        <time>2015-08-30T10:25:50Z</time>
      </trkpt>
      <trkpt lat="46.01777" lon="6.49884">
        <ele>2225.59</ele>
        <time>2015-08-30T10:26:04Z</time>
      </trkpt>
      <trkpt lat="46.01777" lon="6.49888">
        <ele>2224.63</ele>
        <time>2015-08-30T10:26:18Z</time>
      </trkpt>
      <trkpt lat="46.01777" lon="6.4989">
        <ele>2224.15</ele>
        <time>2015-08-30T10:26:29Z</time>
      </trkpt>
      <trkpt lat="46.01775" lon="6.49888">
        <ele>2224.15</ele>
        <time>2015-08-30T10:26:40Z</time>
      </trkpt>
      <trkpt lat="46.01775" lon="6.49895">
        <ele>2223.67</ele>
        <time>2015-08-30T10:26:54Z</time>
      </trkpt>
      <trkpt lat="46.01775" lon="6.49898">
        <ele>2223.67</ele>
        <time>2015-08-30T10:27:13Z</time>
      </trkpt>
      <trkpt lat="46.01774" lon="6.49897">
        <ele>2223.67</ele>
        <time>2015-08-30T10:27:42Z</time>
      </trkpt>
      <trkpt lat="46.01774" lon="6.49898">
        <ele>2223.19</ele>
        <time>2015-08-30T10:28:04Z</time>
      </trkpt>
      <trkpt lat="46.01775" lon="6.49899">
        <ele>2223.19</ele>
        <time>2015-08-30T10:28:27Z</time>
      </trkpt>
      <trkpt lat="46.01774" lon="6.49898">
        <ele>2223.19</ele>
        <time>2015-08-30T10:28:54Z</time>
      </trkpt>
      <trkpt lat="46.01777" lon="6.49902">
        <ele>2222.22</ele>
        <time>2015-08-30T10:29:16Z</time>
      </trkpt>
      <trkpt lat="46.01781" lon="6.49906">
        <ele>2221.26</ele>
        <time>2015-08-30T10:29:22Z</time>
      </trkpt>
      <trkpt lat="46.01784" lon="6.49917">
        <ele>2218.38</ele>
        <time>2015-08-30T10:29:34Z</time>
      </trkpt>
      <trkpt lat="46.01788" lon="6.49923">
        <ele>2215.98</ele>
        <time>2015-08-30T10:29:47Z</time>
      </trkpt>
      <trkpt lat="46.01792" lon="6.49928">
        <ele>2213.57</ele>
        <time>2015-08-30T10:30:03Z</time>
      </trkpt>
      <trkpt lat="46.01794" lon="6.49936">
        <ele>2210.69</ele>
        <time>2015-08-30T10:30:13Z</time>
      </trkpt>
      <trkpt lat="46.01794" lon="6.49937">
        <ele>2210.69</ele>
        <time>2015-08-30T10:30:14Z</time>
      </trkpt>
      <trkpt lat="46.01795" lon="6.49943">
        <ele>2208.29</ele>
        <time>2015-08-30T10:30:27Z</time>
      </trkpt>
      <trkpt lat="46.01795" lon="6.49945">
        <ele>2207.81</ele>
        <time>2015-08-30T10:30:32Z</time>
      </trkpt>
      <trkpt lat="46.01799" lon="6.49951">
        <ele>2205.88</ele>
        <time>2015-08-30T10:30:44Z</time>
      </trkpt>
      <trkpt lat="46.01799" lon="6.49957">
        <ele>2204.44</ele>
        <time>2015-08-30T10:30:58Z</time>
      </trkpt>
      <trkpt lat="46.018" lon="6.49958">
        <ele>2205.4</ele>
        <time>2015-08-30T10:31:02Z</time>
      </trkpt>
      <trkpt lat="46.01801" lon="6.4996">
        <ele>2206.84</ele>
        <time>2015-08-30T10:31:06Z</time>
      </trkpt>
      <trkpt lat="46.01803" lon="6.49968">
        <ele>2205.4</ele>
        <time>2015-08-30T10:31:17Z</time>
      </trkpt>
      <trkpt lat="46.01806" lon="6.49972">
        <ele>2203.96</ele>
        <time>2015-08-30T10:31:28Z</time>
      </trkpt>
      <trkpt lat="46.01811" lon="6.49975">
        <ele>2203.48</ele>
        <time>2015-08-30T10:31:41Z</time>
      </trkpt>
      <trkpt lat="46.01812" lon="6.49976">
        <ele>2203</ele>
        <time>2015-08-30T10:31:57Z</time>
      </trkpt>
      <trkpt lat="46.01813" lon="6.49976">
        <ele>2203</ele>
        <time>2015-08-30T10:32:18Z</time>
      </trkpt>
      <trkpt lat="46.01813" lon="6.49977">
        <ele>2202.04</ele>
        <time>2015-08-30T10:32:35Z</time>
      </trkpt>
      <trkpt lat="46.01814" lon="6.49978">
        <ele>2201.56</ele>
        <time>2015-08-30T10:32:39Z</time>
      </trkpt>
      <trkpt lat="46.01818" lon="6.49979">
        <ele>2203</ele>
        <time>2015-08-30T10:32:47Z</time>
      </trkpt>
      <trkpt lat="46.01821" lon="6.49979">
        <ele>2203</ele>
        <time>2015-08-30T10:32:57Z</time>
      </trkpt>
      <trkpt lat="46.01826" lon="6.49978">
        <ele>2203</ele>
        <time>2015-08-30T10:33:04Z</time>
      </trkpt>
      <trkpt lat="46.01827" lon="6.49977">
        <ele>2203</ele>
        <time>2015-08-30T10:33:06Z</time>
      </trkpt>
      <trkpt lat="46.01834" lon="6.49982">
        <ele>2204.44</ele>
        <time>2015-08-30T10:33:16Z</time>
      </trkpt>
      <trkpt lat="46.0184" lon="6.49986">
        <ele>2205.4</ele>
        <time>2015-08-30T10:33:26Z</time>
      </trkpt>
      <trkpt lat="46.01842" lon="6.49989">
        <ele>2206.84</ele>
        <time>2015-08-30T10:33:37Z</time>
      </trkpt>
      <trkpt lat="46.01844" lon="6.49993">
        <ele>2207.81</ele>
        <time>2015-08-30T10:33:49Z</time>
      </trkpt>
      <trkpt lat="46.01848" lon="6.49998">
        <ele>2210.21</ele>
        <time>2015-08-30T10:34:04Z</time>
      </trkpt>
      <trkpt lat="46.01849" lon="6.50001">
        <ele>2210.21</ele>
        <time>2015-08-30T10:34:07Z</time>
      </trkpt>
      <trkpt lat="46.01851" lon="6.50012">
        <ele>2210.69</ele>
        <time>2015-08-30T10:34:14Z</time>
      </trkpt>
      <trkpt lat="46.01851" lon="6.50025">
        <ele>2210.69</ele>
        <time>2015-08-30T10:34:22Z</time>
      </trkpt>
      <trkpt lat="46.01853" lon="6.50028">
        <ele>2210.69</ele>
        <time>2015-08-30T10:34:25Z</time>
      </trkpt>
      <trkpt lat="46.01852" lon="6.50031">
        <ele>2209.25</ele>
        <time>2015-08-30T10:34:27Z</time>
      </trkpt>
      <trkpt lat="46.01852" lon="6.50035">
        <ele>2209.25</ele>
        <time>2015-08-30T10:34:30Z</time>
      </trkpt>
      <trkpt lat="46.01852" lon="6.50041">
        <ele>2209.25</ele>
        <time>2015-08-30T10:34:34Z</time>
      </trkpt>
      <trkpt lat="46.0185" lon="6.50056">
        <ele>2208.29</ele>
        <time>2015-08-30T10:34:47Z</time>
      </trkpt>
      <trkpt lat="46.01847" lon="6.50075">
        <ele>2207.81</ele>
        <time>2015-08-30T10:35:02Z</time>
      </trkpt>
      <trkpt lat="46.01842" lon="6.5009">
        <ele>2207.81</ele>
        <time>2015-08-30T10:35:14Z</time>
      </trkpt>
      <trkpt lat="46.01838" lon="6.50099">
        <ele>2207.81</ele>
        <time>2015-08-30T10:35:20Z</time>
      </trkpt>
      <trkpt lat="46.01837" lon="6.50107">
        <ele>2207.81</ele>
        <time>2015-08-30T10:35:25Z</time>
      </trkpt>
      <trkpt lat="46.01831" lon="6.50117">
        <ele>2207.81</ele>
        <time>2015-08-30T10:35:41Z</time>
      </trkpt>
      <trkpt lat="46.01831" lon="6.50125">
        <ele>2207.81</ele>
        <time>2015-08-30T10:35:47Z</time>
      </trkpt>
      <trkpt lat="46.01827" lon="6.50148">
        <ele>2206.36</ele>
        <time>2015-08-30T10:36:04Z</time>
      </trkpt>
      <trkpt lat="46.01828" lon="6.50151">
        <ele>2206.36</ele>
        <time>2015-08-30T10:36:06Z</time>
      </trkpt>
      <trkpt lat="46.0182" lon="6.50167">
        <ele>2204.44</ele>
        <time>2015-08-30T10:36:21Z</time>
      </trkpt>
      <trkpt lat="46.01815" lon="6.50179">
        <ele>2202.04</ele>
        <time>2015-08-30T10:36:32Z</time>
      </trkpt>
      <trkpt lat="46.01811" lon="6.50188">
        <ele>2200.59</ele>
        <time>2015-08-30T10:36:42Z</time>
      </trkpt>
      <trkpt lat="46.01809" lon="6.5019">
        <ele>2199.63</ele>
        <time>2015-08-30T10:36:44Z</time>
      </trkpt>
      <trkpt lat="46.01804" lon="6.50201">
        <ele>2198.19</ele>
        <time>2015-08-30T10:36:54Z</time>
      </trkpt>
      <trkpt lat="46.01804" lon="6.50216">
        <ele>2199.15</ele>
        <time>2015-08-30T10:37:04Z</time>
      </trkpt>
      <trkpt lat="46.01807" lon="6.50225">
        <ele>2201.08</ele>
        <time>2015-08-30T10:37:16Z</time>
      </trkpt>
      <trkpt lat="46.01808" lon="6.50231">
        <ele>2203.96</ele>
        <time>2015-08-30T10:37:30Z</time>
      </trkpt>
      <trkpt lat="46.0181" lon="6.50237">
        <ele>2206.36</ele>
        <time>2015-08-30T10:37:42Z</time>
      </trkpt>
      <trkpt lat="46.01812" lon="6.50249">
        <ele>2206.36</ele>
        <time>2015-08-30T10:37:56Z</time>
      </trkpt>
      <trkpt lat="46.01811" lon="6.50257">
        <ele>2204.92</ele>
        <time>2015-08-30T10:38:08Z</time>
      </trkpt>
      <trkpt lat="46.01812" lon="6.50263">
        <ele>2203.48</ele>
        <time>2015-08-30T10:38:18Z</time>
      </trkpt>
      <trkpt lat="46.01814" lon="6.50266">
        <ele>2202.52</ele>
        <time>2015-08-30T10:38:26Z</time>
      </trkpt>
      <trkpt lat="46.01815" lon="6.5027">
        <ele>2200.11</ele>
        <time>2015-08-30T10:38:35Z</time>
      </trkpt>
      <trkpt lat="46.01817" lon="6.50278">
        <ele>2198.67</ele>
        <time>2015-08-30T10:38:47Z</time>
      </trkpt>
      <trkpt lat="46.01819" lon="6.50284">
        <ele>2197.23</ele>
        <time>2015-08-30T10:38:58Z</time>
      </trkpt>
      <trkpt lat="46.01822" lon="6.50286">
        <ele>2193.87</ele>
        <time>2015-08-30T10:39:07Z</time>
      </trkpt>
      <trkpt lat="46.01822" lon="6.50286">
        <ele>2193.87</ele>
        <time>2015-08-30T10:39:08Z</time>
      </trkpt>
      <trkpt lat="46.01823" lon="6.50289">
        <ele>2192.42</ele>
        <time>2015-08-30T10:39:18Z</time>
      </trkpt>
      <trkpt lat="46.01825" lon="6.50293">
        <ele>2189.54</ele>
        <time>2015-08-30T10:39:29Z</time>
      </trkpt>
      <trkpt lat="46.01827" lon="6.50296">
        <ele>2188.1</ele>
        <time>2015-08-30T10:39:42Z</time>
      </trkpt>
      <trkpt lat="46.01829" lon="6.50301">
        <ele>2185.69</ele>
        <time>2015-08-30T10:39:53Z</time>
      </trkpt>
      <trkpt lat="46.01826" lon="6.50309">
        <ele>2184.73</ele>
        <time>2015-08-30T10:40:04Z</time>
      </trkpt>
      <trkpt lat="46.01824" lon="6.50316">
        <ele>2182.81</ele>
        <time>2015-08-30T10:40:16Z</time>
      </trkpt>
      <trkpt lat="46.01825" lon="6.50322">
        <ele>2182.33</ele>
        <time>2015-08-30T10:40:39Z</time>
      </trkpt>
      <trkpt lat="46.01825" lon="6.50325">
        <ele>2182.33</ele>
        <time>2015-08-30T10:40:41Z</time>
      </trkpt>
      <trkpt lat="46.01826" lon="6.50328">
        <ele>2181.37</ele>
        <time>2015-08-30T10:40:44Z</time>
      </trkpt>
      <trkpt lat="46.01827" lon="6.50346">
        <ele>2178.97</ele>
        <time>2015-08-30T10:40:57Z</time>
      </trkpt>
      <trkpt lat="46.01837" lon="6.50357">
        <ele>2177.52</ele>
        <time>2015-08-30T10:41:09Z</time>
      </trkpt>
      <trkpt lat="46.01847" lon="6.50361">
        <ele>2176.08</ele>
        <time>2015-08-30T10:41:22Z</time>
      </trkpt>
      <trkpt lat="46.01849" lon="6.50362">
        <ele>2176.08</ele>
        <time>2015-08-30T10:41:25Z</time>
      </trkpt>
      <trkpt lat="46.01857" lon="6.50361">
        <ele>2178</ele>
        <time>2015-08-30T10:41:37Z</time>
      </trkpt>
      <trkpt lat="46.01865" lon="6.50365">
        <ele>2179.45</ele>
        <time>2015-08-30T10:41:49Z</time>
      </trkpt>
      <trkpt lat="46.01868" lon="6.50372">
        <ele>2178.97</ele>
        <time>2015-08-30T10:42:02Z</time>
      </trkpt>
      <trkpt lat="46.01877" lon="6.50373">
        <ele>2178</ele>
        <time>2015-08-30T10:42:15Z</time>
      </trkpt>
      <trkpt lat="46.01883" lon="6.50377">
        <ele>2177.52</ele>
        <time>2015-08-30T10:42:26Z</time>
      </trkpt>
      <trkpt lat="46.01889" lon="6.50391">
        <ele>2176.56</ele>
        <time>2015-08-30T10:42:40Z</time>
      </trkpt>
      <trkpt lat="46.01897" lon="6.50397">
        <ele>2174.64</ele>
        <time>2015-08-30T10:42:51Z</time>
      </trkpt>
      <trkpt lat="46.01904" lon="6.50413">
        <ele>2173.68</ele>
        <time>2015-08-30T10:43:04Z</time>
      </trkpt>
      <trkpt lat="46.0191" lon="6.50421">
        <ele>2171.76</ele>
        <time>2015-08-30T10:43:17Z</time>
      </trkpt>
      <trkpt lat="46.01916" lon="6.50421">
        <ele>2170.31</ele>
        <time>2015-08-30T10:43:30Z</time>
      </trkpt>
      <trkpt lat="46.01922" lon="6.50426">
        <ele>2167.91</ele>
        <time>2015-08-30T10:43:43Z</time>
      </trkpt>
      <trkpt lat="46.01925" lon="6.50428">
        <ele>2167.91</ele>
        <time>2015-08-30T10:43:58Z</time>
      </trkpt>
      <trkpt lat="46.01927" lon="6.50429">
        <ele>2166.95</ele>
        <time>2015-08-30T10:44:11Z</time>
      </trkpt>
      <trkpt lat="46.01929" lon="6.50431">
        <ele>2165.51</ele>
        <time>2015-08-30T10:44:24Z</time>
      </trkpt>
      <trkpt lat="46.01931" lon="6.50434">
        <ele>2164.06</ele>
        <time>2015-08-30T10:44:36Z</time>
      </trkpt>
      <trkpt lat="46.01933" lon="6.50438">
        <ele>2164.06</ele>
        <time>2015-08-30T10:44:55Z</time>
      </trkpt>
      <trkpt lat="46.01933" lon="6.50444">
        <ele>2163.1</ele>
        <time>2015-08-30T10:45:05Z</time>
      </trkpt>
      <trkpt lat="46.01934" lon="6.50446">
        <ele>2162.62</ele>
        <time>2015-08-30T10:45:25Z</time>
      </trkpt>
      <trkpt lat="46.01937" lon="6.50449">
        <ele>2161.18</ele>
        <time>2015-08-30T10:45:39Z</time>
      </trkpt>
      <trkpt lat="46.01938" lon="6.50448">
        <ele>2161.18</ele>
        <time>2015-08-30T10:45:56Z</time>
      </trkpt>
      <trkpt lat="46.01938" lon="6.50453">
        <ele>2159.74</ele>
        <time>2015-08-30T10:46:13Z</time>
      </trkpt>
      <trkpt lat="46.01939" lon="6.50454">
        <ele>2159.74</ele>
        <time>2015-08-30T10:46:31Z</time>
      </trkpt>
      <trkpt lat="46.01937" lon="6.50453">
        <ele>2159.74</ele>
        <time>2015-08-30T10:46:49Z</time>
      </trkpt>
      <trkpt lat="46.01936" lon="6.50454">
        <ele>2159.74</ele>
        <time>2015-08-30T10:47:20Z</time>
      </trkpt>
      <trkpt lat="46.01936" lon="6.50454">
        <ele>2159.74</ele>
        <time>2015-08-30T10:47:49Z</time>
      </trkpt>
      <trkpt lat="46.01935" lon="6.50453">
        <ele>2159.74</ele>
        <time>2015-08-30T10:48:10Z</time>
      </trkpt>
      <trkpt lat="46.01935" lon="6.50452">
        <ele>2159.74</ele>
        <time>2015-08-30T10:48:36Z</time>
      </trkpt>
      <trkpt lat="46.01937" lon="6.50449">
        <ele>2159.26</ele>
        <time>2015-08-30T10:49:17Z</time>
      </trkpt>
      <trkpt lat="46.01941" lon="6.50452">
        <ele>2158.78</ele>
        <time>2015-08-30T10:49:31Z</time>
      </trkpt>
      <trkpt lat="46.01943" lon="6.50452">
        <ele>2158.3</ele>
        <time>2015-08-30T10:49:47Z</time>
      </trkpt>
      <trkpt lat="46.01943" lon="6.50456">
        <ele>2157.82</ele>
        <time>2015-08-30T10:50:03Z</time>
      </trkpt>
      <trkpt lat="46.01946" lon="6.50464">
        <ele>2154.93</ele>
        <time>2015-08-30T10:50:16Z</time>
      </trkpt>
      <trkpt lat="46.01946" lon="6.50471">
        <ele>2153.97</ele>
        <time>2015-08-30T10:50:32Z</time>
      </trkpt>
      <trkpt lat="46.01946" lon="6.50471">
        <ele>2152.53</ele>
        <time>2015-08-30T10:50:43Z</time>
      </trkpt>
      <trkpt lat="46.01948" lon="6.50471">
        <ele>2150.61</ele>
        <time>2015-08-30T10:50:54Z</time>
      </trkpt>
      <trkpt lat="46.01949" lon="6.50476">
        <ele>2149.16</ele>
        <time>2015-08-30T10:51:13Z</time>
      </trkpt>
      <trkpt lat="46.01951" lon="6.50486">
        <ele>2147.24</ele>
        <time>2015-08-30T10:51:25Z</time>
      </trkpt>
      <trkpt lat="46.01952" lon="6.50496">
        <ele>2147.24</ele>
        <time>2015-08-30T10:51:39Z</time>
      </trkpt>
      <trkpt lat="46.01952" lon="6.50497">
        <ele>2147.24</ele>
        <time>2015-08-30T10:51:40Z</time>
      </trkpt>
      <trkpt lat="46.01952" lon="6.50503">
        <ele>2147.24</ele>
        <time>2015-08-30T10:51:52Z</time>
      </trkpt>
      <trkpt lat="46.01956" lon="6.50511">
        <ele>2148.2</ele>
        <time>2015-08-30T10:52:03Z</time>
      </trkpt>
      <trkpt lat="46.01956" lon="6.50522">
        <ele>2149.65</ele>
        <time>2015-08-30T10:52:17Z</time>
      </trkpt>
      <trkpt lat="46.01951" lon="6.50531">
        <ele>2149.65</ele>
        <time>2015-08-30T10:52:28Z</time>
      </trkpt>
      <trkpt lat="46.01951" lon="6.50533">
        <ele>2148.68</ele>
        <time>2015-08-30T10:52:30Z</time>
      </trkpt>
      <trkpt lat="46.01946" lon="6.50549">
        <ele>2148.68</ele>
        <time>2015-08-30T10:52:43Z</time>
      </trkpt>
      <trkpt lat="46.01945" lon="6.50551">
        <ele>2149.65</ele>
        <time>2015-08-30T10:52:45Z</time>
      </trkpt>
      <trkpt lat="46.01944" lon="6.50562">
        <ele>2151.57</ele>
        <time>2015-08-30T10:52:55Z</time>
      </trkpt>
      <trkpt lat="46.01943" lon="6.50574">
        <ele>2153.01</ele>
        <time>2015-08-30T10:53:08Z</time>
      </trkpt>
      <trkpt lat="46.01943" lon="6.50579">
        <ele>2153.01</ele>
        <time>2015-08-30T10:53:13Z</time>
      </trkpt>
      <trkpt lat="46.01947" lon="6.50593">
        <ele>2150.61</ele>
        <time>2015-08-30T10:53:28Z</time>
      </trkpt>
      <trkpt lat="46.01951" lon="6.50599">
        <ele>2148.2</ele>
        <time>2015-08-30T10:53:41Z</time>
      </trkpt>
      <trkpt lat="46.01954" lon="6.50599">
        <ele>2145.8</ele>
        <time>2015-08-30T10:53:53Z</time>
      </trkpt>
      <trkpt lat="46.01958" lon="6.50603">
        <ele>2143.4</ele>
        <time>2015-08-30T10:54:04Z</time>
      </trkpt>
      <trkpt lat="46.01963" lon="6.50607">
        <ele>2141.95</ele>
        <time>2015-08-30T10:54:15Z</time>
      </trkpt>
      <trkpt lat="46.01968" lon="6.50615">
        <ele>2140.03</ele>
        <time>2015-08-30T10:54:28Z</time>
      </trkpt>
      <trkpt lat="46.01972" lon="6.50623">
        <ele>2138.11</ele>
        <time>2015-08-30T10:54:39Z</time>
      </trkpt>
      <trkpt lat="46.01975" lon="6.50631">
        <ele>2137.15</ele>
        <time>2015-08-30T10:54:51Z</time>
      </trkpt>
      <trkpt lat="46.01976" lon="6.50636">
        <ele>2135.71</ele>
        <time>2015-08-30T10:55:04Z</time>
      </trkpt>
      <trkpt lat="46.01979" lon="6.50642">
        <ele>2133.78</ele>
        <time>2015-08-30T10:55:16Z</time>
      </trkpt>
      <trkpt lat="46.01983" lon="6.50647">
        <ele>2131.38</ele>
        <time>2015-08-30T10:55:28Z</time>
      </trkpt>
      <trkpt lat="46.0199" lon="6.50651">
        <ele>2128.98</ele>
        <time>2015-08-30T10:55:40Z</time>
      </trkpt>
      <trkpt lat="46.01994" lon="6.50656">
        <ele>2128.98</ele>
        <time>2015-08-30T10:55:54Z</time>
      </trkpt>
      <trkpt lat="46.01995" lon="6.50662">
        <ele>2128.5</ele>
        <time>2015-08-30T10:56:09Z</time>
      </trkpt>
      <trkpt lat="46.01997" lon="6.50663">
        <ele>2128.02</ele>
        <time>2015-08-30T10:56:28Z</time>
      </trkpt>
      <trkpt lat="46.01997" lon="6.50667">
        <ele>2127.53</ele>
        <time>2015-08-30T10:56:50Z</time>
      </trkpt>
      <trkpt lat="46.02001" lon="6.50676">
        <ele>2124.17</ele>
        <time>2015-08-30T10:57:03Z</time>
      </trkpt>
      <trkpt lat="46.02003" lon="6.50686">
        <ele>2125.61</ele>
        <time>2015-08-30T10:57:18Z</time>
      </trkpt>
      <trkpt lat="46.02006" lon="6.50696">
        <ele>2127.05</ele>
        <time>2015-08-30T10:57:30Z</time>
      </trkpt>
      <trkpt lat="46.02011" lon="6.50703">
        <ele>2128.5</ele>
        <time>2015-08-30T10:57:43Z</time>
      </trkpt>
      <trkpt lat="46.02016" lon="6.50706">
        <ele>2131.38</ele>
        <time>2015-08-30T10:57:56Z</time>
      </trkpt>
      <trkpt lat="46.02018" lon="6.50712">
        <ele>2132.34</ele>
        <time>2015-08-30T10:58:05Z</time>
      </trkpt>
      <trkpt lat="46.02009" lon="6.50726">
        <ele>2130.9</ele>
        <time>2015-08-30T10:58:21Z</time>
      </trkpt>
      <trkpt lat="46.02008" lon="6.50737">
        <ele>2128.98</ele>
        <time>2015-08-30T10:58:31Z</time>
      </trkpt>
      <trkpt lat="46.02009" lon="6.50741">
        <ele>2127.53</ele>
        <time>2015-08-30T10:58:35Z</time>
      </trkpt>
      <trkpt lat="46.02013" lon="6.50753">
        <ele>2124.17</ele>
        <time>2015-08-30T10:58:49Z</time>
      </trkpt>
      <trkpt lat="46.02016" lon="6.50762">
        <ele>2121.29</ele>
        <time>2015-08-30T10:59:01Z</time>
      </trkpt>
      <trkpt lat="46.02017" lon="6.50771">
        <ele>2119.36</ele>
        <time>2015-08-30T10:59:12Z</time>
      </trkpt>
      <trkpt lat="46.0202" lon="6.50781">
        <ele>2116.96</ele>
        <time>2015-08-30T10:59:25Z</time>
      </trkpt>
      <trkpt lat="46.02021" lon="6.50789">
        <ele>2114.08</ele>
        <time>2015-08-30T10:59:36Z</time>
      </trkpt>
      <trkpt lat="46.02025" lon="6.50789">
        <ele>2112.63</ele>
        <time>2015-08-30T10:59:51Z</time>
      </trkpt>
      <trkpt lat="46.02026" lon="6.50792">
        <ele>2110.71</ele>
        <time>2015-08-30T11:00:02Z</time>
      </trkpt>
      <trkpt lat="46.02031" lon="6.50795">
        <ele>2106.87</ele>
        <time>2015-08-30T11:00:15Z</time>
      </trkpt>
      <trkpt lat="46.02031" lon="6.50798">
        <ele>2104.46</ele>
        <time>2015-08-30T11:00:26Z</time>
      </trkpt>
      <trkpt lat="46.02033" lon="6.50803">
        <ele>2102.54</ele>
        <time>2015-08-30T11:00:37Z</time>
      </trkpt>
      <trkpt lat="46.02033" lon="6.50804">
        <ele>2101.58</ele>
        <time>2015-08-30T11:00:49Z</time>
      </trkpt>
      <trkpt lat="46.02032" lon="6.50804">
        <ele>2101.1</ele>
        <time>2015-08-30T11:01:17Z</time>
      </trkpt>
      <trkpt lat="46.02032" lon="6.50803">
        <ele>2101.1</ele>
        <time>2015-08-30T11:01:41Z</time>
      </trkpt>
      <trkpt lat="46.02031" lon="6.50802">
        <ele>2101.1</ele>
        <time>2015-08-30T11:02:13Z</time>
      </trkpt>
      <trkpt lat="46.02032" lon="6.50803">
        <ele>2100.62</ele>
        <time>2015-08-30T11:02:41Z</time>
      </trkpt>
      <trkpt lat="46.02036" lon="6.50811">
        <ele>2097.73</ele>
        <time>2015-08-30T11:02:59Z</time>
      </trkpt>
      <trkpt lat="46.02037" lon="6.50812">
        <ele>2095.81</ele>
        <time>2015-08-30T11:03:13Z</time>
      </trkpt>
      <trkpt lat="46.02038" lon="6.50812">
        <ele>2092.93</ele>
        <time>2015-08-30T11:03:30Z</time>
      </trkpt>
      <trkpt lat="46.02041" lon="6.50811">
        <ele>2092.93</ele>
        <time>2015-08-30T11:03:49Z</time>
      </trkpt>
      <trkpt lat="46.02041" lon="6.5081">
        <ele>2092.45</ele>
        <time>2015-08-30T11:04:04Z</time>
      </trkpt>
      <trkpt lat="46.02043" lon="6.50813">
        <ele>2090.04</ele>
        <time>2015-08-30T11:04:22Z</time>
      </trkpt>
      <trkpt lat="46.02045" lon="6.50816">
        <ele>2088.6</ele>
        <time>2015-08-30T11:04:35Z</time>
      </trkpt>
      <trkpt lat="46.02046" lon="6.50819">
        <ele>2087.16</ele>
        <time>2015-08-30T11:04:52Z</time>
      </trkpt>
      <trkpt lat="46.02045" lon="6.5082">
        <ele>2087.16</ele>
        <time>2015-08-30T11:05:11Z</time>
      </trkpt>
      <trkpt lat="46.02044" lon="6.50823">
        <ele>2086.2</ele>
        <time>2015-08-30T11:05:27Z</time>
      </trkpt>
      <trkpt lat="46.02045" lon="6.50821">
        <ele>2084.76</ele>
        <time>2015-08-30T11:05:41Z</time>
      </trkpt>
      <trkpt lat="46.02046" lon="6.50821">
        <ele>2082.83</ele>
        <time>2015-08-30T11:05:51Z</time>
      </trkpt>
      <trkpt lat="46.02045" lon="6.50825">
        <ele>2079.95</ele>
        <time>2015-08-30T11:06:05Z</time>
      </trkpt>
      <trkpt lat="46.02046" lon="6.50829">
        <ele>2077.55</ele>
        <time>2015-08-30T11:06:19Z</time>
      </trkpt>
      <trkpt lat="46.02048" lon="6.50833">
        <ele>2075.62</ele>
        <time>2015-08-30T11:06:28Z</time>
      </trkpt>
      <trkpt lat="46.02052" lon="6.50834">
        <ele>2074.66</ele>
        <time>2015-08-30T11:06:40Z</time>
      </trkpt>
      <trkpt lat="46.02058" lon="6.5083">
        <ele>2073.22</ele>
        <time>2015-08-30T11:06:49Z</time>
      </trkpt>
      <trkpt lat="46.02064" lon="6.50826">
        <ele>2074.66</ele>
        <time>2015-08-30T11:07:02Z</time>
      </trkpt>
      <trkpt lat="46.02069" lon="6.50825">
        <ele>2072.74</ele>
        <time>2015-08-30T11:07:15Z</time>
      </trkpt>
      <trkpt lat="46.0207" lon="6.50825">
        <ele>2072.74</ele>
        <time>2015-08-30T11:07:16Z</time>
      </trkpt>
      <trkpt lat="46.02076" lon="6.50825">
        <ele>2070.82</ele>
        <time>2015-08-30T11:07:28Z</time>
      </trkpt>
      <trkpt lat="46.02081" lon="6.50826">
        <ele>2069.86</ele>
        <time>2015-08-30T11:07:40Z</time>
      </trkpt>
      <trkpt lat="46.02085" lon="6.50828">
        <ele>2067.45</ele>
        <time>2015-08-30T11:07:51Z</time>
      </trkpt>
      <trkpt lat="46.02091" lon="6.50831">
        <ele>2065.05</ele>
        <time>2015-08-30T11:08:07Z</time>
      </trkpt>
      <trkpt lat="46.02093" lon="6.50837">
        <ele>2063.13</ele>
        <time>2015-08-30T11:08:19Z</time>
      </trkpt>
      <trkpt lat="46.02094" lon="6.50846">
        <ele>2060.72</ele>
        <time>2015-08-30T11:08:31Z</time>
      </trkpt>
      <trkpt lat="46.02099" lon="6.50848">
        <ele>2057.84</ele>
        <time>2015-08-30T11:08:45Z</time>
      </trkpt>
      <trkpt lat="46.02102" lon="6.50849">
        <ele>2055.44</ele>
        <time>2015-08-30T11:08:55Z</time>
      </trkpt>
      <trkpt lat="46.02103" lon="6.50851">
        <ele>2054.47</ele>
        <time>2015-08-30T11:08:59Z</time>
      </trkpt>
      <trkpt lat="46.02105" lon="6.50855">
        <ele>2051.11</ele>
        <time>2015-08-30T11:09:11Z</time>
      </trkpt>
      <trkpt lat="46.02108" lon="6.50855">
        <ele>2049.67</ele>
        <time>2015-08-30T11:09:24Z</time>
      </trkpt>
      <trkpt lat="46.0211" lon="6.50855">
        <ele>2047.75</ele>
        <time>2015-08-30T11:09:38Z</time>
      </trkpt>
      <trkpt lat="46.02112" lon="6.50861">
        <ele>2044.38</ele>
        <time>2015-08-30T11:09:50Z</time>
      </trkpt>
      <trkpt lat="46.02114" lon="6.50867">
        <ele>2041.98</ele>
        <time>2015-08-30T11:10:02Z</time>
      </trkpt>
      <trkpt lat="46.02116" lon="6.50873">
        <ele>2039.09</ele>
        <time>2015-08-30T11:10:17Z</time>
      </trkpt>
      <trkpt lat="46.02121" lon="6.50879">
        <ele>2037.17</ele>
        <time>2015-08-30T11:10:31Z</time>
      </trkpt>
      <trkpt lat="46.02121" lon="6.50884">
        <ele>2035.73</ele>
        <time>2015-08-30T11:10:43Z</time>
      </trkpt>
      <trkpt lat="46.02122" lon="6.50889">
        <ele>2033.33</ele>
        <time>2015-08-30T11:10:54Z</time>
      </trkpt>
      <trkpt lat="46.02124" lon="6.50893">
        <ele>2031.4</ele>
        <time>2015-08-30T11:11:06Z</time>
      </trkpt>
      <trkpt lat="46.02124" lon="6.509">
        <ele>2028.52</ele>
        <time>2015-08-30T11:11:20Z</time>
      </trkpt>
      <trkpt lat="46.02123" lon="6.50901">
        <ele>2027.08</ele>
        <time>2015-08-30T11:11:32Z</time>
      </trkpt>
      <trkpt lat="46.02122" lon="6.50903">
        <ele>2025.15</ele>
        <time>2015-08-30T11:11:46Z</time>
      </trkpt>
      <trkpt lat="46.02125" lon="6.50906">
        <ele>2023.71</ele>
        <time>2015-08-30T11:11:58Z</time>
      </trkpt>
      <trkpt lat="46.02125" lon="6.50909">
        <ele>2023.71</ele>
        <time>2015-08-30T11:12:41Z</time>
      </trkpt>
      <trkpt lat="46.02126" lon="6.50908">
        <ele>2023.23</ele>
        <time>2015-08-30T11:12:53Z</time>
      </trkpt>
      <trkpt lat="46.02128" lon="6.50907">
        <ele>2020.83</ele>
        <time>2015-08-30T11:13:07Z</time>
      </trkpt>
      <trkpt lat="46.02131" lon="6.50909">
        <ele>2019.39</ele>
        <time>2015-08-30T11:13:22Z</time>
      </trkpt>
      <trkpt lat="46.02134" lon="6.50915">
        <ele>2017.46</ele>
        <time>2015-08-30T11:13:33Z</time>
      </trkpt>
      <trkpt lat="46.02136" lon="6.50921">
        <ele>2015.06</ele>
        <time>2015-08-30T11:13:44Z</time>
      </trkpt>
      <trkpt lat="46.02139" lon="6.50925">
        <ele>2012.18</ele>
        <time>2015-08-30T11:13:56Z</time>
      </trkpt>
      <trkpt lat="46.02142" lon="6.50931">
        <ele>2009.77</ele>
        <time>2015-08-30T11:14:09Z</time>
      </trkpt>
      <trkpt lat="46.02145" lon="6.5093">
        <ele>2007.85</ele>
        <time>2015-08-30T11:14:23Z</time>
      </trkpt>
      <trkpt lat="46.02152" lon="6.50935">
        <ele>2004.97</ele>
        <time>2015-08-30T11:14:37Z</time>
      </trkpt>
      <trkpt lat="46.02155" lon="6.50939">
        <ele>2001.6</ele>
        <time>2015-08-30T11:14:47Z</time>
      </trkpt>
      <trkpt lat="46.02158" lon="6.50949">
        <ele>1999.2</ele>
        <time>2015-08-30T11:15:01Z</time>
      </trkpt>
      <trkpt lat="46.02161" lon="6.50951">
        <ele>1998.24</ele>
        <time>2015-08-30T11:15:07Z</time>
      </trkpt>
      <trkpt lat="46.02162" lon="6.50957">
        <ele>1997.76</ele>
        <time>2015-08-30T11:15:12Z</time>
      </trkpt>
      <trkpt lat="46.02164" lon="6.50966">
        <ele>1996.32</ele>
        <time>2015-08-30T11:15:25Z</time>
      </trkpt>
      <trkpt lat="46.0216" lon="6.5097">
        <ele>1994.39</ele>
        <time>2015-08-30T11:15:35Z</time>
      </trkpt>
      <trkpt lat="46.02159" lon="6.5097">
        <ele>1993.91</ele>
        <time>2015-08-30T11:15:50Z</time>
      </trkpt>
      <trkpt lat="46.02156" lon="6.50976">
        <ele>1993.43</ele>
        <time>2015-08-30T11:16:08Z</time>
      </trkpt>
      <trkpt lat="46.02158" lon="6.50971">
        <ele>1993.43</ele>
        <time>2015-08-30T11:16:31Z</time>
      </trkpt>
      <trkpt lat="46.02158" lon="6.50971">
        <ele>1993.43</ele>
        <time>2015-08-30T11:16:57Z</time>
      </trkpt>
      <trkpt lat="46.02158" lon="6.50971">
        <ele>1993.43</ele>
        <time>2015-08-30T11:17:21Z</time>
      </trkpt>
      <trkpt lat="46.02158" lon="6.50971">
        <ele>1993.43</ele>
        <time>2015-08-30T11:17:45Z</time>
      </trkpt>
      <trkpt lat="46.02158" lon="6.5097">
        <ele>1993.43</ele>
        <time>2015-08-30T11:18:02Z</time>
      </trkpt>
      <trkpt lat="46.02159" lon="6.50976">
        <ele>1991.51</ele>
        <time>2015-08-30T11:18:22Z</time>
      </trkpt>
      <trkpt lat="46.02161" lon="6.5098">
        <ele>1989.1</ele>
        <time>2015-08-30T11:18:33Z</time>
      </trkpt>
      <trkpt lat="46.02162" lon="6.50984">
        <ele>1987.18</ele>
        <time>2015-08-30T11:18:44Z</time>
      </trkpt>
      <trkpt lat="46.02164" lon="6.50989">
        <ele>1984.78</ele>
        <time>2015-08-30T11:19:00Z</time>
      </trkpt>
      <trkpt lat="46.02165" lon="6.50991">
        <ele>1983.34</ele>
        <time>2015-08-30T11:19:14Z</time>
      </trkpt>
      <trkpt lat="46.02165" lon="6.50993">
        <ele>1981.41</ele>
        <time>2015-08-30T11:19:30Z</time>
      </trkpt>
      <trkpt lat="46.02162" lon="6.50994">
        <ele>1980.45</ele>
        <time>2015-08-30T11:19:49Z</time>
      </trkpt>
      <trkpt lat="46.02163" lon="6.50998">
        <ele>1978.53</ele>
        <time>2015-08-30T11:20:06Z</time>
      </trkpt>
      <trkpt lat="46.02165" lon="6.51002">
        <ele>1976.61</ele>
        <time>2015-08-30T11:20:20Z</time>
      </trkpt>
      <trkpt lat="46.02162" lon="6.51005">
        <ele>1974.2</ele>
        <time>2015-08-30T11:20:32Z</time>
      </trkpt>
      <trkpt lat="46.02159" lon="6.51007">
        <ele>1971.8</ele>
        <time>2015-08-30T11:20:43Z</time>
      </trkpt>
      <trkpt lat="46.02154" lon="6.51003">
        <ele>1969.88</ele>
        <time>2015-08-30T11:20:55Z</time>
      </trkpt>
      <trkpt lat="46.0215" lon="6.51002">
        <ele>1966.99</ele>
        <time>2015-08-30T11:21:07Z</time>
      </trkpt>
      <trkpt lat="46.02146" lon="6.51003">
        <ele>1964.59</ele>
        <time>2015-08-30T11:21:17Z</time>
      </trkpt>
      <trkpt lat="46.02142" lon="6.51">
        <ele>1961.71</ele>
        <time>2015-08-30T11:21:28Z</time>
      </trkpt>
      <trkpt lat="46.0214" lon="6.51">
        <ele>1960.27</ele>
        <time>2015-08-30T11:21:33Z</time>
      </trkpt>
      <trkpt lat="46.02135" lon="6.51">
        <ele>1958.82</ele>
        <time>2015-08-30T11:21:45Z</time>
      </trkpt>
      <trkpt lat="46.02134" lon="6.51008">
        <ele>1955.46</ele>
        <time>2015-08-30T11:21:55Z</time>
      </trkpt>
      <trkpt lat="46.02135" lon="6.51019">
        <ele>1952.57</ele>
        <time>2015-08-30T11:22:08Z</time>
      </trkpt>
      <trkpt lat="46.02133" lon="6.51025">
        <ele>1949.69</ele>
        <time>2015-08-30T11:22:18Z</time>
      </trkpt>
      <trkpt lat="46.02129" lon="6.51028">
        <ele>1947.77</ele>
        <time>2015-08-30T11:22:29Z</time>
      </trkpt>
      <trkpt lat="46.02125" lon="6.51034">
        <ele>1945.36</ele>
        <time>2015-08-30T11:22:42Z</time>
      </trkpt>
      <trkpt lat="46.02122" lon="6.51038">
        <ele>1943.44</ele>
        <time>2015-08-30T11:22:51Z</time>
      </trkpt>
      <trkpt lat="46.02118" lon="6.51041">
        <ele>1941.52</ele>
        <time>2015-08-30T11:23:02Z</time>
      </trkpt>
      <trkpt lat="46.02114" lon="6.51049">
        <ele>1939.6</ele>
        <time>2015-08-30T11:23:14Z</time>
      </trkpt>
      <trkpt lat="46.0211" lon="6.51057">
        <ele>1936.23</ele>
        <time>2015-08-30T11:23:24Z</time>
      </trkpt>
      <trkpt lat="46.02104" lon="6.51061">
        <ele>1934.79</ele>
        <time>2015-08-30T11:23:36Z</time>
      </trkpt>
      <trkpt lat="46.021" lon="6.51063">
        <ele>1932.87</ele>
        <time>2015-08-30T11:23:46Z</time>
      </trkpt>
      <trkpt lat="46.02095" lon="6.5107">
        <ele>1929.98</ele>
        <time>2015-08-30T11:23:59Z</time>
      </trkpt>
      <trkpt lat="46.02092" lon="6.51079">
        <ele>1927.58</ele>
        <time>2015-08-30T11:24:13Z</time>
      </trkpt>
      <trkpt lat="46.02091" lon="6.51086">
        <ele>1927.1</ele>
        <time>2015-08-30T11:24:29Z</time>
      </trkpt>
      <trkpt lat="46.02095" lon="6.51115">
        <ele>1926.62</ele>
        <time>2015-08-30T11:25:08Z</time>
      </trkpt>
      <trkpt lat="46.02102" lon="6.51117">
        <ele>1926.62</ele>
        <time>2015-08-30T11:25:42Z</time>
      </trkpt>
      <trkpt lat="46.02096" lon="6.51115">
        <ele>1926.62</ele>
        <time>2015-08-30T11:26:14Z</time>
      </trkpt>
      <trkpt lat="46.02097" lon="6.51114">
        <ele>1926.62</ele>
        <time>2015-08-30T11:26:43Z</time>
      </trkpt>
      <trkpt lat="46.02099" lon="6.51111">
        <ele>1926.62</ele>
        <time>2015-08-30T11:27:00Z</time>
      </trkpt>
      <trkpt lat="46.02099" lon="6.51107">
        <ele>1926.62</ele>
        <time>2015-08-30T11:27:24Z</time>
      </trkpt>
      <trkpt lat="46.02097" lon="6.51105">
        <ele>1926.62</ele>
        <time>2015-08-30T11:27:40Z</time>
      </trkpt>
      <trkpt lat="46.02095" lon="6.51105">
        <ele>1924.7</ele>
        <time>2015-08-30T11:27:50Z</time>
      </trkpt>
      <trkpt lat="46.02092" lon="6.51106">
        <ele>1923.74</ele>
        <time>2015-08-30T11:27:56Z</time>
      </trkpt>
      <trkpt lat="46.02087" lon="6.51113">
        <ele>1920.37</ele>
        <time>2015-08-30T11:28:08Z</time>
      </trkpt>
      <trkpt lat="46.02081" lon="6.51114">
        <ele>1917.49</ele>
        <time>2015-08-30T11:28:19Z</time>
      </trkpt>
      <trkpt lat="46.02074" lon="6.51118">
        <ele>1914.6</ele>
        <time>2015-08-30T11:28:34Z</time>
      </trkpt>
      <trkpt lat="46.02074" lon="6.5112">
        <ele>1913.64</ele>
        <time>2015-08-30T11:28:37Z</time>
      </trkpt>
      <trkpt lat="46.02072" lon="6.51137">
        <ele>1911.72</ele>
        <time>2015-08-30T11:28:50Z</time>
      </trkpt>
      <trkpt lat="46.02068" lon="6.51145">
        <ele>1908.35</ele>
        <time>2015-08-30T11:29:03Z</time>
      </trkpt>
      <trkpt lat="46.02064" lon="6.51148">
        <ele>1907.39</ele>
        <time>2015-08-30T11:29:14Z</time>
      </trkpt>
      <trkpt lat="46.02058" lon="6.51151">
        <ele>1904.99</ele>
        <time>2015-08-30T11:29:26Z</time>
      </trkpt>
      <trkpt lat="46.02057" lon="6.51153">
        <ele>1904.03</ele>
        <time>2015-08-30T11:29:36Z</time>
      </trkpt>
      <trkpt lat="46.02055" lon="6.5116">
        <ele>1902.59</ele>
        <time>2015-08-30T11:29:48Z</time>
      </trkpt>
      <trkpt lat="46.02051" lon="6.51163">
        <ele>1900.18</ele>
        <time>2015-08-30T11:30:01Z</time>
      </trkpt>
      <trkpt lat="46.02047" lon="6.51169">
        <ele>1899.22</ele>
        <time>2015-08-30T11:30:13Z</time>
      </trkpt>
      <trkpt lat="46.02042" lon="6.5118">
        <ele>1897.3</ele>
        <time>2015-08-30T11:30:27Z</time>
      </trkpt>
      <trkpt lat="46.0204" lon="6.51187">
        <ele>1895.86</ele>
        <time>2015-08-30T11:30:39Z</time>
      </trkpt>
      <trkpt lat="46.02036" lon="6.51195">
        <ele>1893.45</ele>
        <time>2015-08-30T11:30:52Z</time>
      </trkpt>
      <trkpt lat="46.02031" lon="6.512">
        <ele>1892.01</ele>
        <time>2015-08-30T11:31:06Z</time>
      </trkpt>
      <trkpt lat="46.02027" lon="6.51202">
        <ele>1891.53</ele>
        <time>2015-08-30T11:31:24Z</time>
      </trkpt>
      <trkpt lat="46.02026" lon="6.512">
        <ele>1891.05</ele>
        <time>2015-08-30T11:31:45Z</time>
      </trkpt>
      <trkpt lat="46.02028" lon="6.51197">
        <ele>1891.05</ele>
        <time>2015-08-30T11:32:02Z</time>
      </trkpt>
      <trkpt lat="46.02027" lon="6.51201">
        <ele>1890.09</ele>
        <time>2015-08-30T11:32:25Z</time>
      </trkpt>
      <trkpt lat="46.02025" lon="6.51213">
        <ele>1887.21</ele>
        <time>2015-08-30T11:32:40Z</time>
      </trkpt>
      <trkpt lat="46.02022" lon="6.51221">
        <ele>1885.28</ele>
        <time>2015-08-30T11:32:52Z</time>
      </trkpt>
      <trkpt lat="46.02016" lon="6.5123">
        <ele>1882.4</ele>
        <time>2015-08-30T11:33:04Z</time>
      </trkpt>
      <trkpt lat="46.02015" lon="6.51231">
        <ele>1881.44</ele>
        <time>2015-08-30T11:33:06Z</time>
      </trkpt>
      <trkpt lat="46.0201" lon="6.51241">
        <ele>1878.07</ele>
        <time>2015-08-30T11:33:18Z</time>
      </trkpt>
      <trkpt lat="46.02005" lon="6.51247">
        <ele>1876.15</ele>
        <time>2015-08-30T11:33:29Z</time>
      </trkpt>
      <trkpt lat="46.02002" lon="6.51256">
        <ele>1872.3</ele>
        <time>2015-08-30T11:33:38Z</time>
      </trkpt>
      <trkpt lat="46.02002" lon="6.51258">
        <ele>1872.3</ele>
        <time>2015-08-30T11:33:39Z</time>
      </trkpt>
      <trkpt lat="46.02001" lon="6.51261">
        <ele>1870.86</ele>
        <time>2015-08-30T11:33:42Z</time>
      </trkpt>
      <trkpt lat="46.01994" lon="6.51268">
        <ele>1867.98</ele>
        <time>2015-08-30T11:33:52Z</time>
      </trkpt>
      <trkpt lat="46.0199" lon="6.51275">
        <ele>1864.61</ele>
        <time>2015-08-30T11:34:02Z</time>
      </trkpt>
      <trkpt lat="46.01985" lon="6.51274">
        <ele>1864.13</ele>
        <time>2015-08-30T11:34:17Z</time>
      </trkpt>
      <trkpt lat="46.01984" lon="6.51278">
        <ele>1862.21</ele>
        <time>2015-08-30T11:34:23Z</time>
      </trkpt>
      <trkpt lat="46.01978" lon="6.51281">
        <ele>1859.81</ele>
        <time>2015-08-30T11:34:34Z</time>
      </trkpt>
      <trkpt lat="46.01976" lon="6.51287">
        <ele>1856.92</ele>
        <time>2015-08-30T11:34:46Z</time>
      </trkpt>
      <trkpt lat="46.01975" lon="6.51297">
        <ele>1854.04</ele>
        <time>2015-08-30T11:34:58Z</time>
      </trkpt>
      <trkpt lat="46.01974" lon="6.51307">
        <ele>1850.19</ele>
        <time>2015-08-30T11:35:11Z</time>
      </trkpt>
      <trkpt lat="46.01973" lon="6.51309">
        <ele>1849.71</ele>
        <time>2015-08-30T11:35:13Z</time>
      </trkpt>
      <trkpt lat="46.01973" lon="6.51313">
        <ele>1848.27</ele>
        <time>2015-08-30T11:35:16Z</time>
      </trkpt>
      <trkpt lat="46.01971" lon="6.51318">
        <ele>1845.87</ele>
        <time>2015-08-30T11:35:23Z</time>
      </trkpt>
      <trkpt lat="46.01969" lon="6.51327">
        <ele>1842.02</ele>
        <time>2015-08-30T11:35:32Z</time>
      </trkpt>
      <trkpt lat="46.01969" lon="6.5134">
        <ele>1839.14</ele>
        <time>2015-08-30T11:35:44Z</time>
      </trkpt>
      <trkpt lat="46.01974" lon="6.51357">
        <ele>1835.29</ele>
        <time>2015-08-30T11:35:59Z</time>
      </trkpt>
      <trkpt lat="46.01977" lon="6.51372">
        <ele>1831.93</ele>
        <time>2015-08-30T11:36:13Z</time>
      </trkpt>
      <trkpt lat="46.0198" lon="6.51382">
        <ele>1829.53</ele>
        <time>2015-08-30T11:36:26Z</time>
      </trkpt>
      <trkpt lat="46.01981" lon="6.5139">
        <ele>1826.16</ele>
        <time>2015-08-30T11:36:39Z</time>
      </trkpt>
      <trkpt lat="46.01982" lon="6.51402">
        <ele>1822.32</ele>
        <time>2015-08-30T11:36:54Z</time>
      </trkpt>
      <trkpt lat="46.01979" lon="6.51408">
        <ele>1819.91</ele>
        <time>2015-08-30T11:37:05Z</time>
      </trkpt>
      <trkpt lat="46.01976" lon="6.5141">
        <ele>1817.03</ele>
        <time>2015-08-30T11:37:17Z</time>
      </trkpt>
      <trkpt lat="46.01967" lon="6.51407">
        <ele>1814.15</ele>
        <time>2015-08-30T11:37:31Z</time>
      </trkpt>
      <trkpt lat="46.0196" lon="6.51408">
        <ele>1810.78</ele>
        <time>2015-08-30T11:37:42Z</time>
      </trkpt>
      <trkpt lat="46.0196" lon="6.51408">
        <ele>1810.78</ele>
        <time>2015-08-30T11:37:43Z</time>
      </trkpt>
      <trkpt lat="46.01955" lon="6.51409">
        <ele>1807.42</ele>
        <time>2015-08-30T11:37:53Z</time>
      </trkpt>
      <trkpt lat="46.01953" lon="6.51418">
        <ele>1805.49</ele>
        <time>2015-08-30T11:38:05Z</time>
      </trkpt>
      <trkpt lat="46.01947" lon="6.51422">
        <ele>1801.17</ele>
        <time>2015-08-30T11:38:18Z</time>
      </trkpt>
      <trkpt lat="46.01948" lon="6.51421">
        <ele>1800.69</ele>
        <time>2015-08-30T11:38:34Z</time>
      </trkpt>
      <trkpt lat="46.01949" lon="6.51422">
        <ele>1800.21</ele>
        <time>2015-08-30T11:38:56Z</time>
      </trkpt>
      <trkpt lat="46.01949" lon="6.51423">
        <ele>1800.21</ele>
        <time>2015-08-30T11:39:13Z</time>
      </trkpt>
      <trkpt lat="46.01949" lon="6.5142">
        <ele>1800.21</ele>
        <time>2015-08-30T11:39:31Z</time>
      </trkpt>
      <trkpt lat="46.01947" lon="6.51424">
        <ele>1799.73</ele>
        <time>2015-08-30T11:39:54Z</time>
      </trkpt>
      <trkpt lat="46.01944" lon="6.51431">
        <ele>1797.32</ele>
        <time>2015-08-30T11:40:07Z</time>
      </trkpt>
      <trkpt lat="46.01943" lon="6.5144">
        <ele>1794.44</ele>
        <time>2015-08-30T11:40:19Z</time>
      </trkpt>
      <trkpt lat="46.01939" lon="6.51448">
        <ele>1791.55</ele>
        <time>2015-08-30T11:40:31Z</time>
      </trkpt>
      <trkpt lat="46.01938" lon="6.51454">
        <ele>1787.71</ele>
        <time>2015-08-30T11:40:44Z</time>
      </trkpt>
      <trkpt lat="46.01935" lon="6.51459">
        <ele>1786.27</ele>
        <time>2015-08-30T11:40:55Z</time>
      </trkpt>
      <trkpt lat="46.01935" lon="6.51459">
        <ele>1786.27</ele>
        <time>2015-08-30T11:40:56Z</time>
      </trkpt>
      <trkpt lat="46.01934" lon="6.51462">
        <ele>1784.34</ele>
        <time>2015-08-30T11:40:59Z</time>
      </trkpt>
      <trkpt lat="46.01925" lon="6.51473">
        <ele>1781.46</ele>
        <time>2015-08-30T11:41:13Z</time>
      </trkpt>
      <trkpt lat="46.01922" lon="6.51474">
        <ele>1780.5</ele>
        <time>2015-08-30T11:41:16Z</time>
      </trkpt>
      <trkpt lat="46.01921" lon="6.51474">
        <ele>1779.54</ele>
        <time>2015-08-30T11:41:29Z</time>
      </trkpt>
      <trkpt lat="46.01918" lon="6.51475">
        <ele>1778.58</ele>
        <time>2015-08-30T11:41:33Z</time>
      </trkpt>
      <trkpt lat="46.01916" lon="6.51479">
        <ele>1777.13</ele>
        <time>2015-08-30T11:41:39Z</time>
      </trkpt>
      <trkpt lat="46.01912" lon="6.51482">
        <ele>1775.69</ele>
        <time>2015-08-30T11:41:45Z</time>
      </trkpt>
      <trkpt lat="46.01907" lon="6.51484">
        <ele>1774.25</ele>
        <time>2015-08-30T11:41:50Z</time>
      </trkpt>
      <trkpt lat="46.01892" lon="6.51487">
        <ele>1771.85</ele>
        <time>2015-08-30T11:42:05Z</time>
      </trkpt>
      <trkpt lat="46.01883" lon="6.51489">
        <ele>1768.96</ele>
        <time>2015-08-30T11:42:16Z</time>
      </trkpt>
      <trkpt lat="46.01878" lon="6.51498">
        <ele>1765.6</ele>
        <time>2015-08-30T11:42:28Z</time>
      </trkpt>
      <trkpt lat="46.01871" lon="6.51502">
        <ele>1764.16</ele>
        <time>2015-08-30T11:42:36Z</time>
      </trkpt>
      <trkpt lat="46.01866" lon="6.51504">
        <ele>1762.71</ele>
        <time>2015-08-30T11:42:41Z</time>
      </trkpt>
      <trkpt lat="46.01858" lon="6.51503">
        <ele>1760.79</ele>
        <time>2015-08-30T11:42:54Z</time>
      </trkpt>
      <trkpt lat="46.0185" lon="6.51503">
        <ele>1757.91</ele>
        <time>2015-08-30T11:43:05Z</time>
      </trkpt>
      <trkpt lat="46.01841" lon="6.51511">
        <ele>1755.5</ele>
        <time>2015-08-30T11:43:20Z</time>
      </trkpt>
      <trkpt lat="46.01838" lon="6.51524">
        <ele>1752.62</ele>
        <time>2015-08-30T11:43:34Z</time>
      </trkpt>
      <trkpt lat="46.01834" lon="6.51536">
        <ele>1749.26</ele>
        <time>2015-08-30T11:43:48Z</time>
      </trkpt>
      <trkpt lat="46.01833" lon="6.51544">
        <ele>1746.37</ele>
        <time>2015-08-30T11:43:59Z</time>
      </trkpt>
      <trkpt lat="46.01829" lon="6.51549">
        <ele>1744.93</ele>
        <time>2015-08-30T11:44:20Z</time>
      </trkpt>
      <trkpt lat="46.01828" lon="6.51557">
        <ele>1742.53</ele>
        <time>2015-08-30T11:44:36Z</time>
      </trkpt>
      <trkpt lat="46.01826" lon="6.51565">
        <ele>1739.64</ele>
        <time>2015-08-30T11:44:47Z</time>
      </trkpt>
      <trkpt lat="46.01826" lon="6.51574">
        <ele>1736.76</ele>
        <time>2015-08-30T11:44:59Z</time>
      </trkpt>
      <trkpt lat="46.01822" lon="6.51585">
        <ele>1734.36</ele>
        <time>2015-08-30T11:45:14Z</time>
      </trkpt>
      <trkpt lat="46.01824" lon="6.51591">
        <ele>1730.99</ele>
        <time>2015-08-30T11:45:25Z</time>
      </trkpt>
      <trkpt lat="46.01826" lon="6.51597">
        <ele>1729.07</ele>
        <time>2015-08-30T11:45:36Z</time>
      </trkpt>
      <trkpt lat="46.01826" lon="6.51607">
        <ele>1726.67</ele>
        <time>2015-08-30T11:45:47Z</time>
      </trkpt>
      <trkpt lat="46.01825" lon="6.51617">
        <ele>1724.26</ele>
        <time>2015-08-30T11:45:57Z</time>
      </trkpt>
      <trkpt lat="46.01826" lon="6.51629">
        <ele>1721.38</ele>
        <time>2015-08-30T11:46:11Z</time>
      </trkpt>
      <trkpt lat="46.01824" lon="6.5164">
        <ele>1718.49</ele>
        <time>2015-08-30T11:46:22Z</time>
      </trkpt>
      <trkpt lat="46.01824" lon="6.51648">
        <ele>1715.61</ele>
        <time>2015-08-30T11:46:32Z</time>
      </trkpt>
      <trkpt lat="46.01824" lon="6.51658">
        <ele>1712.73</ele>
        <time>2015-08-30T11:46:41Z</time>
      </trkpt>
      <trkpt lat="46.01824" lon="6.51662">
        <ele>1711.76</ele>
        <time>2015-08-30T11:46:43Z</time>
      </trkpt>
      <trkpt lat="46.01822" lon="6.51672">
        <ele>1710.8</ele>
        <time>2015-08-30T11:46:49Z</time>
      </trkpt>
      <trkpt lat="46.0182" lon="6.51683">
        <ele>1710.32</ele>
        <time>2015-08-30T11:46:55Z</time>
      </trkpt>
      <trkpt lat="46.01815" lon="6.51691">
        <ele>1709.84</ele>
        <time>2015-08-30T11:47:09Z</time>
      </trkpt>
      <trkpt lat="46.01812" lon="6.51696">
        <ele>1706.96</ele>
        <time>2015-08-30T11:47:23Z</time>
      </trkpt>
      <trkpt lat="46.01811" lon="6.51708">
        <ele>1704.55</ele>
        <time>2015-08-30T11:47:36Z</time>
      </trkpt>
      <trkpt lat="46.01813" lon="6.51719">
        <ele>1701.19</ele>
        <time>2015-08-30T11:47:48Z</time>
      </trkpt>
      <trkpt lat="46.01812" lon="6.51724">
        <ele>1700.71</ele>
        <time>2015-08-30T11:47:51Z</time>
      </trkpt>
      <trkpt lat="46.01811" lon="6.51744">
        <ele>1698.31</ele>
        <time>2015-08-30T11:48:06Z</time>
      </trkpt>
      <trkpt lat="46.01801" lon="6.51757">
        <ele>1695.42</ele>
        <time>2015-08-30T11:48:20Z</time>
      </trkpt>
      <trkpt lat="46.01799" lon="6.51767">
        <ele>1692.54</ele>
        <time>2015-08-30T11:48:32Z</time>
      </trkpt>
      <trkpt lat="46.01799" lon="6.51771">
        <ele>1691.58</ele>
        <time>2015-08-30T11:48:35Z</time>
      </trkpt>
      <trkpt lat="46.01799" lon="6.51781">
        <ele>1688.21</ele>
        <time>2015-08-30T11:48:46Z</time>
      </trkpt>
      <trkpt lat="46.01796" lon="6.51789">
        <ele>1685.33</ele>
        <time>2015-08-30T11:48:57Z</time>
      </trkpt>
      <trkpt lat="46.01791" lon="6.51798">
        <ele>1683.41</ele>
        <time>2015-08-30T11:49:11Z</time>
      </trkpt>
      <trkpt lat="46.01792" lon="6.518">
        <ele>1682.93</ele>
        <time>2015-08-30T11:49:16Z</time>
      </trkpt>
      <trkpt lat="46.01794" lon="6.51815">
        <ele>1679.08</ele>
        <time>2015-08-30T11:49:30Z</time>
      </trkpt>
      <trkpt lat="46.01788" lon="6.51831">
        <ele>1675.72</ele>
        <time>2015-08-30T11:49:45Z</time>
      </trkpt>
      <trkpt lat="46.01784" lon="6.51842">
        <ele>1673.31</ele>
        <time>2015-08-30T11:49:57Z</time>
      </trkpt>
      <trkpt lat="46.01783" lon="6.51853">
        <ele>1671.87</ele>
        <time>2015-08-30T11:50:08Z</time>
      </trkpt>
      <trkpt lat="46.01779" lon="6.51871">
        <ele>1668.99</ele>
        <time>2015-08-30T11:50:21Z</time>
      </trkpt>
      <trkpt lat="46.01773" lon="6.51882">
        <ele>1665.62</ele>
        <time>2015-08-30T11:50:35Z</time>
      </trkpt>
      <trkpt lat="46.01767" lon="6.51882">
        <ele>1665.14</ele>
        <time>2015-08-30T11:50:40Z</time>
      </trkpt>
      <trkpt lat="46.01759" lon="6.51878">
        <ele>1663.7</ele>
        <time>2015-08-30T11:50:54Z</time>
      </trkpt>
      <trkpt lat="46.01756" lon="6.51872">
        <ele>1661.3</ele>
        <time>2015-08-30T11:51:09Z</time>
      </trkpt>
      <trkpt lat="46.01751" lon="6.51864">
        <ele>1658.89</ele>
        <time>2015-08-30T11:51:25Z</time>
      </trkpt>
      <trkpt lat="46.01744" lon="6.51857">
        <ele>1656.01</ele>
        <time>2015-08-30T11:51:38Z</time>
      </trkpt>
      <trkpt lat="46.01743" lon="6.5185">
        <ele>1654.57</ele>
        <time>2015-08-30T11:51:50Z</time>
      </trkpt>
      <trkpt lat="46.01743" lon="6.51853">
        <ele>1651.2</ele>
        <time>2015-08-30T11:52:02Z</time>
      </trkpt>
      <trkpt lat="46.01742" lon="6.51855">
        <ele>1649.76</ele>
        <time>2015-08-30T11:52:13Z</time>
      </trkpt>
      <trkpt lat="46.0174" lon="6.51862">
        <ele>1646.88</ele>
        <time>2015-08-30T11:52:24Z</time>
      </trkpt>
      <trkpt lat="46.01738" lon="6.51867">
        <ele>1643.99</ele>
        <time>2015-08-30T11:52:38Z</time>
      </trkpt>
      <trkpt lat="46.01736" lon="6.5187">
        <ele>1641.59</ele>
        <time>2015-08-30T11:52:50Z</time>
      </trkpt>
      <trkpt lat="46.01736" lon="6.51874">
        <ele>1638.7</ele>
        <time>2015-08-30T11:53:03Z</time>
      </trkpt>
      <trkpt lat="46.01734" lon="6.51873">
        <ele>1637.74</ele>
        <time>2015-08-30T11:53:15Z</time>
      </trkpt>
      <trkpt lat="46.01732" lon="6.51872">
        <ele>1637.26</ele>
        <time>2015-08-30T11:53:29Z</time>
      </trkpt>
      <trkpt lat="46.01731" lon="6.5187">
        <ele>1636.3</ele>
        <time>2015-08-30T11:53:46Z</time>
      </trkpt>
      <trkpt lat="46.01727" lon="6.51868">
        <ele>1634.38</ele>
        <time>2015-08-30T11:54:01Z</time>
      </trkpt>
      <trkpt lat="46.01726" lon="6.51871">
        <ele>1631.01</ele>
        <time>2015-08-30T11:54:15Z</time>
      </trkpt>
      <trkpt lat="46.01727" lon="6.51881">
        <ele>1629.09</ele>
        <time>2015-08-30T11:54:27Z</time>
      </trkpt>
      <trkpt lat="46.01731" lon="6.51899">
        <ele>1626.21</ele>
        <time>2015-08-30T11:54:43Z</time>
      </trkpt>
      <trkpt lat="46.01733" lon="6.51912">
        <ele>1623.8</ele>
        <time>2015-08-30T11:54:56Z</time>
      </trkpt>
      <trkpt lat="46.0173" lon="6.51924">
        <ele>1621.88</ele>
        <time>2015-08-30T11:55:11Z</time>
      </trkpt>
      <trkpt lat="46.01731" lon="6.51934">
        <ele>1620.44</ele>
        <time>2015-08-30T11:55:23Z</time>
      </trkpt>
      <trkpt lat="46.0173" lon="6.51952">
        <ele>1617.07</ele>
        <time>2015-08-30T11:55:37Z</time>
      </trkpt>
      <trkpt lat="46.0173" lon="6.51963">
        <ele>1616.59</ele>
        <time>2015-08-30T11:55:55Z</time>
      </trkpt>
      <trkpt lat="46.01727" lon="6.51954">
        <ele>1616.59</ele>
        <time>2015-08-30T11:56:07Z</time>
      </trkpt>
      <trkpt lat="46.01721" lon="6.51942">
        <ele>1614.67</ele>
        <time>2015-08-30T11:56:19Z</time>
      </trkpt>
      <trkpt lat="46.01721" lon="6.51941">
        <ele>1614.67</ele>
        <time>2015-08-30T11:56:20Z</time>
      </trkpt>
      <trkpt lat="46.01714" lon="6.51926">
        <ele>1611.79</ele>
        <time>2015-08-30T11:56:34Z</time>
      </trkpt>
      <trkpt lat="46.01708" lon="6.5192">
        <ele>1608.9</ele>
        <time>2015-08-30T11:56:49Z</time>
      </trkpt>
      <trkpt lat="46.01704" lon="6.51921">
        <ele>1605.06</ele>
        <time>2015-08-30T11:57:03Z</time>
      </trkpt>
      <trkpt lat="46.01697" lon="6.51919">
        <ele>1604.1</ele>
        <time>2015-08-30T11:57:10Z</time>
      </trkpt>
      <trkpt lat="46.01692" lon="6.51913">
        <ele>1602.66</ele>
        <time>2015-08-30T11:57:16Z</time>
      </trkpt>
      <trkpt lat="46.01684" lon="6.51903">
        <ele>1601.21</ele>
        <time>2015-08-30T11:57:22Z</time>
      </trkpt>
      <trkpt lat="46.01674" lon="6.51893">
        <ele>1598.33</ele>
        <time>2015-08-30T11:57:31Z</time>
      </trkpt>
      <trkpt lat="46.01671" lon="6.51887">
        <ele>1597.37</ele>
        <time>2015-08-30T11:57:35Z</time>
      </trkpt>
      <trkpt lat="46.01669" lon="6.51886">
        <ele>1596.41</ele>
        <time>2015-08-30T11:57:38Z</time>
      </trkpt>
      <trkpt lat="46.01668" lon="6.51883">
        <ele>1595.45</ele>
        <time>2015-08-30T11:57:41Z</time>
      </trkpt>
      <trkpt lat="46.01657" lon="6.51879">
        <ele>1591.6</ele>
        <time>2015-08-30T11:57:55Z</time>
      </trkpt>
      <trkpt lat="46.01651" lon="6.51877">
        <ele>1588.72</ele>
        <time>2015-08-30T11:58:07Z</time>
      </trkpt>
      <trkpt lat="46.01646" lon="6.51882">
        <ele>1585.83</ele>
        <time>2015-08-30T11:58:17Z</time>
      </trkpt>
      <trkpt lat="46.01639" lon="6.51882">
        <ele>1583.43</ele>
        <time>2015-08-30T11:58:28Z</time>
      </trkpt>
      <trkpt lat="46.01628" lon="6.51876">
        <ele>1580.54</ele>
        <time>2015-08-30T11:58:41Z</time>
      </trkpt>
      <trkpt lat="46.01622" lon="6.51878">
        <ele>1579.1</ele>
        <time>2015-08-30T11:58:55Z</time>
      </trkpt>
      <trkpt lat="46.0162" lon="6.51876">
        <ele>1578.62</ele>
        <time>2015-08-30T11:59:10Z</time>
      </trkpt>
      <trkpt lat="46.01621" lon="6.51884">
        <ele>1576.22</ele>
        <time>2015-08-30T11:59:26Z</time>
      </trkpt>
      <trkpt lat="46.0162" lon="6.51893">
        <ele>1574.3</ele>
        <time>2015-08-30T11:59:37Z</time>
      </trkpt>
      <trkpt lat="46.0162" lon="6.51896">
        <ele>1574.3</ele>
        <time>2015-08-30T11:59:39Z</time>
      </trkpt>
      <trkpt lat="46.01616" lon="6.51911">
        <ele>1569.97</ele>
        <time>2015-08-30T11:59:54Z</time>
      </trkpt>
      <trkpt lat="46.01616" lon="6.51913">
        <ele>1569.49</ele>
        <time>2015-08-30T11:59:56Z</time>
      </trkpt>
      <trkpt lat="46.01611" lon="6.51912">
        <ele>1568.53</ele>
        <time>2015-08-30T12:00:02Z</time>
      </trkpt>
      <trkpt lat="46.01599" lon="6.5191">
        <ele>1564.68</ele>
        <time>2015-08-30T12:00:15Z</time>
      </trkpt>
      <trkpt lat="46.01601" lon="6.51922">
        <ele>1561.32</ele>
        <time>2015-08-30T12:00:28Z</time>
      </trkpt>
      <trkpt lat="46.01601" lon="6.51925">
        <ele>1561.32</ele>
        <time>2015-08-30T12:00:30Z</time>
      </trkpt>
      <trkpt lat="46.01599" lon="6.51932">
        <ele>1559.4</ele>
        <time>2015-08-30T12:00:36Z</time>
      </trkpt>
      <trkpt lat="46.01597" lon="6.51938">
        <ele>1557.95</ele>
        <time>2015-08-30T12:00:40Z</time>
      </trkpt>
      <trkpt lat="46.01591" lon="6.51952">
        <ele>1555.55</ele>
        <time>2015-08-30T12:00:55Z</time>
      </trkpt>
      <trkpt lat="46.01587" lon="6.51961">
        <ele>1554.11</ele>
        <time>2015-08-30T12:01:06Z</time>
      </trkpt>
      <trkpt lat="46.01581" lon="6.51974">
        <ele>1552.67</ele>
        <time>2015-08-30T12:01:20Z</time>
      </trkpt>
      <trkpt lat="46.0158" lon="6.51972">
        <ele>1551.71</ele>
        <time>2015-08-30T12:01:33Z</time>
      </trkpt>
      <trkpt lat="46.01578" lon="6.51971">
        <ele>1551.71</ele>
        <time>2015-08-30T12:01:55Z</time>
      </trkpt>
      <trkpt lat="46.01579" lon="6.51974">
        <ele>1551.22</ele>
        <time>2015-08-30T12:02:11Z</time>
      </trkpt>
      <trkpt lat="46.01577" lon="6.51973">
        <ele>1551.22</ele>
        <time>2015-08-30T12:02:39Z</time>
      </trkpt>
      <trkpt lat="46.01579" lon="6.51972">
        <ele>1550.74</ele>
        <time>2015-08-30T12:03:02Z</time>
      </trkpt>
      <trkpt lat="46.01581" lon="6.51976">
        <ele>1550.74</ele>
        <time>2015-08-30T12:03:13Z</time>
      </trkpt>
      <trkpt lat="46.01582" lon="6.51978">
        <ele>1550.26</ele>
        <time>2015-08-30T12:03:20Z</time>
      </trkpt>
      <trkpt lat="46.0157" lon="6.51968">
        <ele>1550.26</ele>
        <time>2015-08-30T12:03:34Z</time>
      </trkpt>
      <trkpt lat="46.01559" lon="6.51962">
        <ele>1552.19</ele>
        <time>2015-08-30T12:03:45Z</time>
      </trkpt>
      <trkpt lat="46.01554" lon="6.51945">
        <ele>1553.63</ele>
        <time>2015-08-30T12:04:00Z</time>
      </trkpt>
      <trkpt lat="46.01553" lon="6.51938">
        <ele>1554.11</ele>
        <time>2015-08-30T12:04:09Z</time>
      </trkpt>
      <trkpt lat="46.01546" lon="6.51922">
        <ele>1555.07</ele>
        <time>2015-08-30T12:04:24Z</time>
      </trkpt>
      <trkpt lat="46.01547" lon="6.51916">
        <ele>1555.07</ele>
        <time>2015-08-30T12:04:36Z</time>
      </trkpt>
      <trkpt lat="46.01549" lon="6.51913">
        <ele>1555.07</ele>
        <time>2015-08-30T12:04:50Z</time>
      </trkpt>
      <trkpt lat="46.01551" lon="6.519">
        <ele>1556.03</ele>
        <time>2015-08-30T12:05:03Z</time>
      </trkpt>
      <trkpt lat="46.01555" lon="6.51888">
        <ele>1557.47</ele>
        <time>2015-08-30T12:05:15Z</time>
      </trkpt>
      <trkpt lat="46.01553" lon="6.51884">
        <ele>1557.95</ele>
        <time>2015-08-30T12:05:19Z</time>
      </trkpt>
      <trkpt lat="46.01545" lon="6.51869">
        <ele>1559.4</ele>
        <time>2015-08-30T12:05:34Z</time>
      </trkpt>
      <trkpt lat="46.01537" lon="6.51856">
        <ele>1561.32</ele>
        <time>2015-08-30T12:05:49Z</time>
      </trkpt>
      <trkpt lat="46.0153" lon="6.51844">
        <ele>1562.76</ele>
        <time>2015-08-30T12:06:01Z</time>
      </trkpt>
      <trkpt lat="46.01525" lon="6.51822">
        <ele>1563.72</ele>
        <time>2015-08-30T12:06:17Z</time>
      </trkpt>
      <trkpt lat="46.01524" lon="6.51816">
        <ele>1563.72</ele>
        <time>2015-08-30T12:06:21Z</time>
      </trkpt>
      <trkpt lat="46.01515" lon="6.51793">
        <ele>1564.68</ele>
        <time>2015-08-30T12:06:39Z</time>
      </trkpt>
      <trkpt lat="46.01512" lon="6.51787">
        <ele>1565.16</ele>
        <time>2015-08-30T12:06:52Z</time>
      </trkpt>
      <trkpt lat="46.01509" lon="6.51784">
        <ele>1565.16</ele>
        <time>2015-08-30T12:06:57Z</time>
      </trkpt>
      <trkpt lat="46.01499" lon="6.51764">
        <ele>1565.64</ele>
        <time>2015-08-30T12:07:13Z</time>
      </trkpt>
      <trkpt lat="46.01498" lon="6.51763">
        <ele>1565.64</ele>
        <time>2015-08-30T12:07:14Z</time>
      </trkpt>
      <trkpt lat="46.01485" lon="6.51745">
        <ele>1565.16</ele>
        <time>2015-08-30T12:07:31Z</time>
      </trkpt>
      <trkpt lat="46.0147" lon="6.51728">
        <ele>1565.16</ele>
        <time>2015-08-30T12:07:47Z</time>
      </trkpt>
      <trkpt lat="46.01453" lon="6.51708">
        <ele>1565.16</ele>
        <time>2015-08-30T12:08:06Z</time>
      </trkpt>
      <trkpt lat="46.01447" lon="6.517">
        <ele>1564.68</ele>
        <time>2015-08-30T12:08:14Z</time>
      </trkpt>
      <trkpt lat="46.01441" lon="6.51696">
        <ele>1563.72</ele>
        <time>2015-08-30T12:08:20Z</time>
      </trkpt>
      <trkpt lat="46.01431" lon="6.51694">
        <ele>1563.24</ele>
        <time>2015-08-30T12:08:30Z</time>
      </trkpt>
      <trkpt lat="46.01421" lon="6.517">
        <ele>1563.24</ele>
        <time>2015-08-30T12:08:40Z</time>
      </trkpt>
      <trkpt lat="46.01418" lon="6.51705">
        <ele>1563.24</ele>
        <time>2015-08-30T12:08:45Z</time>
      </trkpt>
      <trkpt lat="46.01413" lon="6.51706">
        <ele>1563.24</ele>
        <time>2015-08-30T12:08:49Z</time>
      </trkpt>
      <trkpt lat="46.01398" lon="6.517">
        <ele>1565.16</ele>
        <time>2015-08-30T12:09:05Z</time>
      </trkpt>
      <trkpt lat="46.01388" lon="6.5169">
        <ele>1566.12</ele>
        <time>2015-08-30T12:09:20Z</time>
      </trkpt>
      <trkpt lat="46.01379" lon="6.51671">
        <ele>1566.12</ele>
        <time>2015-08-30T12:09:36Z</time>
      </trkpt>
      <trkpt lat="46.01367" lon="6.51653">
        <ele>1568.53</ele>
        <time>2015-08-30T12:09:53Z</time>
      </trkpt>
      <trkpt lat="46.01364" lon="6.51651">
        <ele>1569.01</ele>
        <time>2015-08-30T12:10:07Z</time>
      </trkpt>
      <trkpt lat="46.01365" lon="6.51653">
        <ele>1567.57</ele>
        <time>2015-08-30T12:10:18Z</time>
      </trkpt>
      <trkpt lat="46.01367" lon="6.51655">
        <ele>1567.09</ele>
        <time>2015-08-30T12:10:56Z</time>
      </trkpt>
      <trkpt lat="46.01365" lon="6.51653">
        <ele>1567.09</ele>
        <time>2015-08-30T12:11:27Z</time>
      </trkpt>
      <trkpt lat="46.01365" lon="6.51653">
        <ele>1567.09</ele>
        <time>2015-08-30T12:11:54Z</time>
      </trkpt>
      <trkpt lat="46.01367" lon="6.5165">
        <ele>1567.09</ele>
        <time>2015-08-30T12:12:26Z</time>
      </trkpt>
      <trkpt lat="46.01364" lon="6.51649">
        <ele>1566.61</ele>
        <time>2015-08-30T12:13:02Z</time>
      </trkpt>
      <trkpt lat="46.01366" lon="6.51649">
        <ele>1566.61</ele>
        <time>2015-08-30T12:13:46Z</time>
      </trkpt>
      <trkpt lat="46.01367" lon="6.51649">
        <ele>1566.12</ele>
        <time>2015-08-30T12:14:23Z</time>
      </trkpt>
      <trkpt lat="46.01367" lon="6.51651">
        <ele>1566.12</ele>
        <time>2015-08-30T12:15:05Z</time>
      </trkpt>
      <trkpt lat="46.01366" lon="6.51652">
        <ele>1566.12</ele>
        <time>2015-08-30T12:15:39Z</time>
      </trkpt>
      <trkpt lat="46.01366" lon="6.51652">
        <ele>1566.12</ele>
        <time>2015-08-30T12:16:11Z</time>
      </trkpt>
      <trkpt lat="46.01371" lon="6.51648">
        <ele>1566.12</ele>
        <time>2015-08-30T12:16:58Z</time>
      </trkpt>
      <trkpt lat="46.01368" lon="6.51649">
        <ele>1565.64</ele>
        <time>2015-08-30T12:17:29Z</time>
      </trkpt>
      <trkpt lat="46.01365" lon="6.51649">
        <ele>1565.64</ele>
        <time>2015-08-30T12:18:00Z</time>
      </trkpt>
      <trkpt lat="46.01367" lon="6.51652">
        <ele>1565.64</ele>
        <time>2015-08-30T12:18:33Z</time>
      </trkpt>
      <trkpt lat="46.01365" lon="6.51651">
        <ele>1565.64</ele>
        <time>2015-08-30T12:19:03Z</time>
      </trkpt>
      <trkpt lat="46.01367" lon="6.51649">
        <ele>1565.64</ele>
        <time>2015-08-30T12:19:42Z</time>
      </trkpt>
      <trkpt lat="46.01368" lon="6.51649">
        <ele>1564.2</ele>
        <time>2015-08-30T12:19:52Z</time>
      </trkpt>
      <trkpt lat="46.01367" lon="6.5165">
        <ele>1564.2</ele>
        <time>2015-08-30T12:20:28Z</time>
      </trkpt>
      <trkpt lat="46.01365" lon="6.51653">
        <ele>1563.72</ele>
        <time>2015-08-30T12:21:02Z</time>
      </trkpt>
      <trkpt lat="46.01365" lon="6.51649">
        <ele>1563.72</ele>
        <time>2015-08-30T12:21:34Z</time>
      </trkpt>
      <trkpt lat="46.01366" lon="6.5165">
        <ele>1564.68</ele>
        <time>2015-08-30T12:22:14Z</time>
      </trkpt>
      <trkpt lat="46.01366" lon="6.51649">
        <ele>1564.2</ele>
        <time>2015-08-30T12:22:54Z</time>
      </trkpt>
      <trkpt lat="46.01366" lon="6.51652">
        <ele>1564.2</ele>
        <time>2015-08-30T12:23:34Z</time>
      </trkpt>
      <trkpt lat="46.01366" lon="6.51652">
        <ele>1564.2</ele>
        <time>2015-08-30T12:24:08Z</time>
      </trkpt>
      <trkpt lat="46.01366" lon="6.51652">
        <ele>1563.72</ele>
        <time>2015-08-30T12:24:47Z</time>
      </trkpt>
      <trkpt lat="46.01366" lon="6.51654">
        <ele>1563.72</ele>
        <time>2015-08-30T12:25:19Z</time>
      </trkpt>
      <trkpt lat="46.01367" lon="6.5165">
        <ele>1563.72</ele>
        <time>2015-08-30T12:26:05Z</time>
      </trkpt>
      <trkpt lat="46.01366" lon="6.51649">
        <ele>1563.24</ele>
        <time>2015-08-30T12:26:43Z</time>
      </trkpt>
      <trkpt lat="46.01367" lon="6.51654">
        <ele>1563.24</ele>
        <time>2015-08-30T12:27:22Z</time>
      </trkpt>
      <trkpt lat="46.01367" lon="6.51652">
        <ele>1563.24</ele>
        <time>2015-08-30T12:27:54Z</time>
      </trkpt>
      <trkpt lat="46.01367" lon="6.51651">
        <ele>1562.76</ele>
        <time>2015-08-30T12:28:20Z</time>
      </trkpt>
      <trkpt lat="46.01367" lon="6.51651">
        <ele>1562.76</ele>
        <time>2015-08-30T12:28:48Z</time>
      </trkpt>
      <trkpt lat="46.01364" lon="6.5165">
        <ele>1562.76</ele>
        <time>2015-08-30T12:29:27Z</time>
      </trkpt>
      <trkpt lat="46.01366" lon="6.51652">
        <ele>1562.76</ele>
        <time>2015-08-30T12:30:07Z</time>
      </trkpt>
      <trkpt lat="46.01367" lon="6.51652">
        <ele>1562.76</ele>
        <time>2015-08-30T12:30:46Z</time>
      </trkpt>
      <trkpt lat="46.01369" lon="6.51652">
        <ele>1562.76</ele>
        <time>2015-08-30T12:31:23Z</time>
      </trkpt>
      <trkpt lat="46.01367" lon="6.51652">
        <ele>1562.76</ele>
        <time>2015-08-30T12:31:51Z</time>
      </trkpt>
      <trkpt lat="46.01365" lon="6.51652">
        <ele>1562.28</ele>
        <time>2015-08-30T12:32:29Z</time>
      </trkpt>
      <trkpt lat="46.01366" lon="6.5165">
        <ele>1562.28</ele>
        <time>2015-08-30T12:33:03Z</time>
      </trkpt>
      <trkpt lat="46.01366" lon="6.51653">
        <ele>1562.28</ele>
        <time>2015-08-30T12:33:37Z</time>
      </trkpt>
      <trkpt lat="46.01366" lon="6.51652">
        <ele>1561.8</ele>
        <time>2015-08-30T12:34:17Z</time>
      </trkpt>
      <trkpt lat="46.01366" lon="6.51652">
        <ele>1561.8</ele>
        <time>2015-08-30T12:35:00Z</time>
      </trkpt>
      <trkpt lat="46.01367" lon="6.51651">
        <ele>1561.32</ele>
        <time>2015-08-30T12:35:44Z</time>
      </trkpt>
      <trkpt lat="46.01368" lon="6.51654">
        <ele>1561.32</ele>
        <time>2015-08-30T12:36:22Z</time>
      </trkpt>
      <trkpt lat="46.01368" lon="6.51652">
        <ele>1561.32</ele>
        <time>2015-08-30T12:37:02Z</time>
      </trkpt>
      <trkpt lat="46.01366" lon="6.51654">
        <ele>1561.32</ele>
        <time>2015-08-30T12:37:41Z</time>
      </trkpt>
      <trkpt lat="46.01365" lon="6.51652">
        <ele>1560.84</ele>
        <time>2015-08-30T12:38:22Z</time>
      </trkpt>
      <trkpt lat="46.01365" lon="6.51651">
        <ele>1560.84</ele>
        <time>2015-08-30T12:38:51Z</time>
      </trkpt>
      <trkpt lat="46.01367" lon="6.51652">
        <ele>1560.36</ele>
        <time>2015-08-30T12:39:24Z</time>
      </trkpt>
      <trkpt lat="46.01367" lon="6.51651">
        <ele>1560.36</ele>
        <time>2015-08-30T12:39:59Z</time>
      </trkpt>
      <trkpt lat="46.01368" lon="6.51651">
        <ele>1560.36</ele>
        <time>2015-08-30T12:40:39Z</time>
      </trkpt>
      <trkpt lat="46.01367" lon="6.51652">
        <ele>1560.36</ele>
        <time>2015-08-30T12:41:23Z</time>
      </trkpt>
      <trkpt lat="46.01366" lon="6.51652">
        <ele>1559.88</ele>
        <time>2015-08-30T12:41:59Z</time>
      </trkpt>
      <trkpt lat="46.01367" lon="6.51654">
        <ele>1559.88</ele>
        <time>2015-08-30T12:42:27Z</time>
      </trkpt>
      <trkpt lat="46.01365" lon="6.51653">
        <ele>1560.36</ele>
        <time>2015-08-30T12:42:34Z</time>
      </trkpt>
      <trkpt lat="46.01367" lon="6.51651">
        <ele>1560.36</ele>
        <time>2015-08-30T12:42:54Z</time>
      </trkpt>
      <trkpt lat="46.01364" lon="6.51641">
        <ele>1560.36</ele>
        <time>2015-08-30T12:43:14Z</time>
      </trkpt>
      <trkpt lat="46.0136" lon="6.51638">
        <ele>1558.92</ele>
        <time>2015-08-30T12:43:21Z</time>
      </trkpt>
      <trkpt lat="46.01351" lon="6.51632">
        <ele>1556.03</ele>
        <time>2015-08-30T12:43:36Z</time>
      </trkpt>
      <trkpt lat="46.01342" lon="6.51626">
        <ele>1552.67</ele>
        <time>2015-08-30T12:43:49Z</time>
      </trkpt>
      <trkpt lat="46.01332" lon="6.51625">
        <ele>1548.82</ele>
        <time>2015-08-30T12:44:00Z</time>
      </trkpt>
      <trkpt lat="46.01319" lon="6.51618">
        <ele>1546.42</ele>
        <time>2015-08-30T12:44:14Z</time>
      </trkpt>
      <trkpt lat="46.01314" lon="6.51616">
        <ele>1543.53</ele>
        <time>2015-08-30T12:44:22Z</time>
      </trkpt>
      <trkpt lat="46.01307" lon="6.51614">
        <ele>1541.61</ele>
        <time>2015-08-30T12:44:33Z</time>
      </trkpt>
      <trkpt lat="46.01303" lon="6.51611">
        <ele>1541.61</ele>
        <time>2015-08-30T12:44:36Z</time>
      </trkpt>
      <trkpt lat="46.01297" lon="6.51603">
        <ele>1540.65</ele>
        <time>2015-08-30T12:44:43Z</time>
      </trkpt>
      <trkpt lat="46.01289" lon="6.51584">
        <ele>1539.69</ele>
        <time>2015-08-30T12:44:59Z</time>
      </trkpt>
      <trkpt lat="46.01288" lon="6.51583">
        <ele>1539.69</ele>
        <time>2015-08-30T12:45:00Z</time>
      </trkpt>
      <trkpt lat="46.01283" lon="6.51568">
        <ele>1537.77</ele>
        <time>2015-08-30T12:45:12Z</time>
      </trkpt>
      <trkpt lat="46.01282" lon="6.51554">
        <ele>1534.4</ele>
        <time>2015-08-30T12:45:25Z</time>
      </trkpt>
      <trkpt lat="46.01282" lon="6.51548">
        <ele>1533.44</ele>
        <time>2015-08-30T12:45:29Z</time>
      </trkpt>
      <trkpt lat="46.01278" lon="6.51515">
        <ele>1530.08</ele>
        <time>2015-08-30T12:45:46Z</time>
      </trkpt>
      <trkpt lat="46.01279" lon="6.51497">
        <ele>1529.11</ele>
        <time>2015-08-30T12:45:57Z</time>
      </trkpt>
      <trkpt lat="46.01277" lon="6.51487">
        <ele>1527.19</ele>
        <time>2015-08-30T12:46:06Z</time>
      </trkpt>
      <trkpt lat="46.01272" lon="6.51478">
        <ele>1524.31</ele>
        <time>2015-08-30T12:46:13Z</time>
      </trkpt>
      <trkpt lat="46.01272" lon="6.51476">
        <ele>1524.31</ele>
        <time>2015-08-30T12:46:14Z</time>
      </trkpt>
      <trkpt lat="46.01269" lon="6.51459">
        <ele>1522.87</ele>
        <time>2015-08-30T12:46:30Z</time>
      </trkpt>
      <trkpt lat="46.01266" lon="6.51445">
        <ele>1522.39</ele>
        <time>2015-08-30T12:46:42Z</time>
      </trkpt>
      <trkpt lat="46.01266" lon="6.51437">
        <ele>1522.39</ele>
        <time>2015-08-30T12:47:06Z</time>
      </trkpt>
      <trkpt lat="46.0126" lon="6.51429">
        <ele>1521.9</ele>
        <time>2015-08-30T12:47:20Z</time>
      </trkpt>
      <trkpt lat="46.01251" lon="6.51416">
        <ele>1519.98</ele>
        <time>2015-08-30T12:47:33Z</time>
      </trkpt>
      <trkpt lat="46.01242" lon="6.514">
        <ele>1517.58</ele>
        <time>2015-08-30T12:47:47Z</time>
      </trkpt>
      <trkpt lat="46.0124" lon="6.51384">
        <ele>1516.14</ele>
        <time>2015-08-30T12:47:57Z</time>
      </trkpt>
      <trkpt lat="46.01232" lon="6.51368">
        <ele>1512.29</ele>
        <time>2015-08-30T12:48:10Z</time>
      </trkpt>
      <trkpt lat="46.01225" lon="6.51353">
        <ele>1510.37</ele>
        <time>2015-08-30T12:48:25Z</time>
      </trkpt>
      <trkpt lat="46.01219" lon="6.51343">
        <ele>1507.97</ele>
        <time>2015-08-30T12:48:43Z</time>
      </trkpt>
      <trkpt lat="46.01217" lon="6.51329">
        <ele>1507.48</ele>
        <time>2015-08-30T12:48:58Z</time>
      </trkpt>
      <trkpt lat="46.01208" lon="6.51326">
        <ele>1505.56</ele>
        <time>2015-08-30T12:49:20Z</time>
      </trkpt>
      <trkpt lat="46.01204" lon="6.51327">
        <ele>1502.2</ele>
        <time>2015-08-30T12:49:33Z</time>
      </trkpt>
      <trkpt lat="46.01203" lon="6.51327">
        <ele>1501.72</ele>
        <time>2015-08-30T12:49:35Z</time>
      </trkpt>
      <trkpt lat="46.01197" lon="6.51324">
        <ele>1498.83</ele>
        <time>2015-08-30T12:49:48Z</time>
      </trkpt>
      <trkpt lat="46.01191" lon="6.51315">
        <ele>1494.99</ele>
        <time>2015-08-30T12:50:00Z</time>
      </trkpt>
      <trkpt lat="46.01187" lon="6.51299">
        <ele>1493.06</ele>
        <time>2015-08-30T12:50:10Z</time>
      </trkpt>
      <trkpt lat="46.01186" lon="6.51287">
        <ele>1489.7</ele>
        <time>2015-08-30T12:50:21Z</time>
      </trkpt>
      <trkpt lat="46.01184" lon="6.51274">
        <ele>1487.3</ele>
        <time>2015-08-30T12:50:33Z</time>
      </trkpt>
      <trkpt lat="46.01183" lon="6.51259">
        <ele>1483.93</ele>
        <time>2015-08-30T12:50:44Z</time>
      </trkpt>
      <trkpt lat="46.01182" lon="6.51234">
        <ele>1481.53</ele>
        <time>2015-08-30T12:50:57Z</time>
      </trkpt>
      <trkpt lat="46.01178" lon="6.51219">
        <ele>1478.65</ele>
        <time>2015-08-30T12:51:09Z</time>
      </trkpt>
      <trkpt lat="46.01172" lon="6.51201">
        <ele>1476.72</ele>
        <time>2015-08-30T12:51:23Z</time>
      </trkpt>
      <trkpt lat="46.01172" lon="6.51199">
        <ele>1477.68</ele>
        <time>2015-08-30T12:51:25Z</time>
      </trkpt>
      <trkpt lat="46.01177" lon="6.51184">
        <ele>1480.57</ele>
        <time>2015-08-30T12:51:41Z</time>
      </trkpt>
      <trkpt lat="46.01184" lon="6.5117">
        <ele>1482.97</ele>
        <time>2015-08-30T12:51:57Z</time>
      </trkpt>
      <trkpt lat="46.01188" lon="6.51157">
        <ele>1484.41</ele>
        <time>2015-08-30T12:52:12Z</time>
      </trkpt>
      <trkpt lat="46.01188" lon="6.51151">
        <ele>1484.41</ele>
        <time>2015-08-30T12:52:16Z</time>
      </trkpt>
      <trkpt lat="46.01188" lon="6.51138">
        <ele>1482.49</ele>
        <time>2015-08-30T12:52:26Z</time>
      </trkpt>
      <trkpt lat="46.0118" lon="6.51117">
        <ele>1480.09</ele>
        <time>2015-08-30T12:52:43Z</time>
      </trkpt>
      <trkpt lat="46.01174" lon="6.51089">
        <ele>1478.16</ele>
        <time>2015-08-30T12:52:59Z</time>
      </trkpt>
      <trkpt lat="46.01172" lon="6.51085">
        <ele>1478.16</ele>
        <time>2015-08-30T12:53:02Z</time>
      </trkpt>
      <trkpt lat="46.01169" lon="6.51077">
        <ele>1477.68</ele>
        <time>2015-08-30T12:53:07Z</time>
      </trkpt>
      <trkpt lat="46.01168" lon="6.51059">
        <ele>1479.13</ele>
        <time>2015-08-30T12:53:19Z</time>
      </trkpt>
      <trkpt lat="46.01165" lon="6.51039">
        <ele>1478.65</ele>
        <time>2015-08-30T12:53:35Z</time>
      </trkpt>
      <trkpt lat="46.01164" lon="6.51038">
        <ele>1478.65</ele>
        <time>2015-08-30T12:53:36Z</time>
      </trkpt>
      <trkpt lat="46.01162" lon="6.5102">
        <ele>1479.61</ele>
        <time>2015-08-30T12:53:49Z</time>
      </trkpt>
      <trkpt lat="46.01162" lon="6.51003">
        <ele>1480.57</ele>
        <time>2015-08-30T12:54:02Z</time>
      </trkpt>
      <trkpt lat="46.0116" lon="6.50999">
        <ele>1481.53</ele>
        <time>2015-08-30T12:54:06Z</time>
      </trkpt>
      <trkpt lat="46.01154" lon="6.50981">
        <ele>1481.53</ele>
        <time>2015-08-30T12:54:22Z</time>
      </trkpt>
      <trkpt lat="46.01151" lon="6.50967">
        <ele>1483.93</ele>
        <time>2015-08-30T12:54:37Z</time>
      </trkpt>
      <trkpt lat="46.01151" lon="6.50957">
        <ele>1486.34</ele>
        <time>2015-08-30T12:54:51Z</time>
      </trkpt>
      <trkpt lat="46.01149" lon="6.50946">
        <ele>1488.74</ele>
        <time>2015-08-30T12:55:08Z</time>
      </trkpt>
      <trkpt lat="46.01149" lon="6.50935">
        <ele>1489.22</ele>
        <time>2015-08-30T12:55:21Z</time>
      </trkpt>
      <trkpt lat="46.01156" lon="6.50927">
        <ele>1491.14</ele>
        <time>2015-08-30T12:55:37Z</time>
      </trkpt>
      <trkpt lat="46.01164" lon="6.5092">
        <ele>1493.55</ele>
        <time>2015-08-30T12:55:52Z</time>
      </trkpt>
      <trkpt lat="46.01173" lon="6.50915">
        <ele>1496.43</ele>
        <time>2015-08-30T12:56:08Z</time>
      </trkpt>
      <trkpt lat="46.01179" lon="6.50908">
        <ele>1497.87</ele>
        <time>2015-08-30T12:56:23Z</time>
      </trkpt>
      <trkpt lat="46.01183" lon="6.50897">
        <ele>1499.31</ele>
        <time>2015-08-30T12:56:37Z</time>
      </trkpt>
      <trkpt lat="46.01188" lon="6.50886">
        <ele>1502.2</ele>
        <time>2015-08-30T12:56:54Z</time>
      </trkpt>
      <trkpt lat="46.01193" lon="6.50873">
        <ele>1504.12</ele>
        <time>2015-08-30T12:57:10Z</time>
      </trkpt>
      <trkpt lat="46.01196" lon="6.50864">
        <ele>1506.52</ele>
        <time>2015-08-30T12:57:25Z</time>
      </trkpt>
      <trkpt lat="46.01195" lon="6.50855">
        <ele>1508.45</ele>
        <time>2015-08-30T12:57:39Z</time>
      </trkpt>
      <trkpt lat="46.012" lon="6.50845">
        <ele>1510.37</ele>
        <time>2015-08-30T12:57:53Z</time>
      </trkpt>
      <trkpt lat="46.01205" lon="6.50835">
        <ele>1512.77</ele>
        <time>2015-08-30T12:58:08Z</time>
      </trkpt>
      <trkpt lat="46.01212" lon="6.50824">
        <ele>1514.69</ele>
        <time>2015-08-30T12:58:24Z</time>
      </trkpt>
      <trkpt lat="46.01212" lon="6.50811">
        <ele>1517.1</ele>
        <time>2015-08-30T12:58:41Z</time>
      </trkpt>
      <trkpt lat="46.01205" lon="6.50802">
        <ele>1519.98</ele>
        <time>2015-08-30T12:58:59Z</time>
      </trkpt>
      <trkpt lat="46.01196" lon="6.50794">
        <ele>1520.46</ele>
        <time>2015-08-30T12:59:13Z</time>
      </trkpt>
      <trkpt lat="46.01182" lon="6.50778">
        <ele>1521.42</ele>
        <time>2015-08-30T12:59:30Z</time>
      </trkpt>
      <trkpt lat="46.01179" lon="6.50761">
        <ele>1523.35</ele>
        <time>2015-08-30T12:59:43Z</time>
      </trkpt>
      <trkpt lat="46.01184" lon="6.50746">
        <ele>1525.27</ele>
        <time>2015-08-30T12:59:58Z</time>
      </trkpt>
      <trkpt lat="46.01185" lon="6.50741">
        <ele>1525.27</ele>
        <time>2015-08-30T13:00:10Z</time>
      </trkpt>
      <trkpt lat="46.01182" lon="6.50737">
        <ele>1525.27</ele>
        <time>2015-08-30T13:00:16Z</time>
      </trkpt>
      <trkpt lat="46.01173" lon="6.50718">
        <ele>1523.83</ele>
        <time>2015-08-30T13:00:33Z</time>
      </trkpt>
      <trkpt lat="46.01173" lon="6.50716">
        <ele>1523.83</ele>
        <time>2015-08-30T13:00:34Z</time>
      </trkpt>
      <trkpt lat="46.01166" lon="6.50688">
        <ele>1523.35</ele>
        <time>2015-08-30T13:00:51Z</time>
      </trkpt>
      <trkpt lat="46.01159" lon="6.5067">
        <ele>1524.31</ele>
        <time>2015-08-30T13:01:08Z</time>
      </trkpt>
      <trkpt lat="46.01149" lon="6.50658">
        <ele>1526.23</ele>
        <time>2015-08-30T13:01:21Z</time>
      </trkpt>
      <trkpt lat="46.01143" lon="6.5064">
        <ele>1527.67</ele>
        <time>2015-08-30T13:01:37Z</time>
      </trkpt>
      <trkpt lat="46.01135" lon="6.50627">
        <ele>1529.11</ele>
        <time>2015-08-30T13:01:52Z</time>
      </trkpt>
      <trkpt lat="46.01128" lon="6.50621">
        <ele>1527.67</ele>
        <time>2015-08-30T13:02:02Z</time>
      </trkpt>
      <trkpt lat="46.01117" lon="6.50621">
        <ele>1526.71</ele>
        <time>2015-08-30T13:02:12Z</time>
      </trkpt>
      <trkpt lat="46.01104" lon="6.5061">
        <ele>1525.27</ele>
        <time>2015-08-30T13:02:25Z</time>
      </trkpt>
      <trkpt lat="46.01087" lon="6.50608">
        <ele>1524.79</ele>
        <time>2015-08-30T13:02:43Z</time>
      </trkpt>
      <trkpt lat="46.01068" lon="6.50607">
        <ele>1523.35</ele>
        <time>2015-08-30T13:03:01Z</time>
      </trkpt>
      <trkpt lat="46.01063" lon="6.50599">
        <ele>1522.39</ele>
        <time>2015-08-30T13:03:15Z</time>
      </trkpt>
      <trkpt lat="46.0105" lon="6.50595">
        <ele>1520.46</ele>
        <time>2015-08-30T13:03:30Z</time>
      </trkpt>
      <trkpt lat="46.01045" lon="6.50592">
        <ele>1519.98</ele>
        <time>2015-08-30T13:03:35Z</time>
      </trkpt>
      <trkpt lat="46.01043" lon="6.5059">
        <ele>1519.98</ele>
        <time>2015-08-30T13:03:38Z</time>
      </trkpt>
      <trkpt lat="46.01041" lon="6.50585">
        <ele>1519.5</ele>
        <time>2015-08-30T13:03:41Z</time>
      </trkpt>
      <trkpt lat="46.01024" lon="6.50563">
        <ele>1518.06</ele>
        <time>2015-08-30T13:04:02Z</time>
      </trkpt>
      <trkpt lat="46.01023" lon="6.50562">
        <ele>1518.06</ele>
        <time>2015-08-30T13:04:03Z</time>
      </trkpt>
      <trkpt lat="46.01021" lon="6.50557">
        <ele>1517.58</ele>
        <time>2015-08-30T13:04:07Z</time>
      </trkpt>
      <trkpt lat="46.01014" lon="6.50551">
        <ele>1516.62</ele>
        <time>2015-08-30T13:04:14Z</time>
      </trkpt>
      <trkpt lat="46.00996" lon="6.50531">
        <ele>1515.66</ele>
        <time>2015-08-30T13:04:35Z</time>
      </trkpt>
      <trkpt lat="46.00979" lon="6.50513">
        <ele>1513.25</ele>
        <time>2015-08-30T13:04:54Z</time>
      </trkpt>
      <trkpt lat="46.00961" lon="6.50501">
        <ele>1510.85</ele>
        <time>2015-08-30T13:05:12Z</time>
      </trkpt>
      <trkpt lat="46.00939" lon="6.5049">
        <ele>1508.93</ele>
        <time>2015-08-30T13:05:32Z</time>
      </trkpt>
      <trkpt lat="46.00925" lon="6.50493">
        <ele>1509.89</ele>
        <time>2015-08-30T13:05:47Z</time>
      </trkpt>
      <trkpt lat="46.00914" lon="6.50498">
        <ele>1512.29</ele>
        <time>2015-08-30T13:06:01Z</time>
      </trkpt>
      <trkpt lat="46.00903" lon="6.50503">
        <ele>1513.25</ele>
        <time>2015-08-30T13:06:16Z</time>
      </trkpt>
      <trkpt lat="46.00891" lon="6.50506">
        <ele>1515.18</ele>
        <time>2015-08-30T13:06:31Z</time>
      </trkpt>
      <trkpt lat="46.00877" lon="6.50505">
        <ele>1516.14</ele>
        <time>2015-08-30T13:06:47Z</time>
      </trkpt>
      <trkpt lat="46.00863" lon="6.50504">
        <ele>1518.06</ele>
        <time>2015-08-30T13:07:03Z</time>
      </trkpt>
      <trkpt lat="46.00849" lon="6.50503">
        <ele>1519.02</ele>
        <time>2015-08-30T13:07:18Z</time>
      </trkpt>
      <trkpt lat="46.00847" lon="6.50504">
        <ele>1519.02</ele>
        <time>2015-08-30T13:07:20Z</time>
      </trkpt>
      <trkpt lat="46.00845" lon="6.50503">
        <ele>1519.02</ele>
        <time>2015-08-30T13:07:22Z</time>
      </trkpt>
      <trkpt lat="46.00839" lon="6.50502">
        <ele>1519.5</ele>
        <time>2015-08-30T13:07:32Z</time>
      </trkpt>
      <trkpt lat="46.00829" lon="6.50505">
        <ele>1517.58</ele>
        <time>2015-08-30T13:07:47Z</time>
      </trkpt>
      <trkpt lat="46.00825" lon="6.50505">
        <ele>1517.1</ele>
        <time>2015-08-30T13:07:51Z</time>
      </trkpt>
      <trkpt lat="46.00819" lon="6.50505">
        <ele>1516.62</ele>
        <time>2015-08-30T13:07:56Z</time>
      </trkpt>
      <trkpt lat="46.00812" lon="6.50499">
        <ele>1516.14</ele>
        <time>2015-08-30T13:08:12Z</time>
      </trkpt>
      <trkpt lat="46.00812" lon="6.50497">
        <ele>1515.18</ele>
        <time>2015-08-30T13:08:35Z</time>
      </trkpt>
      <trkpt lat="46.00812" lon="6.50495">
        <ele>1515.18</ele>
        <time>2015-08-30T13:08:53Z</time>
      </trkpt>
      <trkpt lat="46.00814" lon="6.50495">
        <ele>1514.69</ele>
        <time>2015-08-30T13:09:12Z</time>
      </trkpt>
      <trkpt lat="46.00812" lon="6.50496">
        <ele>1514.69</ele>
        <time>2015-08-30T13:09:36Z</time>
      </trkpt>
      <trkpt lat="46.00812" lon="6.50498">
        <ele>1514.69</ele>
        <time>2015-08-30T13:09:55Z</time>
      </trkpt>
      <trkpt lat="46.00812" lon="6.50497">
        <ele>1514.21</ele>
        <time>2015-08-30T13:10:18Z</time>
      </trkpt>
      <trkpt lat="46.00809" lon="6.50495">
        <ele>1514.21</ele>
        <time>2015-08-30T13:10:34Z</time>
      </trkpt>
      <trkpt lat="46.00796" lon="6.50478">
        <ele>1513.73</ele>
        <time>2015-08-30T13:10:51Z</time>
      </trkpt>
      <trkpt lat="46.0079" lon="6.50471">
        <ele>1512.77</ele>
        <time>2015-08-30T13:10:59Z</time>
      </trkpt>
      <trkpt lat="46.00785" lon="6.50467">
        <ele>1511.81</ele>
        <time>2015-08-30T13:11:18Z</time>
      </trkpt>
      <trkpt lat="46.00785" lon="6.50466">
        <ele>1511.81</ele>
        <time>2015-08-30T13:11:30Z</time>
      </trkpt>
      <trkpt lat="46.00785" lon="6.50464">
        <ele>1511.81</ele>
        <time>2015-08-30T13:11:44Z</time>
      </trkpt>
      <trkpt lat="46.00785" lon="6.50462">
        <ele>1511.33</ele>
        <time>2015-08-30T13:12:07Z</time>
      </trkpt>
      <trkpt lat="46.00784" lon="6.50453">
        <ele>1511.33</ele>
        <time>2015-08-30T13:12:23Z</time>
      </trkpt>
      <trkpt lat="46.0078" lon="6.5045">
        <ele>1510.85</ele>
        <time>2015-08-30T13:12:41Z</time>
      </trkpt>
      <trkpt lat="46.00784" lon="6.50454">
        <ele>1510.85</ele>
        <time>2015-08-30T13:12:49Z</time>
      </trkpt>
      <trkpt lat="46.00798" lon="6.50473">
        <ele>1512.77</ele>
        <time>2015-08-30T13:13:07Z</time>
      </trkpt>
      <trkpt lat="46.00815" lon="6.50479">
        <ele>1515.66</ele>
        <time>2015-08-30T13:13:25Z</time>
      </trkpt>
      <trkpt lat="46.00824" lon="6.50475">
        <ele>1517.1</ele>
        <time>2015-08-30T13:13:37Z</time>
      </trkpt>
      <trkpt lat="46.00823" lon="6.50472">
        <ele>1518.06</ele>
        <time>2015-08-30T13:13:52Z</time>
      </trkpt>
      <trkpt lat="46.00826" lon="6.50466">
        <ele>1518.54</ele>
        <time>2015-08-30T13:14:04Z</time>
      </trkpt>
      <trkpt lat="46.00828" lon="6.50469">
        <ele>1518.54</ele>
        <time>2015-08-30T13:14:19Z</time>
      </trkpt>
      <trkpt lat="46.00831" lon="6.50469">
        <ele>1518.54</ele>
        <time>2015-08-30T13:14:22Z</time>
      </trkpt>
      <trkpt lat="46.00838" lon="6.50465">
        <ele>1519.02</ele>
        <time>2015-08-30T13:14:33Z</time>
      </trkpt>
      <trkpt lat="46.00838" lon="6.50456">
        <ele>1519.5</ele>
        <time>2015-08-30T13:14:45Z</time>
      </trkpt>
      <trkpt lat="46.00837" lon="6.50454">
        <ele>1519.5</ele>
        <time>2015-08-30T13:15:02Z</time>
      </trkpt>
      <trkpt lat="46.00837" lon="6.50454">
        <ele>1519.5</ele>
        <time>2015-08-30T13:15:19Z</time>
      </trkpt>
      <trkpt lat="46.00836" lon="6.50455">
        <ele>1519.5</ele>
        <time>2015-08-30T13:15:34Z</time>
      </trkpt>
      <trkpt lat="46.00837" lon="6.50461">
        <ele>1519.5</ele>
        <time>2015-08-30T13:15:42Z</time>
      </trkpt>
      <trkpt lat="46.00837" lon="6.5047">
        <ele>1519.5</ele>
        <time>2015-08-30T13:15:48Z</time>
      </trkpt>
      <trkpt lat="46.00836" lon="6.50473">
        <ele>1518.06</ele>
        <time>2015-08-30T13:15:50Z</time>
      </trkpt>
      <trkpt lat="46.00817" lon="6.50483">
        <ele>1515.18</ele>
        <time>2015-08-30T13:16:06Z</time>
      </trkpt>
      <trkpt lat="46.00811" lon="6.50483">
        <ele>1513.73</ele>
        <time>2015-08-30T13:16:10Z</time>
      </trkpt>
      <trkpt lat="46.00796" lon="6.50475">
        <ele>1510.37</ele>
        <time>2015-08-30T13:16:23Z</time>
      </trkpt>
      <trkpt lat="46.00786" lon="6.50464">
        <ele>1509.41</ele>
        <time>2015-08-30T13:16:33Z</time>
      </trkpt>
      <trkpt lat="46.00785" lon="6.50455">
        <ele>1509.41</ele>
        <time>2015-08-30T13:16:38Z</time>
      </trkpt>
      <trkpt lat="46.00782" lon="6.50448">
        <ele>1509.41</ele>
        <time>2015-08-30T13:16:53Z</time>
      </trkpt>
      <trkpt lat="46.00787" lon="6.50437">
        <ele>1510.85</ele>
        <time>2015-08-30T13:17:09Z</time>
      </trkpt>
      <trkpt lat="46.00786" lon="6.50433">
        <ele>1511.33</ele>
        <time>2015-08-30T13:17:12Z</time>
      </trkpt>
      <trkpt lat="46.00786" lon="6.50429">
        <ele>1511.33</ele>
        <time>2015-08-30T13:17:15Z</time>
      </trkpt>
      <trkpt lat="46.00781" lon="6.50401">
        <ele>1510.85</ele>
        <time>2015-08-30T13:17:34Z</time>
      </trkpt>
      <trkpt lat="46.00781" lon="6.504">
        <ele>1510.85</ele>
        <time>2015-08-30T13:17:35Z</time>
      </trkpt>
      <trkpt lat="46.00779" lon="6.50396">
        <ele>1510.85</ele>
        <time>2015-08-30T13:17:38Z</time>
      </trkpt>
      <trkpt lat="46.00774" lon="6.50383">
        <ele>1510.85</ele>
        <time>2015-08-30T13:17:52Z</time>
      </trkpt>
      <trkpt lat="46.00776" lon="6.50376">
        <ele>1510.85</ele>
        <time>2015-08-30T13:17:59Z</time>
      </trkpt>
      <trkpt lat="46.00774" lon="6.50368">
        <ele>1510.85</ele>
        <time>2015-08-30T13:18:04Z</time>
      </trkpt>
      <trkpt lat="46.00768" lon="6.50342">
        <ele>1511.33</ele>
        <time>2015-08-30T13:18:22Z</time>
      </trkpt>
      <trkpt lat="46.00766" lon="6.50334">
        <ele>1509.89</ele>
        <time>2015-08-30T13:18:28Z</time>
      </trkpt>
      <trkpt lat="46.00761" lon="6.50307">
        <ele>1508.93</ele>
        <time>2015-08-30T13:18:44Z</time>
      </trkpt>
      <trkpt lat="46.00756" lon="6.50282">
        <ele>1508.45</ele>
        <time>2015-08-30T13:18:59Z</time>
      </trkpt>
      <trkpt lat="46.00757" lon="6.50271">
        <ele>1508.45</ele>
        <time>2015-08-30T13:19:06Z</time>
      </trkpt>
      <trkpt lat="46.00752" lon="6.50248">
        <ele>1509.89</ele>
        <time>2015-08-30T13:19:23Z</time>
      </trkpt>
      <trkpt lat="46.00753" lon="6.5025">
        <ele>1509.89</ele>
        <time>2015-08-30T13:19:35Z</time>
      </trkpt>
      <trkpt lat="46.00752" lon="6.50252">
        <ele>1509.89</ele>
        <time>2015-08-30T13:19:49Z</time>
      </trkpt>
      <trkpt lat="46.00751" lon="6.50246">
        <ele>1509.41</ele>
        <time>2015-08-30T13:20:12Z</time>
      </trkpt>
      <trkpt lat="46.00753" lon="6.50228">
        <ele>1511.81</ele>
        <time>2015-08-30T13:20:27Z</time>
      </trkpt>
      <trkpt lat="46.00758" lon="6.50212">
        <ele>1513.25</ele>
        <time>2015-08-30T13:20:43Z</time>
      </trkpt>
      <trkpt lat="46.00761" lon="6.50196">
        <ele>1515.18</ele>
        <time>2015-08-30T13:20:58Z</time>
      </trkpt>
      <trkpt lat="46.0076" lon="6.5019">
        <ele>1515.66</ele>
        <time>2015-08-30T13:21:03Z</time>
      </trkpt>
      <trkpt lat="46.0076" lon="6.50168">
        <ele>1517.58</ele>
        <time>2015-08-30T13:21:21Z</time>
      </trkpt>
      <trkpt lat="46.00762" lon="6.5015">
        <ele>1519.02</ele>
        <time>2015-08-30T13:21:36Z</time>
      </trkpt>
      <trkpt lat="46.00765" lon="6.50137">
        <ele>1520.46</ele>
        <time>2015-08-30T13:21:51Z</time>
      </trkpt>
      <trkpt lat="46.00766" lon="6.50125">
        <ele>1522.39</ele>
        <time>2015-08-30T13:22:06Z</time>
      </trkpt>
      <trkpt lat="46.00768" lon="6.5011">
        <ele>1524.79</ele>
        <time>2015-08-30T13:22:23Z</time>
      </trkpt>
      <trkpt lat="46.00768" lon="6.50096">
        <ele>1524.79</ele>
        <time>2015-08-30T13:22:36Z</time>
      </trkpt>
      <trkpt lat="46.00769" lon="6.50083">
        <ele>1527.19</ele>
        <time>2015-08-30T13:22:51Z</time>
      </trkpt>
      <trkpt lat="46.00768" lon="6.50069">
        <ele>1529.11</ele>
        <time>2015-08-30T13:23:07Z</time>
      </trkpt>
      <trkpt lat="46.00767" lon="6.50057">
        <ele>1529.59</ele>
        <time>2015-08-30T13:23:20Z</time>
      </trkpt>
      <trkpt lat="46.00768" lon="6.50044">
        <ele>1530.56</ele>
        <time>2015-08-30T13:23:35Z</time>
      </trkpt>
      <trkpt lat="46.00768" lon="6.50038">
        <ele>1531.52</ele>
        <time>2015-08-30T13:23:47Z</time>
      </trkpt>
      <trkpt lat="46.00767" lon="6.50025">
        <ele>1532.48</ele>
        <time>2015-08-30T13:24:03Z</time>
      </trkpt>
      <trkpt lat="46.00766" lon="6.50012">
        <ele>1534.4</ele>
        <time>2015-08-30T13:24:18Z</time>
      </trkpt>
      <trkpt lat="46.00763" lon="6.50004">
        <ele>1534.4</ele>
        <time>2015-08-30T13:24:31Z</time>
      </trkpt>
      <trkpt lat="46.00758" lon="6.49993">
        <ele>1535.84</ele>
        <time>2015-08-30T13:24:45Z</time>
      </trkpt>
      <trkpt lat="46.00754" lon="6.49981">
        <ele>1537.29</ele>
        <time>2015-08-30T13:24:58Z</time>
      </trkpt>
      <trkpt lat="46.0075" lon="6.49969">
        <ele>1537.77</ele>
        <time>2015-08-30T13:25:13Z</time>
      </trkpt>
      <trkpt lat="46.00746" lon="6.49961">
        <ele>1539.21</ele>
        <time>2015-08-30T13:25:25Z</time>
      </trkpt>
      <trkpt lat="46.00741" lon="6.4995">
        <ele>1539.69</ele>
        <time>2015-08-30T13:25:40Z</time>
      </trkpt>
      <trkpt lat="46.00732" lon="6.49936">
        <ele>1540.65</ele>
        <time>2015-08-30T13:25:57Z</time>
      </trkpt>
      <trkpt lat="46.00729" lon="6.49925">
        <ele>1541.61</ele>
        <time>2015-08-30T13:26:11Z</time>
      </trkpt>
      <trkpt lat="46.00727" lon="6.49922">
        <ele>1542.57</ele>
        <time>2015-08-30T13:26:15Z</time>
      </trkpt>
      <trkpt lat="46.00724" lon="6.49917">
        <ele>1542.57</ele>
        <time>2015-08-30T13:26:19Z</time>
      </trkpt>
      <trkpt lat="46.00721" lon="6.49908">
        <ele>1542.57</ele>
        <time>2015-08-30T13:26:33Z</time>
      </trkpt>
      <trkpt lat="46.00717" lon="6.49901">
        <ele>1543.05</ele>
        <time>2015-08-30T13:26:47Z</time>
      </trkpt>
      <trkpt lat="46.00708" lon="6.49887">
        <ele>1544.98</ele>
        <time>2015-08-30T13:27:03Z</time>
      </trkpt>
      <trkpt lat="46.00705" lon="6.49875">
        <ele>1546.9</ele>
        <time>2015-08-30T13:27:18Z</time>
      </trkpt>
      <trkpt lat="46.00703" lon="6.4987">
        <ele>1548.34</ele>
        <time>2015-08-30T13:27:32Z</time>
      </trkpt>
      <trkpt lat="46.00695" lon="6.49858">
        <ele>1548.34</ele>
        <time>2015-08-30T13:27:47Z</time>
      </trkpt>
      <trkpt lat="46.00694" lon="6.49856">
        <ele>1548.82</ele>
        <time>2015-08-30T13:27:57Z</time>
      </trkpt>
      <trkpt lat="46.00689" lon="6.49848">
        <ele>1549.78</ele>
        <time>2015-08-30T13:28:10Z</time>
      </trkpt>
      <trkpt lat="46.00682" lon="6.49845">
        <ele>1550.74</ele>
        <time>2015-08-30T13:28:22Z</time>
      </trkpt>
      <trkpt lat="46.00676" lon="6.49842">
        <ele>1552.67</ele>
        <time>2015-08-30T13:28:37Z</time>
      </trkpt>
      <trkpt lat="46.00672" lon="6.49836">
        <ele>1555.55</ele>
        <time>2015-08-30T13:28:51Z</time>
      </trkpt>
      <trkpt lat="46.00663" lon="6.4983">
        <ele>1558.43</ele>
        <time>2015-08-30T13:29:07Z</time>
      </trkpt>
      <trkpt lat="46.00656" lon="6.49822">
        <ele>1559.88</ele>
        <time>2015-08-30T13:29:22Z</time>
      </trkpt>
      <trkpt lat="46.00651" lon="6.49816">
        <ele>1562.28</ele>
        <time>2015-08-30T13:29:40Z</time>
      </trkpt>
      <trkpt lat="46.00646" lon="6.49804">
        <ele>1565.16</ele>
        <time>2015-08-30T13:29:57Z</time>
      </trkpt>
      <trkpt lat="46.00642" lon="6.49796">
        <ele>1568.05</ele>
        <time>2015-08-30T13:30:14Z</time>
      </trkpt>
      <trkpt lat="46.00635" lon="6.49788">
        <ele>1569.49</ele>
        <time>2015-08-30T13:30:30Z</time>
      </trkpt>
      <trkpt lat="46.00631" lon="6.49784">
        <ele>1571.41</ele>
        <time>2015-08-30T13:30:43Z</time>
      </trkpt>
      <trkpt lat="46.00629" lon="6.49788">
        <ele>1571.89</ele>
        <time>2015-08-30T13:30:56Z</time>
      </trkpt>
      <trkpt lat="46.00627" lon="6.49787">
        <ele>1571.89</ele>
        <time>2015-08-30T13:31:19Z</time>
      </trkpt>
      <trkpt lat="46.00623" lon="6.4979">
        <ele>1570.45</ele>
        <time>2015-08-30T13:31:26Z</time>
      </trkpt>
      <trkpt lat="46.00621" lon="6.49795">
        <ele>1569.49</ele>
        <time>2015-08-30T13:31:33Z</time>
      </trkpt>
      <trkpt lat="46.00615" lon="6.49799">
        <ele>1569.01</ele>
        <time>2015-08-30T13:31:46Z</time>
      </trkpt>
      <trkpt lat="46.00616" lon="6.49798">
        <ele>1569.49</ele>
        <time>2015-08-30T13:32:10Z</time>
      </trkpt>
      <trkpt lat="46.00609" lon="6.49799">
        <ele>1569.49</ele>
        <time>2015-08-30T13:32:29Z</time>
      </trkpt>
      <trkpt lat="46.00603" lon="6.49797">
        <ele>1569.49</ele>
        <time>2015-08-30T13:32:40Z</time>
      </trkpt>
      <trkpt lat="46.00597" lon="6.49798">
        <ele>1570.45</ele>
        <time>2015-08-30T13:32:54Z</time>
      </trkpt>
      <trkpt lat="46.00591" lon="6.49801">
        <ele>1570.45</ele>
        <time>2015-08-30T13:33:06Z</time>
      </trkpt>
      <trkpt lat="46.00583" lon="6.49802">
        <ele>1570.45</ele>
        <time>2015-08-30T13:33:19Z</time>
      </trkpt>
      <trkpt lat="46.00575" lon="6.49802">
        <ele>1570.45</ele>
        <time>2015-08-30T13:33:31Z</time>
      </trkpt>
      <trkpt lat="46.00568" lon="6.49801">
        <ele>1570.45</ele>
        <time>2015-08-30T13:33:46Z</time>
      </trkpt>
      <trkpt lat="46.00563" lon="6.49807">
        <ele>1570.45</ele>
        <time>2015-08-30T13:34:01Z</time>
      </trkpt>
      <trkpt lat="46.00559" lon="6.49806">
        <ele>1570.93</ele>
        <time>2015-08-30T13:34:14Z</time>
      </trkpt>
      <trkpt lat="46.00559" lon="6.49808">
        <ele>1571.41</ele>
        <time>2015-08-30T13:34:34Z</time>
      </trkpt>
      <trkpt lat="46.00556" lon="6.49806">
        <ele>1571.41</ele>
        <time>2015-08-30T13:34:51Z</time>
      </trkpt>
      <trkpt lat="46.00555" lon="6.49812">
        <ele>1572.37</ele>
        <time>2015-08-30T13:35:06Z</time>
      </trkpt>
      <trkpt lat="46.00554" lon="6.49815">
        <ele>1570.93</ele>
        <time>2015-08-30T13:35:09Z</time>
      </trkpt>
      <trkpt lat="46.00551" lon="6.49822">
        <ele>1569.01</ele>
        <time>2015-08-30T13:35:19Z</time>
      </trkpt>
      <trkpt lat="46.0055" lon="6.49831">
        <ele>1566.12</ele>
        <time>2015-08-30T13:35:31Z</time>
      </trkpt>
      <trkpt lat="46.00549" lon="6.49833">
        <ele>1565.64</ele>
        <time>2015-08-30T13:35:32Z</time>
      </trkpt>
      <trkpt lat="46.00546" lon="6.49844">
        <ele>1564.68</ele>
        <time>2015-08-30T13:35:45Z</time>
      </trkpt>
      <trkpt lat="46.00536" lon="6.49846">
        <ele>1566.12</ele>
        <time>2015-08-30T13:35:56Z</time>
      </trkpt>
      <trkpt lat="46.00528" lon="6.49838">
        <ele>1569.01</ele>
        <time>2015-08-30T13:36:11Z</time>
      </trkpt>
      <trkpt lat="46.00524" lon="6.49828">
        <ele>1570.93</ele>
        <time>2015-08-30T13:36:25Z</time>
      </trkpt>
      <trkpt lat="46.00515" lon="6.49821">
        <ele>1571.89</ele>
        <time>2015-08-30T13:36:38Z</time>
      </trkpt>
      <trkpt lat="46.00505" lon="6.49815">
        <ele>1573.82</ele>
        <time>2015-08-30T13:36:53Z</time>
      </trkpt>
      <trkpt lat="46.00497" lon="6.4981">
        <ele>1577.18</ele>
        <time>2015-08-30T13:37:07Z</time>
      </trkpt>
      <trkpt lat="46.00492" lon="6.498">
        <ele>1579.1</ele>
        <time>2015-08-30T13:37:22Z</time>
      </trkpt>
      <trkpt lat="46.00491" lon="6.49787">
        <ele>1581.03</ele>
        <time>2015-08-30T13:37:36Z</time>
      </trkpt>
      <trkpt lat="46.00488" lon="6.49776">
        <ele>1582.47</ele>
        <time>2015-08-30T13:37:49Z</time>
      </trkpt>
      <trkpt lat="46.00482" lon="6.49766">
        <ele>1584.39</ele>
        <time>2015-08-30T13:38:04Z</time>
      </trkpt>
      <trkpt lat="46.00475" lon="6.49758">
        <ele>1586.31</ele>
        <time>2015-08-30T13:38:18Z</time>
      </trkpt>
      <trkpt lat="46.00472" lon="6.49749">
        <ele>1588.72</ele>
        <time>2015-08-30T13:38:32Z</time>
      </trkpt>
      <trkpt lat="46.00469" lon="6.49738">
        <ele>1590.64</ele>
        <time>2015-08-30T13:38:47Z</time>
      </trkpt>
      <trkpt lat="46.00465" lon="6.49728">
        <ele>1593.04</ele>
        <time>2015-08-30T13:39:01Z</time>
      </trkpt>
      <trkpt lat="46.00464" lon="6.49728">
        <ele>1593.04</ele>
        <time>2015-08-30T13:39:02Z</time>
      </trkpt>
      <trkpt lat="46.00459" lon="6.49714">
        <ele>1593.04</ele>
        <time>2015-08-30T13:39:15Z</time>
      </trkpt>
      <trkpt lat="46.00454" lon="6.49698">
        <ele>1594.96</ele>
        <time>2015-08-30T13:39:30Z</time>
      </trkpt>
      <trkpt lat="46.00449" lon="6.49685">
        <ele>1596.41</ele>
        <time>2015-08-30T13:39:44Z</time>
      </trkpt>
      <trkpt lat="46.00443" lon="6.49673">
        <ele>1597.85</ele>
        <time>2015-08-30T13:39:57Z</time>
      </trkpt>
      <trkpt lat="46.00435" lon="6.4966">
        <ele>1598.81</ele>
        <time>2015-08-30T13:40:11Z</time>
      </trkpt>
      <trkpt lat="46.00434" lon="6.49659">
        <ele>1598.81</ele>
        <time>2015-08-30T13:40:12Z</time>
      </trkpt>
      <trkpt lat="46.00427" lon="6.49639">
        <ele>1597.85</ele>
        <time>2015-08-30T13:40:29Z</time>
      </trkpt>
      <trkpt lat="46.00419" lon="6.49622">
        <ele>1596.89</ele>
        <time>2015-08-30T13:40:43Z</time>
      </trkpt>
      <trkpt lat="46.00418" lon="6.49621">
        <ele>1596.89</ele>
        <time>2015-08-30T13:40:44Z</time>
      </trkpt>
      <trkpt lat="46.00415" lon="6.49616">
        <ele>1596.89</ele>
        <time>2015-08-30T13:40:49Z</time>
      </trkpt>
      <trkpt lat="46.00404" lon="6.49593">
        <ele>1597.37</ele>
        <time>2015-08-30T13:41:08Z</time>
      </trkpt>
      <trkpt lat="46.00404" lon="6.49592">
        <ele>1597.37</ele>
        <time>2015-08-30T13:41:09Z</time>
      </trkpt>
      <trkpt lat="46.00402" lon="6.49577">
        <ele>1599.29</ele>
        <time>2015-08-30T13:41:24Z</time>
      </trkpt>
      <trkpt lat="46.00398" lon="6.49563">
        <ele>1601.21</ele>
        <time>2015-08-30T13:41:37Z</time>
      </trkpt>
      <trkpt lat="46.00394" lon="6.49553">
        <ele>1602.17</ele>
        <time>2015-08-30T13:41:51Z</time>
      </trkpt>
      <trkpt lat="46.00388" lon="6.49543">
        <ele>1603.14</ele>
        <time>2015-08-30T13:42:03Z</time>
      </trkpt>
      <trkpt lat="46.00378" lon="6.49529">
        <ele>1602.17</ele>
        <time>2015-08-30T13:42:19Z</time>
      </trkpt>
      <trkpt lat="46.00368" lon="6.4951">
        <ele>1601.21</ele>
        <time>2015-08-30T13:42:36Z</time>
      </trkpt>
      <trkpt lat="46.00365" lon="6.49492">
        <ele>1600.73</ele>
        <time>2015-08-30T13:42:49Z</time>
      </trkpt>
      <trkpt lat="46.00357" lon="6.49474">
        <ele>1600.73</ele>
        <time>2015-08-30T13:43:05Z</time>
      </trkpt>
      <trkpt lat="46.00351" lon="6.49459">
        <ele>1602.66</ele>
        <time>2015-08-30T13:43:19Z</time>
      </trkpt>
      <trkpt lat="46.00347" lon="6.49446">
        <ele>1604.58</ele>
        <time>2015-08-30T13:43:32Z</time>
      </trkpt>
      <trkpt lat="46.00342" lon="6.4943">
        <ele>1606.5</ele>
        <time>2015-08-30T13:43:47Z</time>
      </trkpt>
      <trkpt lat="46.00337" lon="6.49416">
        <ele>1606.98</ele>
        <time>2015-08-30T13:44:01Z</time>
      </trkpt>
      <trkpt lat="46.00334" lon="6.49406">
        <ele>1609.38</ele>
        <time>2015-08-30T13:44:15Z</time>
      </trkpt>
      <trkpt lat="46.00329" lon="6.49397">
        <ele>1610.83</ele>
        <time>2015-08-30T13:44:28Z</time>
      </trkpt>
      <trkpt lat="46.00325" lon="6.49388">
        <ele>1613.23</ele>
        <time>2015-08-30T13:44:43Z</time>
      </trkpt>
      <trkpt lat="46.0032" lon="6.49377">
        <ele>1614.67</ele>
        <time>2015-08-30T13:44:56Z</time>
      </trkpt>
      <trkpt lat="46.00317" lon="6.49363">
        <ele>1616.59</ele>
        <time>2015-08-30T13:45:12Z</time>
      </trkpt>
      <trkpt lat="46.00314" lon="6.49353">
        <ele>1619</ele>
        <time>2015-08-30T13:45:27Z</time>
      </trkpt>
      <trkpt lat="46.00311" lon="6.49345">
        <ele>1621.88</ele>
        <time>2015-08-30T13:45:43Z</time>
      </trkpt>
      <trkpt lat="46.00308" lon="6.49332">
        <ele>1623.8</ele>
        <time>2015-08-30T13:45:58Z</time>
      </trkpt>
      <trkpt lat="46.00302" lon="6.49318">
        <ele>1625.73</ele>
        <time>2015-08-30T13:46:16Z</time>
      </trkpt>
      <trkpt lat="46.00301" lon="6.49307">
        <ele>1626.21</ele>
        <time>2015-08-30T13:46:30Z</time>
      </trkpt>
      <trkpt lat="46.00298" lon="6.49293">
        <ele>1627.65</ele>
        <time>2015-08-30T13:46:45Z</time>
      </trkpt>
      <trkpt lat="46.00299" lon="6.49278">
        <ele>1629.57</ele>
        <time>2015-08-30T13:47:01Z</time>
      </trkpt>
      <trkpt lat="46.00301" lon="6.49269">
        <ele>1632.94</ele>
        <time>2015-08-30T13:47:20Z</time>
      </trkpt>
      <trkpt lat="46.00305" lon="6.49262">
        <ele>1634.38</ele>
        <time>2015-08-30T13:47:39Z</time>
      </trkpt>
      <trkpt lat="46.0031" lon="6.49252">
        <ele>1637.26</ele>
        <time>2015-08-30T13:47:56Z</time>
      </trkpt>
      <trkpt lat="46.00312" lon="6.49243">
        <ele>1639.19</ele>
        <time>2015-08-30T13:48:11Z</time>
      </trkpt>
      <trkpt lat="46.00314" lon="6.49236">
        <ele>1639.67</ele>
        <time>2015-08-30T13:48:18Z</time>
      </trkpt>
      <trkpt lat="46.00318" lon="6.49222">
        <ele>1641.59</ele>
        <time>2015-08-30T13:48:33Z</time>
      </trkpt>
      <trkpt lat="46.00324" lon="6.49211">
        <ele>1643.03</ele>
        <time>2015-08-30T13:48:46Z</time>
      </trkpt>
      <trkpt lat="46.00331" lon="6.49197">
        <ele>1644.95</ele>
        <time>2015-08-30T13:49:03Z</time>
      </trkpt>
      <trkpt lat="46.00337" lon="6.49188">
        <ele>1646.88</ele>
        <time>2015-08-30T13:49:17Z</time>
      </trkpt>
      <trkpt lat="46.00342" lon="6.49178">
        <ele>1648.8</ele>
        <time>2015-08-30T13:49:32Z</time>
      </trkpt>
      <trkpt lat="46.00345" lon="6.49174">
        <ele>1650.72</ele>
        <time>2015-08-30T13:49:48Z</time>
      </trkpt>
      <trkpt lat="46.00352" lon="6.49169">
        <ele>1653.12</ele>
        <time>2015-08-30T13:50:04Z</time>
      </trkpt>
      <trkpt lat="46.00359" lon="6.49163">
        <ele>1655.05</ele>
        <time>2015-08-30T13:50:19Z</time>
      </trkpt>
      <trkpt lat="46.00364" lon="6.4916">
        <ele>1657.45</ele>
        <time>2015-08-30T13:50:31Z</time>
      </trkpt>
      <trkpt lat="46.00369" lon="6.49152">
        <ele>1659.37</ele>
        <time>2015-08-30T13:50:46Z</time>
      </trkpt>
      <trkpt lat="46.00372" lon="6.49147">
        <ele>1661.3</ele>
        <time>2015-08-30T13:50:59Z</time>
      </trkpt>
      <trkpt lat="46.00373" lon="6.4914">
        <ele>1664.18</ele>
        <time>2015-08-30T13:51:14Z</time>
      </trkpt>
      <trkpt lat="46.00373" lon="6.4913">
        <ele>1666.1</ele>
        <time>2015-08-30T13:51:28Z</time>
      </trkpt>
      <trkpt lat="46.00371" lon="6.49116">
        <ele>1667.06</ele>
        <time>2015-08-30T13:51:43Z</time>
      </trkpt>
      <trkpt lat="46.00372" lon="6.49107">
        <ele>1665.62</ele>
        <time>2015-08-30T13:51:52Z</time>
      </trkpt>
      <trkpt lat="46.00375" lon="6.49092">
        <ele>1665.62</ele>
        <time>2015-08-30T13:52:04Z</time>
      </trkpt>
      <trkpt lat="46.00373" lon="6.49074">
        <ele>1664.66</ele>
        <time>2015-08-30T13:52:19Z</time>
      </trkpt>
      <trkpt lat="46.00368" lon="6.49059">
        <ele>1662.26</ele>
        <time>2015-08-30T13:52:33Z</time>
      </trkpt>
      <trkpt lat="46.00364" lon="6.49049">
        <ele>1660.33</ele>
        <time>2015-08-30T13:52:44Z</time>
      </trkpt>
      <trkpt lat="46.00362" lon="6.49045">
        <ele>1660.33</ele>
        <time>2015-08-30T13:52:48Z</time>
      </trkpt>
      <trkpt lat="46.00355" lon="6.4903">
        <ele>1660.33</ele>
        <time>2015-08-30T13:53:02Z</time>
      </trkpt>
      <trkpt lat="46.00348" lon="6.49015">
        <ele>1659.37</ele>
        <time>2015-08-30T13:53:15Z</time>
      </trkpt>
      <trkpt lat="46.0034" lon="6.49013">
        <ele>1657.45</ele>
        <time>2015-08-30T13:53:29Z</time>
      </trkpt>
      <trkpt lat="46.00335" lon="6.49009">
        <ele>1655.53</ele>
        <time>2015-08-30T13:53:37Z</time>
      </trkpt>
      <trkpt lat="46.00329" lon="6.49004">
        <ele>1655.53</ele>
        <time>2015-08-30T13:53:43Z</time>
      </trkpt>
      <trkpt lat="46.00323" lon="6.48999">
        <ele>1654.57</ele>
        <time>2015-08-30T13:53:50Z</time>
      </trkpt>
      <trkpt lat="46.00312" lon="6.48989">
        <ele>1654.57</ele>
        <time>2015-08-30T13:54:06Z</time>
      </trkpt>
      <trkpt lat="46.00311" lon="6.4898">
        <ele>1652.16</ele>
        <time>2015-08-30T13:54:18Z</time>
      </trkpt>
      <trkpt lat="46.00304" lon="6.48977">
        <ele>1649.28</ele>
        <time>2015-08-30T13:54:29Z</time>
      </trkpt>
      <trkpt lat="46.00294" lon="6.48974">
        <ele>1647.36</ele>
        <time>2015-08-30T13:54:42Z</time>
      </trkpt>
      <trkpt lat="46.00292" lon="6.48972">
        <ele>1647.36</ele>
        <time>2015-08-30T13:54:45Z</time>
      </trkpt>
      <trkpt lat="46.00289" lon="6.48971">
        <ele>1647.36</ele>
        <time>2015-08-30T13:54:48Z</time>
      </trkpt>
      <trkpt lat="46.00279" lon="6.48961">
        <ele>1646.88</ele>
        <time>2015-08-30T13:55:00Z</time>
      </trkpt>
      <trkpt lat="46.00279" lon="6.48954">
        <ele>1646.88</ele>
        <time>2015-08-30T13:55:07Z</time>
      </trkpt>
      <trkpt lat="46.00276" lon="6.48941">
        <ele>1646.4</ele>
        <time>2015-08-30T13:55:20Z</time>
      </trkpt>
      <trkpt lat="46.00261" lon="6.48928">
        <ele>1644.95</ele>
        <time>2015-08-30T13:55:39Z</time>
      </trkpt>
      <trkpt lat="46.00255" lon="6.48926">
        <ele>1643.99</ele>
        <time>2015-08-30T13:55:48Z</time>
      </trkpt>
      <trkpt lat="46.00243" lon="6.48914">
        <ele>1643.51</ele>
        <time>2015-08-30T13:56:03Z</time>
      </trkpt>
      <trkpt lat="46.00237" lon="6.48913">
        <ele>1641.59</ele>
        <time>2015-08-30T13:56:15Z</time>
      </trkpt>
      <trkpt lat="46.00234" lon="6.48912">
        <ele>1641.59</ele>
        <time>2015-08-30T13:56:18Z</time>
      </trkpt>
      <trkpt lat="46.00223" lon="6.48907">
        <ele>1643.03</ele>
        <time>2015-08-30T13:56:30Z</time>
      </trkpt>
      <trkpt lat="46.00213" lon="6.48904">
        <ele>1643.99</ele>
        <time>2015-08-30T13:56:44Z</time>
      </trkpt>
      <trkpt lat="46.00207" lon="6.48899">
        <ele>1646.4</ele>
        <time>2015-08-30T13:56:57Z</time>
      </trkpt>
      <trkpt lat="46.00204" lon="6.48898">
        <ele>1647.84</ele>
        <time>2015-08-30T13:57:10Z</time>
      </trkpt>
      <trkpt lat="46.00204" lon="6.48896">
        <ele>1648.32</ele>
        <time>2015-08-30T13:57:25Z</time>
      </trkpt>
      <trkpt lat="46.00206" lon="6.48895">
        <ele>1648.32</ele>
        <time>2015-08-30T13:57:46Z</time>
      </trkpt>
      <trkpt lat="46.00207" lon="6.48898">
        <ele>1648.32</ele>
        <time>2015-08-30T13:58:23Z</time>
      </trkpt>
      <trkpt lat="46.00206" lon="6.48897">
        <ele>1648.32</ele>
        <time>2015-08-30T13:58:58Z</time>
      </trkpt>
      <trkpt lat="46.00205" lon="6.48897">
        <ele>1648.32</ele>
        <time>2015-08-30T13:59:39Z</time>
      </trkpt>
      <trkpt lat="46.00206" lon="6.48898">
        <ele>1648.32</ele>
        <time>2015-08-30T14:00:13Z</time>
      </trkpt>
      <trkpt lat="46.00205" lon="6.48897">
        <ele>1648.32</ele>
        <time>2015-08-30T14:00:51Z</time>
      </trkpt>
      <trkpt lat="46.00206" lon="6.48898">
        <ele>1648.32</ele>
        <time>2015-08-30T14:01:31Z</time>
      </trkpt>
      <trkpt lat="46.00205" lon="6.48898">
        <ele>1648.32</ele>
        <time>2015-08-30T14:02:05Z</time>
      </trkpt>
      <trkpt lat="46.00205" lon="6.48899">
        <ele>1648.32</ele>
        <time>2015-08-30T14:02:34Z</time>
      </trkpt>
      <trkpt lat="46.00205" lon="6.48897">
        <ele>1649.28</ele>
        <time>2015-08-30T14:03:02Z</time>
      </trkpt>
      <trkpt lat="46.00207" lon="6.48899">
        <ele>1649.76</ele>
        <time>2015-08-30T14:03:17Z</time>
      </trkpt>
      <trkpt lat="46.00205" lon="6.48901">
        <ele>1649.76</ele>
        <time>2015-08-30T14:03:32Z</time>
      </trkpt>
      <trkpt lat="46.00203" lon="6.48899">
        <ele>1650.24</ele>
        <time>2015-08-30T14:03:44Z</time>
      </trkpt>
      <trkpt lat="46.00194" lon="6.48896">
        <ele>1652.64</ele>
        <time>2015-08-30T14:03:56Z</time>
      </trkpt>
      <trkpt lat="46.0018" lon="6.48895">
        <ele>1652.64</ele>
        <time>2015-08-30T14:04:11Z</time>
      </trkpt>
      <trkpt lat="46.0017" lon="6.48888">
        <ele>1654.09</ele>
        <time>2015-08-30T14:04:24Z</time>
      </trkpt>
      <trkpt lat="46.00163" lon="6.48885">
        <ele>1656.97</ele>
        <time>2015-08-30T14:04:40Z</time>
      </trkpt>
      <trkpt lat="46.00155" lon="6.48884">
        <ele>1657.93</ele>
        <time>2015-08-30T14:04:52Z</time>
      </trkpt>
      <trkpt lat="46.00151" lon="6.48875">
        <ele>1659.37</ele>
        <time>2015-08-30T14:05:05Z</time>
      </trkpt>
      <trkpt lat="46.00146" lon="6.4887">
        <ele>1660.81</ele>
        <time>2015-08-30T14:05:18Z</time>
      </trkpt>
      <trkpt lat="46.00143" lon="6.48863">
        <ele>1662.26</ele>
        <time>2015-08-30T14:05:30Z</time>
      </trkpt>
      <trkpt lat="46.00141" lon="6.48857">
        <ele>1664.18</ele>
        <time>2015-08-30T14:05:43Z</time>
      </trkpt>
      <trkpt lat="46.00142" lon="6.4885">
        <ele>1665.62</ele>
        <time>2015-08-30T14:05:56Z</time>
      </trkpt>
      <trkpt lat="46.00135" lon="6.48845">
        <ele>1667.54</ele>
        <time>2015-08-30T14:06:08Z</time>
      </trkpt>
      <trkpt lat="46.0013" lon="6.48842">
        <ele>1668.02</ele>
        <time>2015-08-30T14:06:20Z</time>
      </trkpt>
      <trkpt lat="46.00123" lon="6.48837">
        <ele>1668.51</ele>
        <time>2015-08-30T14:06:28Z</time>
      </trkpt>
      <trkpt lat="46.00115" lon="6.48829">
        <ele>1670.43</ele>
        <time>2015-08-30T14:06:42Z</time>
      </trkpt>
      <trkpt lat="46.00109" lon="6.48828">
        <ele>1671.87</ele>
        <time>2015-08-30T14:06:53Z</time>
      </trkpt>
      <trkpt lat="46.00104" lon="6.48824">
        <ele>1671.87</ele>
        <time>2015-08-30T14:06:58Z</time>
      </trkpt>
      <trkpt lat="46.00097" lon="6.48805">
        <ele>1671.87</ele>
        <time>2015-08-30T14:07:11Z</time>
      </trkpt>
      <trkpt lat="46.00086" lon="6.48784">
        <ele>1671.87</ele>
        <time>2015-08-30T14:07:29Z</time>
      </trkpt>
      <trkpt lat="46.00086" lon="6.48776">
        <ele>1672.35</ele>
        <time>2015-08-30T14:07:38Z</time>
      </trkpt>
      <trkpt lat="46.00081" lon="6.48766">
        <ele>1673.31</ele>
        <time>2015-08-30T14:07:50Z</time>
      </trkpt>
      <trkpt lat="46.00074" lon="6.48758">
        <ele>1673.31</ele>
        <time>2015-08-30T14:08:01Z</time>
      </trkpt>
      <trkpt lat="46.0007" lon="6.48747">
        <ele>1673.31</ele>
        <time>2015-08-30T14:08:11Z</time>
      </trkpt>
      <trkpt lat="46.00069" lon="6.48741">
        <ele>1673.31</ele>
        <time>2015-08-30T14:08:15Z</time>
      </trkpt>
      <trkpt lat="46.00062" lon="6.4873">
        <ele>1674.75</ele>
        <time>2015-08-30T14:08:28Z</time>
      </trkpt>
      <trkpt lat="46.00061" lon="6.4872">
        <ele>1677.16</ele>
        <time>2015-08-30T14:08:41Z</time>
      </trkpt>
      <trkpt lat="46.00056" lon="6.48708">
        <ele>1679.08</ele>
        <time>2015-08-30T14:08:55Z</time>
      </trkpt>
      <trkpt lat="46.00055" lon="6.48701">
        <ele>1679.56</ele>
        <time>2015-08-30T14:09:01Z</time>
      </trkpt>
      <trkpt lat="46.00053" lon="6.48693">
        <ele>1680.52</ele>
        <time>2015-08-30T14:09:08Z</time>
      </trkpt>
      <trkpt lat="46.00053" lon="6.48689">
        <ele>1680.04</ele>
        <time>2015-08-30T14:09:13Z</time>
      </trkpt>
      <trkpt lat="46.00042" lon="6.48671">
        <ele>1681</ele>
        <time>2015-08-30T14:09:29Z</time>
      </trkpt>
      <trkpt lat="46.00037" lon="6.48658">
        <ele>1681.48</ele>
        <time>2015-08-30T14:09:42Z</time>
      </trkpt>
      <trkpt lat="46.00037" lon="6.48657">
        <ele>1680.52</ele>
        <time>2015-08-30T14:09:48Z</time>
      </trkpt>
      <trkpt lat="46.00037" lon="6.48657">
        <ele>1681.96</ele>
        <time>2015-08-30T14:09:50Z</time>
      </trkpt>
      <trkpt lat="46.00038" lon="6.48652">
        <ele>1682.44</ele>
        <time>2015-08-30T14:10:11Z</time>
      </trkpt>
      <trkpt lat="46.00037" lon="6.48649">
        <ele>1682.93</ele>
        <time>2015-08-30T14:10:14Z</time>
      </trkpt>
      <trkpt lat="46.00033" lon="6.48643">
        <ele>1683.41</ele>
        <time>2015-08-30T14:10:20Z</time>
      </trkpt>
      <trkpt lat="46.00031" lon="6.48633">
        <ele>1684.37</ele>
        <time>2015-08-30T14:10:28Z</time>
      </trkpt>
      <trkpt lat="46.00027" lon="6.4863">
        <ele>1684.37</ele>
        <time>2015-08-30T14:10:33Z</time>
      </trkpt>
      <trkpt lat="46.00013" lon="6.48605">
        <ele>1684.37</ele>
        <time>2015-08-30T14:10:51Z</time>
      </trkpt>
      <trkpt lat="46.00007" lon="6.48595">
        <ele>1684.37</ele>
        <time>2015-08-30T14:10:59Z</time>
      </trkpt>
      <trkpt lat="46.00005" lon="6.48593">
        <ele>1684.37</ele>
        <time>2015-08-30T14:11:01Z</time>
      </trkpt>
      <trkpt lat="46.00003" lon="6.4859">
        <ele>1682.93</ele>
        <time>2015-08-30T14:11:04Z</time>
      </trkpt>
      <trkpt lat="46.00002" lon="6.48589">
        <ele>1682.93</ele>
        <time>2015-08-30T14:11:05Z</time>
      </trkpt>
      <trkpt lat="45.99999" lon="6.48586">
        <ele>1682.44</ele>
        <time>2015-08-30T14:11:09Z</time>
      </trkpt>
      <trkpt lat="45.99988" lon="6.48576">
        <ele>1681.48</ele>
        <time>2015-08-30T14:11:23Z</time>
      </trkpt>
      <trkpt lat="45.99984" lon="6.48573">
        <ele>1681</ele>
        <time>2015-08-30T14:11:27Z</time>
      </trkpt>
      <trkpt lat="45.99977" lon="6.48542">
        <ele>1679.56</ele>
        <time>2015-08-30T14:11:45Z</time>
      </trkpt>
      <trkpt lat="45.99966" lon="6.48503">
        <ele>1679.56</ele>
        <time>2015-08-30T14:12:08Z</time>
      </trkpt>
      <trkpt lat="45.99957" lon="6.48484">
        <ele>1677.64</ele>
        <time>2015-08-30T14:12:24Z</time>
      </trkpt>
      <trkpt lat="45.99951" lon="6.48465">
        <ele>1676.68</ele>
        <time>2015-08-30T14:12:38Z</time>
      </trkpt>
      <trkpt lat="45.9995" lon="6.48462">
        <ele>1678.12</ele>
        <time>2015-08-30T14:12:40Z</time>
      </trkpt>
      <trkpt lat="45.99948" lon="6.48455">
        <ele>1679.08</ele>
        <time>2015-08-30T14:12:47Z</time>
      </trkpt>
      <trkpt lat="45.99946" lon="6.48448">
        <ele>1679.56</ele>
        <time>2015-08-30T14:12:52Z</time>
      </trkpt>
      <trkpt lat="45.9994" lon="6.48438">
        <ele>1679.56</ele>
        <time>2015-08-30T14:13:00Z</time>
      </trkpt>
      <trkpt lat="45.99938" lon="6.48421">
        <ele>1680.52</ele>
        <time>2015-08-30T14:13:11Z</time>
      </trkpt>
      <trkpt lat="45.99939" lon="6.48413">
        <ele>1680.52</ele>
        <time>2015-08-30T14:13:17Z</time>
      </trkpt>
      <trkpt lat="45.99939" lon="6.48405">
        <ele>1680.52</ele>
        <time>2015-08-30T14:13:22Z</time>
      </trkpt>
      <trkpt lat="45.99939" lon="6.48396">
        <ele>1680.52</ele>
        <time>2015-08-30T14:13:27Z</time>
      </trkpt>
      <trkpt lat="45.99938" lon="6.48389">
        <ele>1679.08</ele>
        <time>2015-08-30T14:13:31Z</time>
      </trkpt>
      <trkpt lat="45.99938" lon="6.48383">
        <ele>1679.08</ele>
        <time>2015-08-30T14:13:35Z</time>
      </trkpt>
      <trkpt lat="45.9993" lon="6.48358">
        <ele>1678.12</ele>
        <time>2015-08-30T14:13:52Z</time>
      </trkpt>
      <trkpt lat="45.99922" lon="6.48336">
        <ele>1677.64</ele>
        <time>2015-08-30T14:14:07Z</time>
      </trkpt>
      <trkpt lat="45.99921" lon="6.48334">
        <ele>1676.68</ele>
        <time>2015-08-30T14:14:09Z</time>
      </trkpt>
      <trkpt lat="45.9992" lon="6.48332">
        <ele>1676.68</ele>
        <time>2015-08-30T14:14:11Z</time>
      </trkpt>
      <trkpt lat="45.99917" lon="6.48326">
        <ele>1676.2</ele>
        <time>2015-08-30T14:14:15Z</time>
      </trkpt>
      <trkpt lat="45.99913" lon="6.48315">
        <ele>1675.72</ele>
        <time>2015-08-30T14:14:23Z</time>
      </trkpt>
      <trkpt lat="45.9991" lon="6.4831">
        <ele>1675.23</ele>
        <time>2015-08-30T14:14:27Z</time>
      </trkpt>
      <trkpt lat="45.99906" lon="6.48293">
        <ele>1671.87</ele>
        <time>2015-08-30T14:14:41Z</time>
      </trkpt>
      <trkpt lat="45.99903" lon="6.48285">
        <ele>1669.47</ele>
        <time>2015-08-30T14:14:52Z</time>
      </trkpt>
      <trkpt lat="45.99898" lon="6.48277">
        <ele>1666.58</ele>
        <time>2015-08-30T14:14:58Z</time>
      </trkpt>
      <trkpt lat="45.99896" lon="6.48273">
        <ele>1665.62</ele>
        <time>2015-08-30T14:15:03Z</time>
      </trkpt>
      <trkpt lat="45.99888" lon="6.48269">
        <ele>1662.74</ele>
        <time>2015-08-30T14:15:15Z</time>
      </trkpt>
      <trkpt lat="45.99884" lon="6.48265">
        <ele>1661.3</ele>
        <time>2015-08-30T14:15:27Z</time>
      </trkpt>
      <trkpt lat="45.99878" lon="6.4826">
        <ele>1658.41</ele>
        <time>2015-08-30T14:15:37Z</time>
      </trkpt>
      <trkpt lat="45.99865" lon="6.48258">
        <ele>1655.05</ele>
        <time>2015-08-30T14:15:50Z</time>
      </trkpt>
      <trkpt lat="45.99848" lon="6.48248">
        <ele>1655.05</ele>
        <time>2015-08-30T14:16:06Z</time>
      </trkpt>
      <trkpt lat="45.99844" lon="6.48244">
        <ele>1655.05</ele>
        <time>2015-08-30T14:16:10Z</time>
      </trkpt>
      <trkpt lat="45.99842" lon="6.48243">
        <ele>1655.05</ele>
        <time>2015-08-30T14:16:12Z</time>
      </trkpt>
      <trkpt lat="45.99832" lon="6.48232">
        <ele>1656.49</ele>
        <time>2015-08-30T14:16:24Z</time>
      </trkpt>
      <trkpt lat="45.99828" lon="6.48227">
        <ele>1656.49</ele>
        <time>2015-08-30T14:16:30Z</time>
      </trkpt>
      <trkpt lat="45.99824" lon="6.48223">
        <ele>1655.05</ele>
        <time>2015-08-30T14:16:34Z</time>
      </trkpt>
      <trkpt lat="45.99818" lon="6.48208">
        <ele>1655.05</ele>
        <time>2015-08-30T14:16:44Z</time>
      </trkpt>
      <trkpt lat="45.99817" lon="6.48202">
        <ele>1656.01</ele>
        <time>2015-08-30T14:16:49Z</time>
      </trkpt>
      <trkpt lat="45.99814" lon="6.48191">
        <ele>1656.97</ele>
        <time>2015-08-30T14:16:58Z</time>
      </trkpt>
      <trkpt lat="45.99802" lon="6.48178">
        <ele>1655.05</ele>
        <time>2015-08-30T14:17:11Z</time>
      </trkpt>
      <trkpt lat="45.99796" lon="6.48171">
        <ele>1654.57</ele>
        <time>2015-08-30T14:17:18Z</time>
      </trkpt>
      <trkpt lat="45.99781" lon="6.48152">
        <ele>1654.09</ele>
        <time>2015-08-30T14:17:34Z</time>
      </trkpt>
      <trkpt lat="45.99774" lon="6.48133">
        <ele>1653.12</ele>
        <time>2015-08-30T14:17:46Z</time>
      </trkpt>
      <trkpt lat="45.99771" lon="6.48127">
        <ele>1652.16</ele>
        <time>2015-08-30T14:17:50Z</time>
      </trkpt>
      <trkpt lat="45.99769" lon="6.48118">
        <ele>1652.64</ele>
        <time>2015-08-30T14:17:55Z</time>
      </trkpt>
      <trkpt lat="45.99766" lon="6.48113">
        <ele>1652.16</ele>
        <time>2015-08-30T14:17:59Z</time>
      </trkpt>
      <trkpt lat="45.99755" lon="6.48084">
        <ele>1650.24</ele>
        <time>2015-08-30T14:18:18Z</time>
      </trkpt>
      <trkpt lat="45.99749" lon="6.4806">
        <ele>1649.76</ele>
        <time>2015-08-30T14:18:33Z</time>
      </trkpt>
      <trkpt lat="45.99746" lon="6.48047">
        <ele>1649.76</ele>
        <time>2015-08-30T14:18:43Z</time>
      </trkpt>
      <trkpt lat="45.99743" lon="6.48032">
        <ele>1651.2</ele>
        <time>2015-08-30T14:18:53Z</time>
      </trkpt>
      <trkpt lat="45.99739" lon="6.48014">
        <ele>1653.12</ele>
        <time>2015-08-30T14:19:08Z</time>
      </trkpt>
      <trkpt lat="45.99737" lon="6.48008">
        <ele>1653.6</ele>
        <time>2015-08-30T14:19:16Z</time>
      </trkpt>
      <trkpt lat="45.99736" lon="6.48009">
        <ele>1653.6</ele>
        <time>2015-08-30T14:19:18Z</time>
      </trkpt>
      <trkpt lat="45.99733" lon="6.48004">
        <ele>1653.6</ele>
        <time>2015-08-30T14:19:22Z</time>
      </trkpt>
      <trkpt lat="45.99727" lon="6.47993">
        <ele>1653.6</ele>
        <time>2015-08-30T14:19:31Z</time>
      </trkpt>
      <trkpt lat="45.99725" lon="6.47989">
        <ele>1653.6</ele>
        <time>2015-08-30T14:19:46Z</time>
      </trkpt>
      <trkpt lat="45.99718" lon="6.47986">
        <ele>1654.57</ele>
        <time>2015-08-30T14:20:00Z</time>
      </trkpt>
      <trkpt lat="45.99713" lon="6.47975">
        <ele>1655.05</ele>
        <time>2015-08-30T14:20:13Z</time>
      </trkpt>
      <trkpt lat="45.99712" lon="6.47973">
        <ele>1653.6</ele>
        <time>2015-08-30T14:20:15Z</time>
      </trkpt>
      <trkpt lat="45.99702" lon="6.47971">
        <ele>1651.2</ele>
        <time>2015-08-30T14:20:27Z</time>
      </trkpt>
      <trkpt lat="45.99701" lon="6.47973">
        <ele>1651.2</ele>
        <time>2015-08-30T14:20:29Z</time>
      </trkpt>
      <trkpt lat="45.9969" lon="6.47974">
        <ele>1648.32</ele>
        <time>2015-08-30T14:20:42Z</time>
      </trkpt>
      <trkpt lat="45.99681" lon="6.47974">
        <ele>1648.8</ele>
        <time>2015-08-30T14:20:52Z</time>
      </trkpt>
      <trkpt lat="45.99679" lon="6.47977">
        <ele>1648.8</ele>
        <time>2015-08-30T14:20:55Z</time>
      </trkpt>
      <trkpt lat="45.99666" lon="6.47968">
        <ele>1648.8</ele>
        <time>2015-08-30T14:21:08Z</time>
      </trkpt>
      <trkpt lat="45.99652" lon="6.47959">
        <ele>1650.24</ele>
        <time>2015-08-30T14:21:22Z</time>
      </trkpt>
      <trkpt lat="45.99641" lon="6.47943">
        <ele>1652.64</ele>
        <time>2015-08-30T14:21:37Z</time>
      </trkpt>
      <trkpt lat="45.99638" lon="6.47932">
        <ele>1654.09</ele>
        <time>2015-08-30T14:21:50Z</time>
      </trkpt>
      <trkpt lat="45.99636" lon="6.47926">
        <ele>1655.53</ele>
        <time>2015-08-30T14:21:58Z</time>
      </trkpt>
      <trkpt lat="45.99634" lon="6.47923">
        <ele>1655.53</ele>
        <time>2015-08-30T14:22:01Z</time>
      </trkpt>
      <trkpt lat="45.99626" lon="6.47923">
        <ele>1656.01</ele>
        <time>2015-08-30T14:22:10Z</time>
      </trkpt>
      <trkpt lat="45.99619" lon="6.47917">
        <ele>1657.45</ele>
        <time>2015-08-30T14:22:23Z</time>
      </trkpt>
      <trkpt lat="45.99614" lon="6.4792">
        <ele>1658.89</ele>
        <time>2015-08-30T14:22:34Z</time>
      </trkpt>
      <trkpt lat="45.99607" lon="6.47929">
        <ele>1659.85</ele>
        <time>2015-08-30T14:22:47Z</time>
      </trkpt>
      <trkpt lat="45.996" lon="6.47937">
        <ele>1661.3</ele>
        <time>2015-08-30T14:22:58Z</time>
      </trkpt>
      <trkpt lat="45.99589" lon="6.47949">
        <ele>1660.33</ele>
        <time>2015-08-30T14:23:13Z</time>
      </trkpt>
      <trkpt lat="45.9957" lon="6.47945">
        <ele>1659.37</ele>
        <time>2015-08-30T14:23:31Z</time>
      </trkpt>
      <trkpt lat="45.99561" lon="6.47927">
        <ele>1658.89</ele>
        <time>2015-08-30T14:23:46Z</time>
      </trkpt>
      <trkpt lat="45.99561" lon="6.47922">
        <ele>1658.89</ele>
        <time>2015-08-30T14:23:49Z</time>
      </trkpt>
      <trkpt lat="45.99562" lon="6.47909">
        <ele>1661.3</ele>
        <time>2015-08-30T14:23:58Z</time>
      </trkpt>
      <trkpt lat="45.99559" lon="6.47899">
        <ele>1661.3</ele>
        <time>2015-08-30T14:24:05Z</time>
      </trkpt>
      <trkpt lat="45.99559" lon="6.4789">
        <ele>1662.74</ele>
        <time>2015-08-30T14:24:12Z</time>
      </trkpt>
      <trkpt lat="45.99555" lon="6.47867">
        <ele>1664.18</ele>
        <time>2015-08-30T14:24:31Z</time>
      </trkpt>
      <trkpt lat="45.99554" lon="6.47849">
        <ele>1665.62</ele>
        <time>2015-08-30T14:24:44Z</time>
      </trkpt>
      <trkpt lat="45.99554" lon="6.47833">
        <ele>1667.54</ele>
        <time>2015-08-30T14:24:58Z</time>
      </trkpt>
      <trkpt lat="45.99556" lon="6.47819">
        <ele>1670.43</ele>
        <time>2015-08-30T14:25:13Z</time>
      </trkpt>
      <trkpt lat="45.99555" lon="6.478">
        <ele>1671.87</ele>
        <time>2015-08-30T14:25:28Z</time>
      </trkpt>
      <trkpt lat="45.99558" lon="6.47788">
        <ele>1674.27</ele>
        <time>2015-08-30T14:25:41Z</time>
      </trkpt>
      <trkpt lat="45.99558" lon="6.47777">
        <ele>1676.2</ele>
        <time>2015-08-30T14:25:54Z</time>
      </trkpt>
      <trkpt lat="45.99559" lon="6.47764">
        <ele>1679.08</ele>
        <time>2015-08-30T14:26:09Z</time>
      </trkpt>
      <trkpt lat="45.99559" lon="6.47757">
        <ele>1680.04</ele>
        <time>2015-08-30T14:26:17Z</time>
      </trkpt>
      <trkpt lat="45.99558" lon="6.47754">
        <ele>1680.52</ele>
        <time>2015-08-30T14:26:20Z</time>
      </trkpt>
      <trkpt lat="45.99556" lon="6.47741">
        <ele>1681.48</ele>
        <time>2015-08-30T14:26:33Z</time>
      </trkpt>
      <trkpt lat="45.99554" lon="6.47725">
        <ele>1682.44</ele>
        <time>2015-08-30T14:26:47Z</time>
      </trkpt>
      <trkpt lat="45.99545" lon="6.47708">
        <ele>1680.52</ele>
        <time>2015-08-30T14:27:01Z</time>
      </trkpt>
      <trkpt lat="45.99536" lon="6.47708">
        <ele>1679.56</ele>
        <time>2015-08-30T14:27:09Z</time>
      </trkpt>
      <trkpt lat="45.99521" lon="6.4771">
        <ele>1677.64</ele>
        <time>2015-08-30T14:27:22Z</time>
      </trkpt>
      <trkpt lat="45.99501" lon="6.47705">
        <ele>1677.64</ele>
        <time>2015-08-30T14:27:38Z</time>
      </trkpt>
      <trkpt lat="45.99482" lon="6.47689">
        <ele>1677.64</ele>
        <time>2015-08-30T14:27:56Z</time>
      </trkpt>
      <trkpt lat="45.99479" lon="6.47687">
        <ele>1677.64</ele>
        <time>2015-08-30T14:27:59Z</time>
      </trkpt>
      <trkpt lat="45.99463" lon="6.47689">
        <ele>1678.6</ele>
        <time>2015-08-30T14:28:12Z</time>
      </trkpt>
      <trkpt lat="45.99442" lon="6.47684">
        <ele>1678.6</ele>
        <time>2015-08-30T14:28:29Z</time>
      </trkpt>
      <trkpt lat="45.99424" lon="6.47693">
        <ele>1677.64</ele>
        <time>2015-08-30T14:28:45Z</time>
      </trkpt>
      <trkpt lat="45.99416" lon="6.47692">
        <ele>1677.16</ele>
        <time>2015-08-30T14:28:51Z</time>
      </trkpt>
      <trkpt lat="45.99399" lon="6.47674">
        <ele>1674.27</ele>
        <time>2015-08-30T14:29:06Z</time>
      </trkpt>
      <trkpt lat="45.99398" lon="6.47672">
        <ele>1674.27</ele>
        <time>2015-08-30T14:29:08Z</time>
      </trkpt>
      <trkpt lat="45.99385" lon="6.47649">
        <ele>1670.91</ele>
        <time>2015-08-30T14:29:24Z</time>
      </trkpt>
      <trkpt lat="45.99374" lon="6.47623">
        <ele>1668.51</ele>
        <time>2015-08-30T14:29:40Z</time>
      </trkpt>
      <trkpt lat="45.9937" lon="6.47614">
        <ele>1667.54</ele>
        <time>2015-08-30T14:29:46Z</time>
      </trkpt>
      <trkpt lat="45.99366" lon="6.4762">
        <ele>1667.06</ele>
        <time>2015-08-30T14:29:52Z</time>
      </trkpt>
      <trkpt lat="45.99373" lon="6.47654">
        <ele>1664.66</ele>
        <time>2015-08-30T14:30:14Z</time>
      </trkpt>
      <trkpt lat="45.99379" lon="6.4767">
        <ele>1661.78</ele>
        <time>2015-08-30T14:30:27Z</time>
      </trkpt>
      <trkpt lat="45.99379" lon="6.47677">
        <ele>1661.3</ele>
        <time>2015-08-30T14:30:31Z</time>
      </trkpt>
      <trkpt lat="45.99359" lon="6.47679">
        <ele>1656.97</ele>
        <time>2015-08-30T14:30:47Z</time>
      </trkpt>
      <trkpt lat="45.99344" lon="6.47659">
        <ele>1654.09</ele>
        <time>2015-08-30T14:31:03Z</time>
      </trkpt>
      <trkpt lat="45.99337" lon="6.47643">
        <ele>1651.2</ele>
        <time>2015-08-30T14:31:13Z</time>
      </trkpt>
      <trkpt lat="45.99336" lon="6.47642">
        <ele>1651.2</ele>
        <time>2015-08-30T14:31:14Z</time>
      </trkpt>
      <trkpt lat="45.9933" lon="6.47632">
        <ele>1649.28</ele>
        <time>2015-08-30T14:31:22Z</time>
      </trkpt>
      <trkpt lat="45.99324" lon="6.47624">
        <ele>1647.84</ele>
        <time>2015-08-30T14:31:29Z</time>
      </trkpt>
      <trkpt lat="45.99321" lon="6.47617">
        <ele>1646.4</ele>
        <time>2015-08-30T14:31:35Z</time>
      </trkpt>
      <trkpt lat="45.99315" lon="6.4761">
        <ele>1645.43</ele>
        <time>2015-08-30T14:31:42Z</time>
      </trkpt>
      <trkpt lat="45.99303" lon="6.4759">
        <ele>1642.07</ele>
        <time>2015-08-30T14:31:57Z</time>
      </trkpt>
      <trkpt lat="45.99297" lon="6.4758">
        <ele>1640.63</ele>
        <time>2015-08-30T14:32:04Z</time>
      </trkpt>
      <trkpt lat="45.99298" lon="6.47578">
        <ele>1640.63</ele>
        <time>2015-08-30T14:32:16Z</time>
      </trkpt>
      <trkpt lat="45.99299" lon="6.47577">
        <ele>1640.63</ele>
        <time>2015-08-30T14:32:30Z</time>
      </trkpt>
      <trkpt lat="45.993" lon="6.47577">
        <ele>1640.63</ele>
        <time>2015-08-30T14:32:52Z</time>
      </trkpt>
      <trkpt lat="45.99299" lon="6.47576">
        <ele>1640.63</ele>
        <time>2015-08-30T14:33:05Z</time>
      </trkpt>
      <trkpt lat="45.99298" lon="6.47573">
        <ele>1640.63</ele>
        <time>2015-08-30T14:33:20Z</time>
      </trkpt>
      <trkpt lat="45.99299" lon="6.47576">
        <ele>1640.63</ele>
        <time>2015-08-30T14:33:38Z</time>
      </trkpt>
      <trkpt lat="45.99301" lon="6.47576">
        <ele>1640.63</ele>
        <time>2015-08-30T14:34:01Z</time>
      </trkpt>
      <trkpt lat="45.99301" lon="6.47577">
        <ele>1640.15</ele>
        <time>2015-08-30T14:34:13Z</time>
      </trkpt>
      <trkpt lat="45.99301" lon="6.47578">
        <ele>1639.67</ele>
        <time>2015-08-30T14:34:35Z</time>
      </trkpt>
      <trkpt lat="45.99301" lon="6.47578">
        <ele>1639.67</ele>
        <time>2015-08-30T14:35:01Z</time>
      </trkpt>
      <trkpt lat="45.99301" lon="6.47578">
        <ele>1639.67</ele>
        <time>2015-08-30T14:35:36Z</time>
      </trkpt>
      <trkpt lat="45.993" lon="6.47579">
        <ele>1639.67</ele>
        <time>2015-08-30T14:36:11Z</time>
      </trkpt>
      <trkpt lat="45.99299" lon="6.47575">
        <ele>1641.11</ele>
        <time>2015-08-30T14:36:25Z</time>
      </trkpt>
      <trkpt lat="45.993" lon="6.47575">
        <ele>1640.63</ele>
        <time>2015-08-30T14:36:44Z</time>
      </trkpt>
      <trkpt lat="45.99302" lon="6.47575">
        <ele>1640.63</ele>
        <time>2015-08-30T14:36:59Z</time>
      </trkpt>
      <trkpt lat="45.99302" lon="6.47574">
        <ele>1640.63</ele>
        <time>2015-08-30T14:37:21Z</time>
      </trkpt>
      <trkpt lat="45.993" lon="6.47574">
        <ele>1640.63</ele>
        <time>2015-08-30T14:37:35Z</time>
      </trkpt>
      <trkpt lat="45.99298" lon="6.47575">
        <ele>1640.63</ele>
        <time>2015-08-30T14:37:54Z</time>
      </trkpt>
      <trkpt lat="45.99298" lon="6.47573">
        <ele>1639.19</ele>
        <time>2015-08-30T14:38:07Z</time>
      </trkpt>
      <trkpt lat="45.99298" lon="6.47572">
        <ele>1639.19</ele>
        <time>2015-08-30T14:38:22Z</time>
      </trkpt>
      <trkpt lat="45.99285" lon="6.47555">
        <ele>1636.78</ele>
        <time>2015-08-30T14:38:39Z</time>
      </trkpt>
      <trkpt lat="45.99274" lon="6.4754">
        <ele>1634.38</ele>
        <time>2015-08-30T14:38:55Z</time>
      </trkpt>
      <trkpt lat="45.99263" lon="6.47524">
        <ele>1631.98</ele>
        <time>2015-08-30T14:39:12Z</time>
      </trkpt>
      <trkpt lat="45.99252" lon="6.47508">
        <ele>1628.61</ele>
        <time>2015-08-30T14:39:30Z</time>
      </trkpt>
      <trkpt lat="45.99242" lon="6.47491">
        <ele>1625.73</ele>
        <time>2015-08-30T14:39:48Z</time>
      </trkpt>
      <trkpt lat="45.99233" lon="6.47476">
        <ele>1622.84</ele>
        <time>2015-08-30T14:40:03Z</time>
      </trkpt>
      <trkpt lat="45.99223" lon="6.47453">
        <ele>1619.96</ele>
        <time>2015-08-30T14:40:22Z</time>
      </trkpt>
      <trkpt lat="45.99221" lon="6.47462">
        <ele>1618.52</ele>
        <time>2015-08-30T14:40:34Z</time>
      </trkpt>
      <trkpt lat="45.99222" lon="6.47464">
        <ele>1618.04</ele>
        <time>2015-08-30T14:40:36Z</time>
      </trkpt>
      <trkpt lat="45.99225" lon="6.47487">
        <ele>1615.63</ele>
        <time>2015-08-30T14:40:53Z</time>
      </trkpt>
      <trkpt lat="45.99226" lon="6.47502">
        <ele>1613.71</ele>
        <time>2015-08-30T14:41:05Z</time>
      </trkpt>
      <trkpt lat="45.99226" lon="6.47524">
        <ele>1611.79</ele>
        <time>2015-08-30T14:41:21Z</time>
      </trkpt>
      <trkpt lat="45.99228" lon="6.47549">
        <ele>1609.86</ele>
        <time>2015-08-30T14:41:40Z</time>
      </trkpt>
      <trkpt lat="45.99229" lon="6.47552">
        <ele>1609.38</ele>
        <time>2015-08-30T14:41:55Z</time>
      </trkpt>
    </trkseg>
  </trk>
</gpx>